<?xml version="1.0" encoding="utf-8"?>
<gpx xmlns:xsi="http://www.w3.org/2001/XMLSchema-instance" xmlns:xsd="http://www.w3.org/2001/XMLSchema" version="1.1" creator="Shapelink.com" xmlns="http://www.topografix.com/GPX/1/1" xmlns:gpxtpx="http://www.garmin.com/xmlschemas/TrackPointExtension/v1">
  <metadata>
    <name>Löpning 11.97 km, 2011-03-22</name>
    <desc></desc>
    <author><name>Jojje Borssén</name></author> 
    <time>2011-03-22T17:38:01Z</time>
  </metadata>
  <trk>
    <name>Löpning 11.97 km, 2011-03-22</name>
    <trkseg>
      <trkpt lat="37.1812273785" lon="-7.43695527175">
        <ele>17.2</ele>
        <time>2011-03-22T17:38:01Z</time>
      </trkpt>
      <trkpt lat="37.181233162" lon="-7.43692736003">
        <ele>17.2</ele>
        <time>2011-03-22T17:38:02Z</time>
      </trkpt>
      <trkpt lat="37.1812566313" lon="-7.43682065844">
        <ele>17.2</ele>
        <time>2011-03-22T17:38:06Z</time>
      </trkpt>
      <trkpt lat="37.1812761611" lon="-7.43674480225">
        <ele>17.2</ele>
        <time>2011-03-22T17:38:09Z</time>
      </trkpt>
      <trkpt lat="37.1812926735" lon="-7.4366665153">
        <ele>17.2</ele>
        <time>2011-03-22T17:38:12Z</time>
      </trkpt>
      <trkpt lat="37.1813120357" lon="-7.43661563717">
        <ele>17.2</ele>
        <time>2011-03-22T17:38:14Z</time>
      </trkpt>
      <trkpt lat="37.1813449765" lon="-7.43654011625">
        <ele>17.2</ele>
        <time>2011-03-22T17:38:17Z</time>
      </trkpt>
      <trkpt lat="37.1813613213" lon="-7.43648747792">
        <ele>17.2</ele>
        <time>2011-03-22T17:38:19Z</time>
      </trkpt>
      <trkpt lat="37.1813819407" lon="-7.43641120262">
        <ele>17.2</ele>
        <time>2011-03-22T17:38:22Z</time>
      </trkpt>
      <trkpt lat="37.1813982016" lon="-7.43635780992">
        <ele>17.2</ele>
        <time>2011-03-22T17:38:24Z</time>
      </trkpt>
      <trkpt lat="37.181421168" lon="-7.43627977443">
        <ele>17.2</ele>
        <time>2011-03-22T17:38:27Z</time>
      </trkpt>
      <trkpt lat="37.1814526001" lon="-7.43620601371">
        <ele>17.2</ele>
        <time>2011-03-22T17:38:30Z</time>
      </trkpt>
      <trkpt lat="37.1814711241" lon="-7.43613040897">
        <ele>17.2</ele>
        <time>2011-03-22T17:38:33Z</time>
      </trkpt>
      <trkpt lat="37.1814863792" lon="-7.43606067157">
        <ele>17.2</ele>
        <time>2011-03-22T17:38:36Z</time>
      </trkpt>
      <trkpt lat="37.1815035621" lon="-7.43600216591">
        <ele>17.2</ele>
        <time>2011-03-22T17:38:38Z</time>
      </trkpt>
      <trkpt lat="37.1815208288" lon="-7.43594718064">
        <ele>17.2</ele>
        <time>2011-03-22T17:38:40Z</time>
      </trkpt>
      <trkpt lat="37.1815354971" lon="-7.43589378794">
        <ele>17.2</ele>
        <time>2011-03-22T17:38:42Z</time>
      </trkpt>
      <trkpt lat="37.1815591341" lon="-7.43582069777">
        <ele>17.2</ele>
        <time>2011-03-22T17:38:45Z</time>
      </trkpt>
      <trkpt lat="37.1815724613" lon="-7.43573629204">
        <ele>17.2</ele>
        <time>2011-03-22T17:38:48Z</time>
      </trkpt>
      <trkpt lat="37.1815815976" lon="-7.43567887602">
        <ele>17.2</ele>
        <time>2011-03-22T17:38:50Z</time>
      </trkpt>
      <trkpt lat="37.1815997025" lon="-7.4356222982">
        <ele>17.2</ele>
        <time>2011-03-22T17:38:52Z</time>
      </trkpt>
      <trkpt lat="37.1816176398" lon="-7.43556572037">
        <ele>17.2</ele>
        <time>2011-03-22T17:38:54Z</time>
      </trkpt>
      <trkpt lat="37.1816368343" lon="-7.43551199239">
        <ele>17.2</ele>
        <time>2011-03-22T17:38:56Z</time>
      </trkpt>
      <trkpt lat="37.1816673444" lon="-7.43543378927">
        <ele>17.2</ele>
        <time>2011-03-22T17:38:59Z</time>
      </trkpt>
      <trkpt lat="37.1816958429" lon="-7.43535332303">
        <ele>17.2</ele>
        <time>2011-03-22T17:39:02Z</time>
      </trkpt>
      <trkpt lat="37.1817218268" lon="-7.43530236107">
        <ele>17.2</ele>
        <time>2011-03-22T17:39:04Z</time>
      </trkpt>
      <trkpt lat="37.181744877" lon="-7.43524854928">
        <ele>17.2</ele>
        <time>2011-03-22T17:39:06Z</time>
      </trkpt>
      <trkpt lat="37.1817674243" lon="-7.43519222291">
        <ele>17.2</ele>
        <time>2011-03-22T17:39:08Z</time>
      </trkpt>
      <trkpt lat="37.1817920671" lon="-7.43514084186">
        <ele>17.6</ele>
        <time>2011-03-22T17:39:10Z</time>
      </trkpt>
      <trkpt lat="37.181811094" lon="-7.43508870644">
        <ele>17.8</ele>
        <time>2011-03-22T17:39:12Z</time>
      </trkpt>
      <trkpt lat="37.1818258462" lon="-7.43503673866">
        <ele>18.2</ele>
        <time>2011-03-22T17:39:14Z</time>
      </trkpt>
      <trkpt lat="37.1818483096" lon="-7.43495501514">
        <ele>18.4</ele>
        <time>2011-03-22T17:39:17Z</time>
      </trkpt>
      <trkpt lat="37.1818658278" lon="-7.43489835349">
        <ele>18.6</ele>
        <time>2011-03-22T17:39:19Z</time>
      </trkpt>
      <trkpt lat="37.1818895486" lon="-7.43482149147">
        <ele>18.8</ele>
        <time>2011-03-22T17:39:22Z</time>
      </trkpt>
      <trkpt lat="37.1819006127" lon="-7.43476776349">
        <ele>18.8</ele>
        <time>2011-03-22T17:39:24Z</time>
      </trkpt>
      <trkpt lat="37.1819166221" lon="-7.43471286205">
        <ele>18.8</ele>
        <time>2011-03-22T17:39:26Z</time>
      </trkpt>
      <trkpt lat="37.1819299493" lon="-7.43463222817">
        <ele>19</ele>
        <time>2011-03-22T17:39:29Z</time>
      </trkpt>
      <trkpt lat="37.1819544245" lon="-7.4345538574">
        <ele>19</ele>
        <time>2011-03-22T17:39:32Z</time>
      </trkpt>
      <trkpt lat="37.1819706016" lon="-7.43449711194">
        <ele>19</ele>
        <time>2011-03-22T17:39:34Z</time>
      </trkpt>
      <trkpt lat="37.1819881197" lon="-7.43444036648">
        <ele>19</ele>
        <time>2011-03-22T17:39:36Z</time>
      </trkpt>
      <trkpt lat="37.1820074819" lon="-7.43438806342">
        <ele>19</ele>
        <time>2011-03-22T17:39:38Z</time>
      </trkpt>
      <trkpt lat="37.1820216473" lon="-7.43432863575">
        <ele>19.2</ele>
        <time>2011-03-22T17:39:40Z</time>
      </trkpt>
      <trkpt lat="37.1820363995" lon="-7.43427574596">
        <ele>19.2</ele>
        <time>2011-03-22T17:39:42Z</time>
      </trkpt>
      <trkpt lat="37.1820542529" lon="-7.43422319145">
        <ele>19.2</ele>
        <time>2011-03-22T17:39:44Z</time>
      </trkpt>
      <trkpt lat="37.182065317" lon="-7.43419787811">
        <ele>19.2</ele>
        <time>2011-03-22T17:39:45Z</time>
      </trkpt>
      <trkpt lat="37.1820842601" lon="-7.43411716041">
        <ele>19.2</ele>
        <time>2011-03-22T17:39:48Z</time>
      </trkpt>
      <trkpt lat="37.1820985094" lon="-7.43406167224">
        <ele>19.2</ele>
        <time>2011-03-22T17:39:50Z</time>
      </trkpt>
      <trkpt lat="37.1821252476" lon="-7.43400895009">
        <ele>19.2</ele>
        <time>2011-03-22T17:39:52Z</time>
      </trkpt>
      <trkpt lat="37.1821451965" lon="-7.43395413246">
        <ele>19.2</ele>
        <time>2011-03-22T17:39:54Z</time>
      </trkpt>
      <trkpt lat="37.1821566797" lon="-7.43389755463">
        <ele>19.2</ele>
        <time>2011-03-22T17:39:56Z</time>
      </trkpt>
      <trkpt lat="37.1821752037" lon="-7.43381390327">
        <ele>19.2</ele>
        <time>2011-03-22T17:39:59Z</time>
      </trkpt>
      <trkpt lat="37.1821898721" lon="-7.43375673871">
        <ele>19.2</ele>
        <time>2011-03-22T17:40:01Z</time>
      </trkpt>
      <trkpt lat="37.182204708" lon="-7.43370527385">
        <ele>19.2</ele>
        <time>2011-03-22T17:40:03Z</time>
      </trkpt>
      <trkpt lat="37.1822194602" lon="-7.43364852839">
        <ele>19.2</ele>
        <time>2011-03-22T17:40:05Z</time>
      </trkpt>
      <trkpt lat="37.1822368107" lon="-7.43359128001">
        <ele>19.4</ele>
        <time>2011-03-22T17:40:07Z</time>
      </trkpt>
      <trkpt lat="37.1822493836" lon="-7.43353579183">
        <ele>19.8</ele>
        <time>2011-03-22T17:40:09Z</time>
      </trkpt>
      <trkpt lat="37.1822695839" lon="-7.43345540941">
        <ele>20.2</ele>
        <time>2011-03-22T17:40:12Z</time>
      </trkpt>
      <trkpt lat="37.1822858448" lon="-7.43339958596">
        <ele>20.4</ele>
        <time>2011-03-22T17:40:14Z</time>
      </trkpt>
      <trkpt lat="37.1822961546" lon="-7.43334091266">
        <ele>20.6</ele>
        <time>2011-03-22T17:40:16Z</time>
      </trkpt>
      <trkpt lat="37.1823188695" lon="-7.43328458629">
        <ele>20.6</ele>
        <time>2011-03-22T17:40:18Z</time>
      </trkpt>
      <trkpt lat="37.1823386508" lon="-7.43322784082">
        <ele>20.8</ele>
        <time>2011-03-22T17:40:20Z</time>
      </trkpt>
      <trkpt lat="37.1823633774" lon="-7.43314578202">
        <ele>20.8</ele>
        <time>2011-03-22T17:40:23Z</time>
      </trkpt>
      <trkpt lat="37.1823825719" lon="-7.43308794691">
        <ele>21</ele>
        <time>2011-03-22T17:40:25Z</time>
      </trkpt>
      <trkpt lat="37.1823973241" lon="-7.43302910598">
        <ele>21</ele>
        <time>2011-03-22T17:40:27Z</time>
      </trkpt>
      <trkpt lat="37.1824138364" lon="-7.43297261197">
        <ele>21</ele>
        <time>2011-03-22T17:40:29Z</time>
      </trkpt>
      <trkpt lat="37.1824298459" lon="-7.43291695615">
        <ele>21</ele>
        <time>2011-03-22T17:40:31Z</time>
      </trkpt>
      <trkpt lat="37.1824468611" lon="-7.43286163561">
        <ele>21.2</ele>
        <time>2011-03-22T17:40:33Z</time>
      </trkpt>
      <trkpt lat="37.1824646308" lon="-7.43280430342">
        <ele>21.2</ele>
        <time>2011-03-22T17:40:35Z</time>
      </trkpt>
      <trkpt lat="37.1824800534" lon="-7.4327199815">
        <ele>21.2</ele>
        <time>2011-03-22T17:40:38Z</time>
      </trkpt>
      <trkpt lat="37.1824923748" lon="-7.43266516388">
        <ele>21.2</ele>
        <time>2011-03-22T17:40:40Z</time>
      </trkpt>
      <trkpt lat="37.1825182749" lon="-7.43258344035">
        <ele>21.2</ele>
        <time>2011-03-22T17:40:43Z</time>
      </trkpt>
      <trkpt lat="37.1825388106" lon="-7.43252744926">
        <ele>21.2</ele>
        <time>2011-03-22T17:40:45Z</time>
      </trkpt>
      <trkpt lat="37.1825559935" lon="-7.43247271545">
        <ele>21.2</ele>
        <time>2011-03-22T17:40:47Z</time>
      </trkpt>
      <trkpt lat="37.1825681472" lon="-7.43241521562">
        <ele>21.2</ele>
        <time>2011-03-22T17:40:49Z</time>
      </trkpt>
      <trkpt lat="37.1825818935" lon="-7.43236165528">
        <ele>21.4</ele>
        <time>2011-03-22T17:40:51Z</time>
      </trkpt>
      <trkpt lat="37.1825999984" lon="-7.4323075082">
        <ele>21.8</ele>
        <time>2011-03-22T17:40:53Z</time>
      </trkpt>
      <trkpt lat="37.1826222105" lon="-7.43225118184">
        <ele>22</ele>
        <time>2011-03-22T17:40:55Z</time>
      </trkpt>
      <trkpt lat="37.1826391419" lon="-7.43219418492">
        <ele>22.2</ele>
        <time>2011-03-22T17:40:57Z</time>
      </trkpt>
      <trkpt lat="37.1826581688" lon="-7.43213769091">
        <ele>22.4</ele>
        <time>2011-03-22T17:40:59Z</time>
      </trkpt>
      <trkpt lat="37.1826754355" lon="-7.43208002344">
        <ele>22.6</ele>
        <time>2011-03-22T17:41:01Z</time>
      </trkpt>
      <trkpt lat="37.1826894333" lon="-7.43202545727">
        <ele>22.8</ele>
        <time>2011-03-22T17:41:03Z</time>
      </trkpt>
      <trkpt lat="37.1827067838" lon="-7.4319708911">
        <ele>22.8</ele>
        <time>2011-03-22T17:41:05Z</time>
      </trkpt>
      <trkpt lat="37.1827272357" lon="-7.43191624111">
        <ele>23</ele>
        <time>2011-03-22T17:41:07Z</time>
      </trkpt>
      <trkpt lat="37.1827462626" lon="-7.43186486007">
        <ele>23</ele>
        <time>2011-03-22T17:41:09Z</time>
      </trkpt>
      <trkpt lat="37.1827636969" lon="-7.43181096445">
        <ele>23</ele>
        <time>2011-03-22T17:41:11Z</time>
      </trkpt>
      <trkpt lat="37.1827911058" lon="-7.43173343187">
        <ele>23.2</ele>
        <time>2011-03-22T17:41:14Z</time>
      </trkpt>
      <trkpt lat="37.1828136531" lon="-7.43166126371">
        <ele>23.2</ele>
        <time>2011-03-22T17:41:17Z</time>
      </trkpt>
      <trkpt lat="37.1828269803" lon="-7.4316051888">
        <ele>23.2</ele>
        <time>2011-03-22T17:41:19Z</time>
      </trkpt>
      <trkpt lat="37.182847935" lon="-7.43152220799">
        <ele>23.2</ele>
        <time>2011-03-22T17:41:22Z</time>
      </trkpt>
      <trkpt lat="37.1828709853" lon="-7.43143855663">
        <ele>23.2</ele>
        <time>2011-03-22T17:41:25Z</time>
      </trkpt>
      <trkpt lat="37.1828916047" lon="-7.43138575066">
        <ele>23.2</ele>
        <time>2011-03-22T17:41:27Z</time>
      </trkpt>
      <trkpt lat="37.1829122242" lon="-7.43130142875">
        <ele>23.2</ele>
        <time>2011-03-22T17:41:30Z</time>
      </trkpt>
      <trkpt lat="37.1829281498" lon="-7.43124635966">
        <ele>23.2</ele>
        <time>2011-03-22T17:41:32Z</time>
      </trkpt>
      <trkpt lat="37.1829432372" lon="-7.43119296696">
        <ele>23.2</ele>
        <time>2011-03-22T17:41:34Z</time>
      </trkpt>
      <trkpt lat="37.1829605878" lon="-7.43113873607">
        <ele>23.2</ele>
        <time>2011-03-22T17:41:36Z</time>
      </trkpt>
      <trkpt lat="37.1829803691" lon="-7.43108517573">
        <ele>23.2</ele>
        <time>2011-03-22T17:41:38Z</time>
      </trkpt>
      <trkpt lat="37.1829967138" lon="-7.43102541278">
        <ele>23.2</ele>
        <time>2011-03-22T17:41:40Z</time>
      </trkpt>
      <trkpt lat="37.1830132261" lon="-7.43097017606">
        <ele>23.2</ele>
        <time>2011-03-22T17:41:42Z</time>
      </trkpt>
      <trkpt lat="37.1830334265" lon="-7.4309161128">
        <ele>23.2</ele>
        <time>2011-03-22T17:41:44Z</time>
      </trkpt>
      <trkpt lat="37.1830606677" lon="-7.43083355109">
        <ele>23.2</ele>
        <time>2011-03-22T17:41:47Z</time>
      </trkpt>
      <trkpt lat="37.183079946" lon="-7.43077797909">
        <ele>23.2</ele>
        <time>2011-03-22T17:41:49Z</time>
      </trkpt>
      <trkpt lat="37.1830948658" lon="-7.43072282619">
        <ele>23.2</ele>
        <time>2011-03-22T17:41:51Z</time>
      </trkpt>
      <trkpt lat="37.1831138927" lon="-7.43066633218">
        <ele>23.2</ele>
        <time>2011-03-22T17:41:53Z</time>
      </trkpt>
      <trkpt lat="37.1831316624" lon="-7.43061285566">
        <ele>23.2</ele>
        <time>2011-03-22T17:41:55Z</time>
      </trkpt>
      <trkpt lat="37.1831431456" lon="-7.43055996587">
        <ele>23.2</ele>
        <time>2011-03-22T17:41:57Z</time>
      </trkpt>
      <trkpt lat="37.1831505216" lon="-7.43050213076">
        <ele>23.2</ele>
        <time>2011-03-22T17:41:59Z</time>
      </trkpt>
      <trkpt lat="37.1831748291" lon="-7.43042091015">
        <ele>23.2</ele>
        <time>2011-03-22T17:42:02Z</time>
      </trkpt>
      <trkpt lat="37.1831924311" lon="-7.43036760127">
        <ele>23.2</ele>
        <time>2011-03-22T17:42:04Z</time>
      </trkpt>
      <trkpt lat="37.1832067642" lon="-7.43031228073">
        <ele>23.2</ele>
        <time>2011-03-22T17:42:06Z</time>
      </trkpt>
      <trkpt lat="37.1832239471" lon="-7.43025712783">
        <ele>23.2</ele>
        <time>2011-03-22T17:42:08Z</time>
      </trkpt>
      <trkpt lat="37.1832303173" lon="-7.43023114394">
        <ele>23.2</ele>
        <time>2011-03-22T17:42:09Z</time>
      </trkpt>
      <trkpt lat="37.1832462429" lon="-7.43017674541">
        <ele>23.2</ele>
        <time>2011-03-22T17:42:11Z</time>
      </trkpt>
      <trkpt lat="37.1832639287" lon="-7.43012134105">
        <ele>23.2</ele>
        <time>2011-03-22T17:42:13Z</time>
      </trkpt>
      <trkpt lat="37.1832744061" lon="-7.43006786452">
        <ele>23.2</ele>
        <time>2011-03-22T17:42:15Z</time>
      </trkpt>
      <trkpt lat="37.1832939359" lon="-7.4299857219">
        <ele>23.2</ele>
        <time>2011-03-22T17:42:18Z</time>
      </trkpt>
      <trkpt lat="37.1833153936" lon="-7.42993014991">
        <ele>23.2</ele>
        <time>2011-03-22T17:42:20Z</time>
      </trkpt>
      <trkpt lat="37.1833309839" lon="-7.42987684102">
        <ele>23.2</ele>
        <time>2011-03-22T17:42:22Z</time>
      </trkpt>
      <trkpt lat="37.1833495918" lon="-7.42982168812">
        <ele>23.2</ele>
        <time>2011-03-22T17:42:24Z</time>
      </trkpt>
      <trkpt lat="37.1833732287" lon="-7.4297479274">
        <ele>23.2</ele>
        <time>2011-03-22T17:42:27Z</time>
      </trkpt>
      <trkpt lat="37.1833967818" lon="-7.42966201293">
        <ele>23.2</ele>
        <time>2011-03-22T17:42:30Z</time>
      </trkpt>
      <trkpt lat="37.1834122045" lon="-7.42960803349">
        <ele>23.2</ele>
        <time>2011-03-22T17:42:32Z</time>
      </trkpt>
      <trkpt lat="37.1834314829" lon="-7.42955916701">
        <ele>23.2</ele>
        <time>2011-03-22T17:42:34Z</time>
      </trkpt>
      <trkpt lat="37.1834512642" lon="-7.42947979042">
        <ele>23.2</ele>
        <time>2011-03-22T17:42:37Z</time>
      </trkpt>
      <trkpt lat="37.1834645076" lon="-7.42942664917">
        <ele>23.2</ele>
        <time>2011-03-22T17:42:39Z</time>
      </trkpt>
      <trkpt lat="37.1834844565" lon="-7.42934433892">
        <ele>23.2</ele>
        <time>2011-03-22T17:42:42Z</time>
      </trkpt>
      <trkpt lat="37.1835001307" lon="-7.42929019184">
        <ele>23.2</ele>
        <time>2011-03-22T17:42:44Z</time>
      </trkpt>
      <trkpt lat="37.1835163077" lon="-7.42923126709">
        <ele>23.2</ele>
        <time>2011-03-22T17:42:46Z</time>
      </trkpt>
      <trkpt lat="37.183538436" lon="-7.42915289632">
        <ele>23.2</ele>
        <time>2011-03-22T17:42:49Z</time>
      </trkpt>
      <trkpt lat="37.18355696" lon="-7.42910193437">
        <ele>23.2</ele>
        <time>2011-03-22T17:42:51Z</time>
      </trkpt>
      <trkpt lat="37.1835635817" lon="-7.42907326827">
        <ele>23.2</ele>
        <time>2011-03-22T17:42:52Z</time>
      </trkpt>
      <trkpt lat="37.1835790882" lon="-7.42899087419">
        <ele>23.2</ele>
        <time>2011-03-22T17:42:55Z</time>
      </trkpt>
      <trkpt lat="37.1835957682" lon="-7.42893505074">
        <ele>23.2</ele>
        <time>2011-03-22T17:42:57Z</time>
      </trkpt>
      <trkpt lat="37.183611107" lon="-7.42887755091">
        <ele>23.2</ele>
        <time>2011-03-22T17:42:59Z</time>
      </trkpt>
      <trkpt lat="37.183627787" lon="-7.42881996725">
        <ele>23.2</ele>
        <time>2011-03-22T17:43:01Z</time>
      </trkpt>
      <trkpt lat="37.183643545" lon="-7.42876707746">
        <ele>23.2</ele>
        <time>2011-03-22T17:43:03Z</time>
      </trkpt>
      <trkpt lat="37.1836630748" lon="-7.42871301421">
        <ele>23.2</ele>
        <time>2011-03-22T17:43:05Z</time>
      </trkpt>
      <trkpt lat="37.1836810959" lon="-7.4286586995">
        <ele>23.2</ele>
        <time>2011-03-22T17:43:07Z</time>
      </trkpt>
      <trkpt lat="37.1836956804" lon="-7.42860832428">
        <ele>23.2</ele>
        <time>2011-03-22T17:43:09Z</time>
      </trkpt>
      <trkpt lat="37.1837200717" lon="-7.42853154607">
        <ele>23.2</ele>
        <time>2011-03-22T17:43:12Z</time>
      </trkpt>
      <trkpt lat="37.1837367517" lon="-7.42847949447">
        <ele>23.2</ele>
        <time>2011-03-22T17:43:14Z</time>
      </trkpt>
      <trkpt lat="37.1837534317" lon="-7.42842660469">
        <ele>23.2</ele>
        <time>2011-03-22T17:43:16Z</time>
      </trkpt>
      <trkpt lat="37.1837693573" lon="-7.42837187088">
        <ele>23.2</ele>
        <time>2011-03-22T17:43:18Z</time>
      </trkpt>
      <trkpt lat="37.1837813434" lon="-7.42831822672">
        <ele>23.2</ele>
        <time>2011-03-22T17:43:20Z</time>
      </trkpt>
      <trkpt lat="37.1837950059" lon="-7.4282422867">
        <ele>23.2</ele>
        <time>2011-03-22T17:43:23Z</time>
      </trkpt>
      <trkpt lat="37.1838091713" lon="-7.42818830727">
        <ele>23.2</ele>
        <time>2011-03-22T17:43:25Z</time>
      </trkpt>
      <trkpt lat="37.183831551" lon="-7.42813281909">
        <ele>23.2</ele>
        <time>2011-03-22T17:43:27Z</time>
      </trkpt>
      <trkpt lat="37.1838555232" lon="-7.4280530234">
        <ele>23.2</ele>
        <time>2011-03-22T17:43:30Z</time>
      </trkpt>
      <trkpt lat="37.1838777353" lon="-7.42797289244">
        <ele>23.2</ele>
        <time>2011-03-22T17:43:33Z</time>
      </trkpt>
      <trkpt lat="37.1838946667" lon="-7.42792025411">
        <ele>23.2</ele>
        <time>2011-03-22T17:43:35Z</time>
      </trkpt>
      <trkpt lat="37.183902881" lon="-7.42786795105">
        <ele>23.2</ele>
        <time>2011-03-22T17:43:37Z</time>
      </trkpt>
      <trkpt lat="37.1839266017" lon="-7.42779083757">
        <ele>23</ele>
        <time>2011-03-22T17:43:40Z</time>
      </trkpt>
      <trkpt lat="37.1839471374" lon="-7.42773752869">
        <ele>22.8</ele>
        <time>2011-03-22T17:43:42Z</time>
      </trkpt>
      <trkpt lat="37.1839648232" lon="-7.42768472272">
        <ele>22.4</ele>
        <time>2011-03-22T17:43:44Z</time>
      </trkpt>
      <trkpt lat="37.1839822576" lon="-7.42763342549">
        <ele>22.2</ele>
        <time>2011-03-22T17:43:46Z</time>
      </trkpt>
      <trkpt lat="37.1839994405" lon="-7.42755086377">
        <ele>22</ele>
        <time>2011-03-22T17:43:49Z</time>
      </trkpt>
      <trkpt lat="37.1840138573" lon="-7.42749906363">
        <ele>21.8</ele>
        <time>2011-03-22T17:43:51Z</time>
      </trkpt>
      <trkpt lat="37.1840329681" lon="-7.42744541947">
        <ele>21.8</ele>
        <time>2011-03-22T17:43:53Z</time>
      </trkpt>
      <trkpt lat="37.1840504024" lon="-7.42739160767">
        <ele>21.6</ele>
        <time>2011-03-22T17:43:55Z</time>
      </trkpt>
      <trkpt lat="37.1840691779" lon="-7.42733855025">
        <ele>21.6</ele>
        <time>2011-03-22T17:43:57Z</time>
      </trkpt>
      <trkpt lat="37.1840825051" lon="-7.42728289443">
        <ele>21.6</ele>
        <time>2011-03-22T17:43:59Z</time>
      </trkpt>
      <trkpt lat="37.1841041304" lon="-7.42720385311">
        <ele>21.4</ele>
        <time>2011-03-22T17:44:02Z</time>
      </trkpt>
      <trkpt lat="37.1841287732" lon="-7.42715339408">
        <ele>21.4</ele>
        <time>2011-03-22T17:44:04Z</time>
      </trkpt>
      <trkpt lat="37.184148303" lon="-7.42710167775">
        <ele>21.4</ele>
        <time>2011-03-22T17:44:06Z</time>
      </trkpt>
      <trkpt lat="37.1841665755" lon="-7.42704786595">
        <ele>21.4</ele>
        <time>2011-03-22T17:44:08Z</time>
      </trkpt>
      <trkpt lat="37.184182585" lon="-7.42699422179">
        <ele>21.4</ele>
        <time>2011-03-22T17:44:10Z</time>
      </trkpt>
      <trkpt lat="37.1842058028" lon="-7.4269113248">
        <ele>21.4</ele>
        <time>2011-03-22T17:44:13Z</time>
      </trkpt>
      <trkpt lat="37.1842186271" lon="-7.42685877029">
        <ele>21.4</ele>
        <time>2011-03-22T17:44:15Z</time>
      </trkpt>
      <trkpt lat="37.1842368997" lon="-7.42677872315">
        <ele>21.4</ele>
        <time>2011-03-22T17:44:18Z</time>
      </trkpt>
      <trkpt lat="37.1842457007" lon="-7.42675198488">
        <ele>21.4</ele>
        <time>2011-03-22T17:44:19Z</time>
      </trkpt>
      <trkpt lat="37.184272858" lon="-7.42664612149">
        <ele>21.4</ele>
        <time>2011-03-22T17:44:23Z</time>
      </trkpt>
      <trkpt lat="37.1842900409" lon="-7.42659080095">
        <ele>21.4</ele>
        <time>2011-03-22T17:44:25Z</time>
      </trkpt>
      <trkpt lat="37.1843068886" lon="-7.42653514513">
        <ele>21.2</ele>
        <time>2011-03-22T17:44:27Z</time>
      </trkpt>
      <trkpt lat="37.1843234847" lon="-7.42647873494">
        <ele>21.2</ele>
        <time>2011-03-22T17:44:29Z</time>
      </trkpt>
      <trkpt lat="37.1843405838" lon="-7.42642433641">
        <ele>21.2</ele>
        <time>2011-03-22T17:44:31Z</time>
      </trkpt>
      <trkpt lat="37.1843568447" lon="-7.42636499256">
        <ele>21.2</ele>
        <time>2011-03-22T17:44:33Z</time>
      </trkpt>
      <trkpt lat="37.1843722674" lon="-7.42630766037">
        <ele>21.2</ele>
        <time>2011-03-22T17:44:35Z</time>
      </trkpt>
      <trkpt lat="37.1843904561" lon="-7.42622451192">
        <ele>21.2</ele>
        <time>2011-03-22T17:44:38Z</time>
      </trkpt>
      <trkpt lat="37.1844117461" lon="-7.42616810173">
        <ele>21.2</ele>
        <time>2011-03-22T17:44:40Z</time>
      </trkpt>
      <trkpt lat="37.1844321141" lon="-7.42608688112">
        <ele>21.2</ele>
        <time>2011-03-22T17:44:43Z</time>
      </trkpt>
      <trkpt lat="37.1844506381" lon="-7.42603256641">
        <ele>21.2</ele>
        <time>2011-03-22T17:44:45Z</time>
      </trkpt>
      <trkpt lat="37.1844727664" lon="-7.4259791737">
        <ele>21.2</ele>
        <time>2011-03-22T17:44:47Z</time>
      </trkpt>
      <trkpt lat="37.1844917094" lon="-7.42592301497">
        <ele>21.2</ele>
        <time>2011-03-22T17:44:49Z</time>
      </trkpt>
      <trkpt lat="37.1845110716" lon="-7.42586987373">
        <ele>21.2</ele>
        <time>2011-03-22T17:44:51Z</time>
      </trkpt>
      <trkpt lat="37.1845297633" lon="-7.42581530756">
        <ele>21.2</ele>
        <time>2011-03-22T17:44:53Z</time>
      </trkpt>
      <trkpt lat="37.184545186" lon="-7.42575923265">
        <ele>21.2</ele>
        <time>2011-03-22T17:44:55Z</time>
      </trkpt>
      <trkpt lat="37.1845582617" lon="-7.42570508557">
        <ele>21.2</ele>
        <time>2011-03-22T17:44:57Z</time>
      </trkpt>
      <trkpt lat="37.1845778754" lon="-7.4256513576">
        <ele>21.2</ele>
        <time>2011-03-22T17:44:59Z</time>
      </trkpt>
      <trkpt lat="37.1845974052" lon="-7.42559846781">
        <ele>21.2</ele>
        <time>2011-03-22T17:45:01Z</time>
      </trkpt>
      <trkpt lat="37.1846146719" lon="-7.42554557802">
        <ele>21.2</ele>
        <time>2011-03-22T17:45:03Z</time>
      </trkpt>
      <trkpt lat="37.1846303461" lon="-7.42546771017">
        <ele>21.2</ele>
        <time>2011-03-22T17:45:06Z</time>
      </trkpt>
      <trkpt lat="37.184646104" lon="-7.42541574239">
        <ele>21.2</ele>
        <time>2011-03-22T17:45:08Z</time>
      </trkpt>
      <trkpt lat="37.1846594313" lon="-7.42536058948">
        <ele>21.2</ele>
        <time>2011-03-22T17:45:10Z</time>
      </trkpt>
      <trkpt lat="37.1846726747" lon="-7.42530476603">
        <ele>21.2</ele>
        <time>2011-03-22T17:45:12Z</time>
      </trkpt>
      <trkpt lat="37.1846896061" lon="-7.42524802057">
        <ele>21.2</ele>
        <time>2011-03-22T17:45:14Z</time>
      </trkpt>
      <trkpt lat="37.1847159253" lon="-7.42516663232">
        <ele>21.2</ele>
        <time>2011-03-22T17:45:17Z</time>
      </trkpt>
      <trkpt lat="37.1847404004" lon="-7.42508591462">
        <ele>21.2</ele>
        <time>2011-03-22T17:45:20Z</time>
      </trkpt>
      <trkpt lat="37.1847564098" lon="-7.42503159991">
        <ele>21.2</ele>
        <time>2011-03-22T17:45:22Z</time>
      </trkpt>
      <trkpt lat="37.1847816394" lon="-7.42495088221">
        <ele>21.2</ele>
        <time>2011-03-22T17:45:25Z</time>
      </trkpt>
      <trkpt lat="37.1848120657" lon="-7.42486731467">
        <ele>21.2</ele>
        <time>2011-03-22T17:45:28Z</time>
      </trkpt>
      <trkpt lat="37.184834613" lon="-7.42481258086">
        <ele>21.2</ele>
        <time>2011-03-22T17:45:30Z</time>
      </trkpt>
      <trkpt lat="37.1848574117" lon="-7.42473538356">
        <ele>21.2</ele>
        <time>2011-03-22T17:45:33Z</time>
      </trkpt>
      <trkpt lat="37.1848760196" lon="-7.42468316433">
        <ele>21.2</ele>
        <time>2011-03-22T17:45:35Z</time>
      </trkpt>
      <trkpt lat="37.1848951303" lon="-7.42462952017">
        <ele>21.2</ele>
        <time>2011-03-22T17:45:37Z</time>
      </trkpt>
      <trkpt lat="37.1849116426" lon="-7.42457646274">
        <ele>21.2</ele>
        <time>2011-03-22T17:45:39Z</time>
      </trkpt>
      <trkpt lat="37.1849353634" lon="-7.42451661597">
        <ele>21.2</ele>
        <time>2011-03-22T17:45:41Z</time>
      </trkpt>
      <trkpt lat="37.1849514567" lon="-7.4244558472">
        <ele>21.2</ele>
        <time>2011-03-22T17:45:43Z</time>
      </trkpt>
      <trkpt lat="37.184962437" lon="-7.42439516224">
        <ele>21.2</ele>
        <time>2011-03-22T17:45:45Z</time>
      </trkpt>
      <trkpt lat="37.1849785302" lon="-7.42430958304">
        <ele>21.2</ele>
        <time>2011-03-22T17:45:48Z</time>
      </trkpt>
      <trkpt lat="37.1849947073" lon="-7.42425208321">
        <ele>21.2</ele>
        <time>2011-03-22T17:45:50Z</time>
      </trkpt>
      <trkpt lat="37.1850155782" lon="-7.4241973494">
        <ele>21.2</ele>
        <time>2011-03-22T17:45:52Z</time>
      </trkpt>
      <trkpt lat="37.1850289054" lon="-7.42414177741">
        <ele>21.2</ele>
        <time>2011-03-22T17:45:54Z</time>
      </trkpt>
      <trkpt lat="37.1850470103" lon="-7.42409098309">
        <ele>21.2</ele>
        <time>2011-03-22T17:45:56Z</time>
      </trkpt>
      <trkpt lat="37.1850628521" lon="-7.42403641692">
        <ele>21.2</ele>
        <time>2011-03-22T17:45:58Z</time>
      </trkpt>
      <trkpt lat="37.185077269" lon="-7.42397975528">
        <ele>21.2</ele>
        <time>2011-03-22T17:46:00Z</time>
      </trkpt>
      <trkpt lat="37.1850874111" lon="-7.42392275836">
        <ele>21.2</ele>
        <time>2011-03-22T17:46:02Z</time>
      </trkpt>
      <trkpt lat="37.1851062704" lon="-7.42386567762">
        <ele>21.2</ele>
        <time>2011-03-22T17:46:04Z</time>
      </trkpt>
      <trkpt lat="37.1851247944" lon="-7.42380893216">
        <ele>21.2</ele>
        <time>2011-03-22T17:46:06Z</time>
      </trkpt>
      <trkpt lat="37.1851390436" lon="-7.42375193524">
        <ele>21.2</ele>
        <time>2011-03-22T17:46:08Z</time>
      </trkpt>
      <trkpt lat="37.1851523708" lon="-7.42369292666">
        <ele>21.2</ele>
        <time>2011-03-22T17:46:10Z</time>
      </trkpt>
      <trkpt lat="37.1851672906" lon="-7.42363467245">
        <ele>21.2</ele>
        <time>2011-03-22T17:46:12Z</time>
      </trkpt>
      <trkpt lat="37.1851819589" lon="-7.42357851373">
        <ele>21.2</ele>
        <time>2011-03-22T17:46:14Z</time>
      </trkpt>
      <trkpt lat="37.1851915143" lon="-7.42351523038">
        <ele>21</ele>
        <time>2011-03-22T17:46:16Z</time>
      </trkpt>
      <trkpt lat="37.1852041709" lon="-7.42345546743">
        <ele>20.6</ele>
        <time>2011-03-22T17:46:18Z</time>
      </trkpt>
      <trkpt lat="37.1852187555" lon="-7.4233993087">
        <ele>20.4</ele>
        <time>2011-03-22T17:46:20Z</time>
      </trkpt>
      <trkpt lat="37.1852362736" lon="-7.42334088686">
        <ele>20.2</ele>
        <time>2011-03-22T17:46:22Z</time>
      </trkpt>
      <trkpt lat="37.1852552167" lon="-7.4232837223">
        <ele>20</ele>
        <time>2011-03-22T17:46:24Z</time>
      </trkpt>
      <trkpt lat="37.1852703041" lon="-7.4231954609">
        <ele>19.8</ele>
        <time>2011-03-22T17:46:27Z</time>
      </trkpt>
      <trkpt lat="37.1852780993" lon="-7.4231310879">
        <ele>19.6</ele>
        <time>2011-03-22T17:46:29Z</time>
      </trkpt>
      <trkpt lat="37.1852904207" lon="-7.42307702465">
        <ele>19.6</ele>
        <time>2011-03-22T17:46:31Z</time>
      </trkpt>
      <trkpt lat="37.1853118784" lon="-7.42302094974">
        <ele>19.6</ele>
        <time>2011-03-22T17:46:33Z</time>
      </trkpt>
      <trkpt lat="37.185335683" lon="-7.4229673894">
        <ele>19.4</ele>
        <time>2011-03-22T17:46:35Z</time>
      </trkpt>
      <trkpt lat="37.1853563862" lon="-7.42291290705">
        <ele>19.4</ele>
        <time>2011-03-22T17:46:37Z</time>
      </trkpt>
      <trkpt lat="37.1853720604" lon="-7.42285465284">
        <ele>19.4</ele>
        <time>2011-03-22T17:46:39Z</time>
      </trkpt>
      <trkpt lat="37.1853802747" lon="-7.42279648246">
        <ele>19.4</ele>
        <time>2011-03-22T17:46:41Z</time>
      </trkpt>
      <trkpt lat="37.1853998045" lon="-7.42274040754">
        <ele>19.4</ele>
        <time>2011-03-22T17:46:43Z</time>
      </trkpt>
      <trkpt lat="37.1854198372" lon="-7.4226687423">
        <ele>19.4</ele>
        <time>2011-03-22T17:46:46Z</time>
      </trkpt>
      <trkpt lat="37.1854333321" lon="-7.42260973372">
        <ele>19.4</ele>
        <time>2011-03-22T17:46:48Z</time>
      </trkpt>
      <trkpt lat="37.1854502635" lon="-7.4225527368">
        <ele>19.4</ele>
        <time>2011-03-22T17:46:50Z</time>
      </trkpt>
      <trkpt lat="37.1854723917" lon="-7.42249523697">
        <ele>19.4</ele>
        <time>2011-03-22T17:46:52Z</time>
      </trkpt>
      <trkpt lat="37.1854919216" lon="-7.42244050316">
        <ele>19.4</ele>
        <time>2011-03-22T17:46:54Z</time>
      </trkpt>
      <trkpt lat="37.1855107808" lon="-7.4223855179">
        <ele>19.2</ele>
        <time>2011-03-22T17:46:56Z</time>
      </trkpt>
      <trkpt lat="37.1855390279" lon="-7.42233732197">
        <ele>19.2</ele>
        <time>2011-03-22T17:46:58Z</time>
      </trkpt>
      <trkpt lat="37.1855621619" lon="-7.4222849351">
        <ele>19.2</ele>
        <time>2011-03-22T17:47:00Z</time>
      </trkpt>
      <trkpt lat="37.1855796801" lon="-7.42221159347">
        <ele>19.2</ele>
        <time>2011-03-22T17:47:03Z</time>
      </trkpt>
      <trkpt lat="37.1855974497" lon="-7.42213506673">
        <ele>19.2</ele>
        <time>2011-03-22T17:47:06Z</time>
      </trkpt>
      <trkpt lat="37.1856201646" lon="-7.42208569734">
        <ele>19.2</ele>
        <time>2011-03-22T17:47:08Z</time>
      </trkpt>
      <trkpt lat="37.1856407003" lon="-7.42203674704">
        <ele>19.2</ele>
        <time>2011-03-22T17:47:10Z</time>
      </trkpt>
      <trkpt lat="37.1856712942" lon="-7.42196734491">
        <ele>19.2</ele>
        <time>2011-03-22T17:47:13Z</time>
      </trkpt>
      <trkpt lat="37.1856904888" lon="-7.42191780788">
        <ele>19.2</ele>
        <time>2011-03-22T17:47:16Z</time>
      </trkpt>
      <trkpt lat="37.1856961885" lon="-7.42190992889">
        <ele>19.2</ele>
        <time>2011-03-22T17:47:17Z</time>
      </trkpt>
      <trkpt lat="37.1857549456" lon="-7.4219240943">
        <ele>19.2</ele>
        <time>2011-03-22T17:47:21Z</time>
      </trkpt>
      <trkpt lat="37.18581035" lon="-7.42189433856">
        <ele>19.2</ele>
        <time>2011-03-22T17:47:24Z</time>
      </trkpt>
      <trkpt lat="37.1858232581" lon="-7.42187262944">
        <ele>19.2</ele>
        <time>2011-03-22T17:47:25Z</time>
      </trkpt>
      <trkpt lat="37.1858893913" lon="-7.42180331112">
        <ele>19.2</ele>
        <time>2011-03-22T17:47:29Z</time>
      </trkpt>
      <trkpt lat="37.1859468073" lon="-7.4217665984">
        <ele>19.2</ele>
        <time>2011-03-22T17:47:32Z</time>
      </trkpt>
      <trkpt lat="37.1859856155" lon="-7.42173256789">
        <ele>19.2</ele>
        <time>2011-03-22T17:47:34Z</time>
      </trkpt>
      <trkpt lat="37.1860510781" lon="-7.42166182465">
        <ele>19.2</ele>
        <time>2011-03-22T17:47:37Z</time>
      </trkpt>
      <trkpt lat="37.1860743798" lon="-7.42161052742">
        <ele>19.2</ele>
        <time>2011-03-22T17:47:39Z</time>
      </trkpt>
      <trkpt lat="37.1860879585" lon="-7.4215451486">
        <ele>19.2</ele>
        <time>2011-03-22T17:47:42Z</time>
      </trkpt>
      <trkpt lat="37.1860813368" lon="-7.42147423773">
        <ele>19.2</ele>
        <time>2011-03-22T17:47:45Z</time>
      </trkpt>
      <trkpt lat="37.1860662494" lon="-7.42141589971">
        <ele>19.2</ele>
        <time>2011-03-22T17:47:47Z</time>
      </trkpt>
      <trkpt lat="37.1860369965" lon="-7.42134674903">
        <ele>19.2</ele>
        <time>2011-03-22T17:47:50Z</time>
      </trkpt>
      <trkpt lat="37.1860156227" lon="-7.421259242">
        <ele>19.2</ele>
        <time>2011-03-22T17:47:53Z</time>
      </trkpt>
      <trkpt lat="37.1860162932" lon="-7.42119604247">
        <ele>19.2</ele>
        <time>2011-03-22T17:47:55Z</time>
      </trkpt>
      <trkpt lat="37.1860266868" lon="-7.42113569279">
        <ele>19.2</ele>
        <time>2011-03-22T17:47:57Z</time>
      </trkpt>
      <trkpt lat="37.1860472224" lon="-7.42107869587">
        <ele>18.8</ele>
        <time>2011-03-22T17:47:59Z</time>
      </trkpt>
      <trkpt lat="37.1860642377" lon="-7.42101968729">
        <ele>18.6</ele>
        <time>2011-03-22T17:48:01Z</time>
      </trkpt>
      <trkpt lat="37.1860819235" lon="-7.42095875088">
        <ele>18.4</ele>
        <time>2011-03-22T17:48:03Z</time>
      </trkpt>
      <trkpt lat="37.1860982682" lon="-7.42090200542">
        <ele>18.2</ele>
        <time>2011-03-22T17:48:05Z</time>
      </trkpt>
      <trkpt lat="37.1861191392" lon="-7.4208445894">
        <ele>18</ele>
        <time>2011-03-22T17:48:07Z</time>
      </trkpt>
      <trkpt lat="37.1861357353" lon="-7.42078826303">
        <ele>17.8</ele>
        <time>2011-03-22T17:48:09Z</time>
      </trkpt>
      <trkpt lat="37.1861509904" lon="-7.42072975737">
        <ele>17.8</ele>
        <time>2011-03-22T17:48:11Z</time>
      </trkpt>
      <trkpt lat="37.1861758008" lon="-7.42067728668">
        <ele>17.6</ele>
        <time>2011-03-22T17:48:13Z</time>
      </trkpt>
      <trkpt lat="37.1861871164" lon="-7.42065415263">
        <ele>17.6</ele>
        <time>2011-03-22T17:48:14Z</time>
      </trkpt>
      <trkpt lat="37.1862027067" lon="-7.42057938609">
        <ele>17.4</ele>
        <time>2011-03-22T17:48:18Z</time>
      </trkpt>
      <trkpt lat="37.1862177103" lon="-7.42054904361">
        <ele>17.4</ele>
        <time>2011-03-22T17:48:22Z</time>
      </trkpt>
      <trkpt lat="37.18622341" lon="-7.42055792842">
        <ele>17.4</ele>
        <time>2011-03-22T17:48:23Z</time>
      </trkpt>
      <trkpt lat="37.1862523275" lon="-7.42057729061">
        <ele>17.4</ele>
        <time>2011-03-22T17:48:26Z</time>
      </trkpt>
      <trkpt lat="37.1862760483" lon="-7.42058458286">
        <ele>17.4</ele>
        <time>2011-03-22T17:48:29Z</time>
      </trkpt>
      <trkpt lat="37.1862975898" lon="-7.42056262229">
        <ele>16.8</ele>
        <time>2011-03-22T17:48:42Z</time>
      </trkpt>
      <trkpt lat="37.1863017808" lon="-7.42054627758">
        <ele>16.2</ele>
        <time>2011-03-22T17:48:47Z</time>
      </trkpt>
      <trkpt lat="37.1863096597" lon="-7.42052800504">
        <ele>15.6</ele>
        <time>2011-03-22T17:48:56Z</time>
      </trkpt>
      <trkpt lat="37.1863110847" lon="-7.4205216348">
        <ele>15.4</ele>
        <time>2011-03-22T17:49:03Z</time>
      </trkpt>
      <trkpt lat="37.186303038" lon="-7.42055817988">
        <ele>15.4</ele>
        <time>2011-03-22T17:49:12Z</time>
      </trkpt>
      <trkpt lat="37.1862954105" lon="-7.42059296476">
        <ele>15.2</ele>
        <time>2011-03-22T17:49:17Z</time>
      </trkpt>
      <trkpt lat="37.1862813289" lon="-7.42067720286">
        <ele>15.2</ele>
        <time>2011-03-22T17:49:21Z</time>
      </trkpt>
      <trkpt lat="37.1862721926" lon="-7.42070276765">
        <ele>15.2</ele>
        <time>2011-03-22T17:49:22Z</time>
      </trkpt>
      <trkpt lat="37.1862495615" lon="-7.42076856557">
        <ele>15.2</ele>
        <time>2011-03-22T17:49:25Z</time>
      </trkpt>
      <trkpt lat="37.186219722" lon="-7.42081382783">
        <ele>15.2</ele>
        <time>2011-03-22T17:49:27Z</time>
      </trkpt>
      <trkpt lat="37.1861967555" lon="-7.4208904384">
        <ele>15.2</ele>
        <time>2011-03-22T17:49:30Z</time>
      </trkpt>
      <trkpt lat="37.1861820872" lon="-7.4209769396">
        <ele>15.2</ele>
        <time>2011-03-22T17:49:33Z</time>
      </trkpt>
      <trkpt lat="37.1861616354" lon="-7.42105246052">
        <ele>15.2</ele>
        <time>2011-03-22T17:49:36Z</time>
      </trkpt>
      <trkpt lat="37.1861478052" lon="-7.42112454486">
        <ele>15.2</ele>
        <time>2011-03-22T17:49:39Z</time>
      </trkpt>
      <trkpt lat="37.1861421894" lon="-7.42118891785">
        <ele>15.2</ele>
        <time>2011-03-22T17:49:41Z</time>
      </trkpt>
      <trkpt lat="37.1861575283" lon="-7.42127952619">
        <ele>15.2</ele>
        <time>2011-03-22T17:49:44Z</time>
      </trkpt>
      <trkpt lat="37.1861773934" lon="-7.42134389919">
        <ele>15.2</ele>
        <time>2011-03-22T17:49:46Z</time>
      </trkpt>
      <trkpt lat="37.1862274333" lon="-7.42139804626">
        <ele>15.2</ele>
        <time>2011-03-22T17:49:49Z</time>
      </trkpt>
      <trkpt lat="37.1862690075" lon="-7.42143073567">
        <ele>15.2</ele>
        <time>2011-03-22T17:49:51Z</time>
      </trkpt>
      <trkpt lat="37.186312761" lon="-7.42146451473">
        <ele>15.2</ele>
        <time>2011-03-22T17:49:53Z</time>
      </trkpt>
      <trkpt lat="37.1863518207" lon="-7.4214952763">
        <ele>15.2</ele>
        <time>2011-03-22T17:49:55Z</time>
      </trkpt>
      <trkpt lat="37.1864151879" lon="-7.42153550942">
        <ele>15.2</ele>
        <time>2011-03-22T17:49:58Z</time>
      </trkpt>
      <trkpt lat="37.1864644734" lon="-7.42156526516">
        <ele>15.2</ele>
        <time>2011-03-22T17:50:00Z</time>
      </trkpt>
      <trkpt lat="37.1865097357" lon="-7.4215905785">
        <ele>15.2</ele>
        <time>2011-03-22T17:50:02Z</time>
      </trkpt>
      <trkpt lat="37.1865461131" lon="-7.42161253908">
        <ele>15.2</ele>
        <time>2011-03-22T17:50:04Z</time>
      </trkpt>
      <trkpt lat="37.1866281719" lon="-7.42165738225">
        <ele>15.2</ele>
        <time>2011-03-22T17:50:08Z</time>
      </trkpt>
      <trkpt lat="37.1866820676" lon="-7.42168479106">
        <ele>15.4</ele>
        <time>2011-03-22T17:50:11Z</time>
      </trkpt>
      <trkpt lat="37.1866951433" lon="-7.42169878883">
        <ele>15.6</ele>
        <time>2011-03-22T17:50:12Z</time>
      </trkpt>
      <trkpt lat="37.1867567503" lon="-7.42173064005">
        <ele>16</ele>
        <time>2011-03-22T17:50:15Z</time>
      </trkpt>
      <trkpt lat="37.1868186087" lon="-7.42174815822">
        <ele>16.4</ele>
        <time>2011-03-22T17:50:18Z</time>
      </trkpt>
      <trkpt lat="37.1868699059" lon="-7.42175754595">
        <ele>16.6</ele>
        <time>2011-03-22T17:50:20Z</time>
      </trkpt>
      <trkpt lat="37.1869219575" lon="-7.42177229809">
        <ele>16.6</ele>
        <time>2011-03-22T17:50:22Z</time>
      </trkpt>
      <trkpt lat="37.1869701535" lon="-7.4218067477">
        <ele>16.8</ele>
        <time>2011-03-22T17:50:24Z</time>
      </trkpt>
      <trkpt lat="37.1870128173" lon="-7.42184723228">
        <ele>16.8</ele>
        <time>2011-03-22T17:50:26Z</time>
      </trkpt>
      <trkpt lat="37.1870591692" lon="-7.4218857052">
        <ele>17</ele>
        <time>2011-03-22T17:50:28Z</time>
      </trkpt>
      <trkpt lat="37.1871049344" lon="-7.42191244346">
        <ele>17</ele>
        <time>2011-03-22T17:50:30Z</time>
      </trkpt>
      <trkpt lat="37.1871556449" lon="-7.42193876263">
        <ele>17</ele>
        <time>2011-03-22T17:50:32Z</time>
      </trkpt>
      <trkpt lat="37.1872058525" lon="-7.4219646627">
        <ele>17.2</ele>
        <time>2011-03-22T17:50:34Z</time>
      </trkpt>
      <trkpt lat="37.1872580717" lon="-7.42198737765">
        <ele>17.2</ele>
        <time>2011-03-22T17:50:36Z</time>
      </trkpt>
      <trkpt lat="37.1873058486" lon="-7.42201344536">
        <ele>17.2</ele>
        <time>2011-03-22T17:50:38Z</time>
      </trkpt>
      <trkpt lat="37.1873467522" lon="-7.42204965517">
        <ele>17.2</ele>
        <time>2011-03-22T17:50:40Z</time>
      </trkpt>
      <trkpt lat="37.1874001449" lon="-7.42210422133">
        <ele>17.2</ele>
        <time>2011-03-22T17:50:43Z</time>
      </trkpt>
      <trkpt lat="37.1874375282" lon="-7.42214252662">
        <ele>17.2</ele>
        <time>2011-03-22T17:50:45Z</time>
      </trkpt>
      <trkpt lat="37.1874995543" lon="-7.42218980053">
        <ele>17.2</ele>
        <time>2011-03-22T17:50:48Z</time>
      </trkpt>
      <trkpt lat="37.1875464091" lon="-7.42221905336">
        <ele>17.2</ele>
        <time>2011-03-22T17:50:50Z</time>
      </trkpt>
      <trkpt lat="37.1875925934" lon="-7.42224352851">
        <ele>17.2</ele>
        <time>2011-03-22T17:50:52Z</time>
      </trkpt>
      <trkpt lat="37.1876393644" lon="-7.42227068587">
        <ele>17.2</ele>
        <time>2011-03-22T17:50:54Z</time>
      </trkpt>
      <trkpt lat="37.1876836208" lon="-7.42229373609">
        <ele>17.2</ele>
        <time>2011-03-22T17:50:56Z</time>
      </trkpt>
      <trkpt lat="37.187729386" lon="-7.42230957788">
        <ele>17.2</ele>
        <time>2011-03-22T17:50:58Z</time>
      </trkpt>
      <trkpt lat="37.1877721336" lon="-7.42231544521">
        <ele>17.2</ele>
        <time>2011-03-22T17:51:00Z</time>
      </trkpt>
      <trkpt lat="37.1878207487" lon="-7.4223069795">
        <ele>17.2</ele>
        <time>2011-03-22T17:51:03Z</time>
      </trkpt>
      <trkpt lat="37.1878572099" lon="-7.42228937751">
        <ele>17.2</ele>
        <time>2011-03-22T17:51:05Z</time>
      </trkpt>
      <trkpt lat="37.1878847864" lon="-7.42221008473">
        <ele>17.2</ele>
        <time>2011-03-22T17:51:09Z</time>
      </trkpt>
      <trkpt lat="37.18786643" lon="-7.42217504839">
        <ele>17.2</ele>
        <time>2011-03-22T17:51:13Z</time>
      </trkpt>
      <trkpt lat="37.1878512588" lon="-7.42213146251">
        <ele>17.2</ele>
        <time>2011-03-22T17:51:16Z</time>
      </trkpt>
      <trkpt lat="37.1878399432" lon="-7.42209198376">
        <ele>17</ele>
        <time>2011-03-22T17:51:19Z</time>
      </trkpt>
      <trkpt lat="37.1878298849" lon="-7.42206692188">
        <ele>16.8</ele>
        <time>2011-03-22T17:51:21Z</time>
      </trkpt>
      <trkpt lat="37.1878133726" lon="-7.42201193662">
        <ele>16.4</ele>
        <time>2011-03-22T17:51:24Z</time>
      </trkpt>
      <trkpt lat="37.1878052422" lon="-7.42198461162">
        <ele>16.2</ele>
        <time>2011-03-22T17:51:25Z</time>
      </trkpt>
      <trkpt lat="37.1877878916" lon="-7.42191805934">
        <ele>16</ele>
        <time>2011-03-22T17:51:27Z</time>
      </trkpt>
      <trkpt lat="37.1877651767" lon="-7.421845975">
        <ele>15.8</ele>
        <time>2011-03-22T17:51:29Z</time>
      </trkpt>
      <trkpt lat="37.18773123" lon="-7.4217917441">
        <ele>15.8</ele>
        <time>2011-03-22T17:51:31Z</time>
      </trkpt>
      <trkpt lat="37.1876966127" lon="-7.42174958314">
        <ele>15.6</ele>
        <time>2011-03-22T17:51:33Z</time>
      </trkpt>
      <trkpt lat="37.1876536136" lon="-7.42172443745">
        <ele>15.6</ele>
        <time>2011-03-22T17:51:35Z</time>
      </trkpt>
      <trkpt lat="37.1875853011" lon="-7.42169702863">
        <ele>15.4</ele>
        <time>2011-03-22T17:51:38Z</time>
      </trkpt>
      <trkpt lat="37.1875319922" lon="-7.42164858125">
        <ele>15.4</ele>
        <time>2011-03-22T17:51:41Z</time>
      </trkpt>
      <trkpt lat="37.1874979617" lon="-7.42160608502">
        <ele>15.4</ele>
        <time>2011-03-22T17:51:43Z</time>
      </trkpt>
      <trkpt lat="37.1874505201" lon="-7.42155361432">
        <ele>15.4</ele>
        <time>2011-03-22T17:51:46Z</time>
      </trkpt>
      <trkpt lat="37.1874382826" lon="-7.42153265957">
        <ele>15.4</ele>
        <time>2011-03-22T17:51:47Z</time>
      </trkpt>
      <trkpt lat="37.187419088" lon="-7.42146510146">
        <ele>15.4</ele>
        <time>2011-03-22T17:51:50Z</time>
      </trkpt>
      <trkpt lat="37.1873943614" lon="-7.42140123138">
        <ele>15.2</ele>
        <time>2011-03-22T17:51:52Z</time>
      </trkpt>
      <trkpt lat="37.1873672041" lon="-7.42134054643">
        <ele>15.2</ele>
        <time>2011-03-22T17:51:54Z</time>
      </trkpt>
      <trkpt lat="37.1873521166" lon="-7.42130928194">
        <ele>15.2</ele>
        <time>2011-03-22T17:51:55Z</time>
      </trkpt>
      <trkpt lat="37.1873393762" lon="-7.42127449705">
        <ele>15.2</ele>
        <time>2011-03-22T17:51:56Z</time>
      </trkpt>
      <trkpt lat="37.1873182538" lon="-7.42120534638">
        <ele>15</ele>
        <time>2011-03-22T17:51:58Z</time>
      </trkpt>
      <trkpt lat="37.1873016576" lon="-7.42112898727">
        <ele>14.8</ele>
        <time>2011-03-22T17:52:00Z</time>
      </trkpt>
      <trkpt lat="37.18728942" lon="-7.42106050715">
        <ele>14.4</ele>
        <time>2011-03-22T17:52:02Z</time>
      </trkpt>
      <trkpt lat="37.187276931" lon="-7.42095908616">
        <ele>14</ele>
        <time>2011-03-22T17:52:05Z</time>
      </trkpt>
      <trkpt lat="37.187272321" lon="-7.42089462935">
        <ele>14</ele>
        <time>2011-03-22T17:52:07Z</time>
      </trkpt>
      <trkpt lat="37.1872713989" lon="-7.4208233832">
        <ele>13.8</ele>
        <time>2011-03-22T17:52:09Z</time>
      </trkpt>
      <trkpt lat="37.1872810381" lon="-7.42075356197">
        <ele>13.6</ele>
        <time>2011-03-22T17:52:11Z</time>
      </trkpt>
      <trkpt lat="37.1872798647" lon="-7.42068524948">
        <ele>13.6</ele>
        <time>2011-03-22T17:52:13Z</time>
      </trkpt>
      <trkpt lat="37.1872637714" lon="-7.42061609881">
        <ele>13.4</ele>
        <time>2011-03-22T17:52:15Z</time>
      </trkpt>
      <trkpt lat="37.1872467562" lon="-7.42054803778">
        <ele>13.4</ele>
        <time>2011-03-22T17:52:17Z</time>
      </trkpt>
      <trkpt lat="37.1872300762" lon="-7.42047452852">
        <ele>13.4</ele>
        <time>2011-03-22T17:52:20Z</time>
      </trkpt>
      <trkpt lat="37.1872185092" lon="-7.42040361764">
        <ele>13.4</ele>
        <time>2011-03-22T17:52:23Z</time>
      </trkpt>
      <trkpt lat="37.187215324" lon="-7.42034175922">
        <ele>13.2</ele>
        <time>2011-03-22T17:52:25Z</time>
      </trkpt>
      <trkpt lat="37.1872018292" lon="-7.42026690885">
        <ele>13.2</ele>
        <time>2011-03-22T17:52:27Z</time>
      </trkpt>
      <trkpt lat="37.1871792819" lon="-7.420189041">
        <ele>13.2</ele>
        <time>2011-03-22T17:52:29Z</time>
      </trkpt>
      <trkpt lat="37.1871621828" lon="-7.42012693112">
        <ele>13.2</ele>
        <time>2011-03-22T17:52:31Z</time>
      </trkpt>
      <trkpt lat="37.187144497" lon="-7.42007647209">
        <ele>13.2</ele>
        <time>2011-03-22T17:52:33Z</time>
      </trkpt>
      <trkpt lat="37.1871355283" lon="-7.42005928919">
        <ele>13.2</ele>
        <time>2011-03-22T17:52:34Z</time>
      </trkpt>
      <trkpt lat="37.1870575767" lon="-7.42003322148">
        <ele>13.2</ele>
        <time>2011-03-22T17:52:37Z</time>
      </trkpt>
      <trkpt lat="37.1870348617" lon="-7.42002659978">
        <ele>13.2</ele>
        <time>2011-03-22T17:52:38Z</time>
      </trkpt>
      <trkpt lat="37.1869440019" lon="-7.41999189872">
        <ele>13.2</ele>
        <time>2011-03-22T17:52:42Z</time>
      </trkpt>
      <trkpt lat="37.1868924532" lon="-7.41998510938">
        <ele>13.2</ele>
        <time>2011-03-22T17:52:44Z</time>
      </trkpt>
      <trkpt lat="37.1868457661" lon="-7.41999567057">
        <ele>13.2</ele>
        <time>2011-03-22T17:52:46Z</time>
      </trkpt>
      <trkpt lat="37.1868234702" lon="-7.420001957">
        <ele>13.2</ele>
        <time>2011-03-22T17:52:47Z</time>
      </trkpt>
      <trkpt lat="37.1867402379" lon="-7.42002157064">
        <ele>13.2</ele>
        <time>2011-03-22T17:52:51Z</time>
      </trkpt>
      <trkpt lat="37.1867250667" lon="-7.42003431113">
        <ele>13.2</ele>
        <time>2011-03-22T17:52:52Z</time>
      </trkpt>
      <trkpt lat="37.1866729313" lon="-7.42007135913">
        <ele>13.2</ele>
        <time>2011-03-22T17:52:55Z</time>
      </trkpt>
      <trkpt lat="37.1866190357" lon="-7.42009876794">
        <ele>13.2</ele>
        <time>2011-03-22T17:52:58Z</time>
      </trkpt>
      <trkpt lat="37.1865777129" lon="-7.42012642821">
        <ele>13.2</ele>
        <time>2011-03-22T17:53:00Z</time>
      </trkpt>
      <trkpt lat="37.1865358872" lon="-7.42015040044">
        <ele>13.2</ele>
        <time>2011-03-22T17:53:02Z</time>
      </trkpt>
      <trkpt lat="37.1864850929" lon="-7.42016716424">
        <ele>13.2</ele>
        <time>2011-03-22T17:53:04Z</time>
      </trkpt>
      <trkpt lat="37.1864270063" lon="-7.42016624224">
        <ele>13.2</ele>
        <time>2011-03-22T17:53:06Z</time>
      </trkpt>
      <trkpt lat="37.1863772179" lon="-7.42017127138">
        <ele>13.2</ele>
        <time>2011-03-22T17:53:08Z</time>
      </trkpt>
      <trkpt lat="37.1863291896" lon="-7.4201726963">
        <ele>13.4</ele>
        <time>2011-03-22T17:53:10Z</time>
      </trkpt>
      <trkpt lat="37.1863077319" lon="-7.42017948564">
        <ele>13.6</ele>
        <time>2011-03-22T17:53:11Z</time>
      </trkpt>
      <trkpt lat="37.1862833406" lon="-7.42020496661">
        <ele>14</ele>
        <time>2011-03-22T17:53:13Z</time>
      </trkpt>
      <trkpt lat="37.1862574405" lon="-7.42024897159">
        <ele>14.4</ele>
        <time>2011-03-22T17:53:18Z</time>
      </trkpt>
      <trkpt lat="37.186259536" lon="-7.42030487886">
        <ele>14.8</ele>
        <time>2011-03-22T17:53:22Z</time>
      </trkpt>
      <trkpt lat="37.1862610447" lon="-7.42031527242">
        <ele>14.8</ele>
        <time>2011-03-22T17:53:23Z</time>
      </trkpt>
      <trkpt lat="37.1862659062" lon="-7.42035567317">
        <ele>15</ele>
        <time>2011-03-22T17:53:27Z</time>
      </trkpt>
      <trkpt lat="37.186271103" lon="-7.42038542892">
        <ele>15</ele>
        <time>2011-03-22T17:53:29Z</time>
      </trkpt>
      <trkpt lat="37.186267415" lon="-7.42039892378">
        <ele>15</ele>
        <time>2011-03-22T17:53:31Z</time>
      </trkpt>
      <trkpt lat="37.1862657386" lon="-7.4204453595">
        <ele>15.2</ele>
        <time>2011-03-22T17:53:39Z</time>
      </trkpt>
      <trkpt lat="37.1862774732" lon="-7.42047670781">
        <ele>15.2</ele>
        <time>2011-03-22T17:54:31Z</time>
      </trkpt>
      <trkpt lat="37.1862568538" lon="-7.42048819101">
        <ele>14.2</ele>
        <time>2011-03-22T17:54:42Z</time>
      </trkpt>
      <trkpt lat="37.186250735" lon="-7.42049062177">
        <ele>13.6</ele>
        <time>2011-03-22T17:54:50Z</time>
      </trkpt>
      <trkpt lat="37.1862736176" lon="-7.42048391625">
        <ele>13.6</ele>
        <time>2011-03-22T17:54:53Z</time>
      </trkpt>
      <trkpt lat="37.1862716059" lon="-7.42045751326">
        <ele>13.4</ele>
        <time>2011-03-22T17:54:59Z</time>
      </trkpt>
      <trkpt lat="37.1862636431" lon="-7.42047788128">
        <ele>12.4</ele>
        <time>2011-03-22T17:55:05Z</time>
      </trkpt>
      <trkpt lat="37.1862715221" lon="-7.42047645635">
        <ele>11.2</ele>
        <time>2011-03-22T17:55:24Z</time>
      </trkpt>
      <trkpt lat="37.1862775571" lon="-7.42047301978">
        <ele>11.2</ele>
        <time>2011-03-22T17:56:01Z</time>
      </trkpt>
      <trkpt lat="37.1862758807" lon="-7.42050646356">
        <ele>11.2</ele>
        <time>2011-03-22T17:56:09Z</time>
      </trkpt>
      <trkpt lat="37.1862577758" lon="-7.42053370473">
        <ele>11.2</ele>
        <time>2011-03-22T17:56:15Z</time>
      </trkpt>
      <trkpt lat="37.1862415987" lon="-7.42058265503">
        <ele>11.2</ele>
        <time>2011-03-22T17:56:21Z</time>
      </trkpt>
      <trkpt lat="37.1862238291" lon="-7.42060645962">
        <ele>11.2</ele>
        <time>2011-03-22T17:56:25Z</time>
      </trkpt>
      <trkpt lat="37.1862126812" lon="-7.42064929113">
        <ele>11.2</ele>
        <time>2011-03-22T17:56:28Z</time>
      </trkpt>
      <trkpt lat="37.1861953306" lon="-7.42069396666">
        <ele>11.2</ele>
        <time>2011-03-22T17:56:32Z</time>
      </trkpt>
      <trkpt lat="37.1861792374" lon="-7.4207276619">
        <ele>11.2</ele>
        <time>2011-03-22T17:56:36Z</time>
      </trkpt>
      <trkpt lat="37.1861575283" lon="-7.42076579954">
        <ele>11.2</ele>
        <time>2011-03-22T17:56:41Z</time>
      </trkpt>
      <trkpt lat="37.1861452069" lon="-7.42081558803">
        <ele>11.2</ele>
        <time>2011-03-22T17:56:44Z</time>
      </trkpt>
      <trkpt lat="37.1861232463" lon="-7.42091617083">
        <ele>11.2</ele>
        <time>2011-03-22T17:56:46Z</time>
      </trkpt>
      <trkpt lat="37.1860991902" lon="-7.42101516107">
        <ele>11.2</ele>
        <time>2011-03-22T17:56:48Z</time>
      </trkpt>
      <trkpt lat="37.1860684287" lon="-7.42110954126">
        <ele>11.2</ele>
        <time>2011-03-22T17:56:50Z</time>
      </trkpt>
      <trkpt lat="37.1860688478" lon="-7.4212169134">
        <ele>11.2</ele>
        <time>2011-03-22T17:56:52Z</time>
      </trkpt>
      <trkpt lat="37.1860957536" lon="-7.42132646483">
        <ele>11.2</ele>
        <time>2011-03-22T17:56:54Z</time>
      </trkpt>
      <trkpt lat="37.1861226595" lon="-7.42136938016">
        <ele>11.2</ele>
        <time>2011-03-22T17:56:55Z</time>
      </trkpt>
      <trkpt lat="37.1861964203" lon="-7.42142637708">
        <ele>11.2</ele>
        <time>2011-03-22T17:56:57Z</time>
      </trkpt>
      <trkpt lat="37.1862343065" lon="-7.42144909203">
        <ele>11.2</ele>
        <time>2011-03-22T17:56:58Z</time>
      </trkpt>
      <trkpt lat="37.1863066423" lon="-7.42148890606">
        <ele>10.8</ele>
        <time>2011-03-22T17:57:00Z</time>
      </trkpt>
      <trkpt lat="37.1863763797" lon="-7.42153810781">
        <ele>10.4</ele>
        <time>2011-03-22T17:57:02Z</time>
      </trkpt>
      <trkpt lat="37.1864078956" lon="-7.42155713472">
        <ele>10.2</ele>
        <time>2011-03-22T17:57:03Z</time>
      </trkpt>
      <trkpt lat="37.186472101" lon="-7.42158420826">
        <ele>10</ele>
        <time>2011-03-22T17:57:05Z</time>
      </trkpt>
      <trkpt lat="37.1865416707" lon="-7.42161731676">
        <ele>9.8</ele>
        <time>2011-03-22T17:57:07Z</time>
      </trkpt>
      <trkpt lat="37.1866099832" lon="-7.42165922626">
        <ele>9.8</ele>
        <time>2011-03-22T17:57:09Z</time>
      </trkpt>
      <trkpt lat="37.1866830734" lon="-7.4216960228">
        <ele>9.6</ele>
        <time>2011-03-22T17:57:11Z</time>
      </trkpt>
      <trkpt lat="37.1867524755" lon="-7.42171513354">
        <ele>9.4</ele>
        <time>2011-03-22T17:57:13Z</time>
      </trkpt>
      <trkpt lat="37.1868339476" lon="-7.42173566919">
        <ele>9.4</ele>
        <time>2011-03-22T17:57:15Z</time>
      </trkpt>
      <trkpt lat="37.1869147491" lon="-7.42178260783">
        <ele>9.4</ele>
        <time>2011-03-22T17:57:17Z</time>
      </trkpt>
      <trkpt lat="37.1869819719" lon="-7.42183675491">
        <ele>9.2</ele>
        <time>2011-03-22T17:57:19Z</time>
      </trkpt>
      <trkpt lat="37.1870514579" lon="-7.42188402882">
        <ele>9.2</ele>
        <time>2011-03-22T17:57:21Z</time>
      </trkpt>
      <trkpt lat="37.1871322594" lon="-7.42193172183">
        <ele>9.2</ele>
        <time>2011-03-22T17:57:23Z</time>
      </trkpt>
      <trkpt lat="37.187200991" lon="-7.42197413425">
        <ele>9.2</ele>
        <time>2011-03-22T17:57:25Z</time>
      </trkpt>
      <trkpt lat="37.1872366979" lon="-7.42200011814">
        <ele>9.2</ele>
        <time>2011-03-22T17:57:26Z</time>
      </trkpt>
      <trkpt lat="37.1873252107" lon="-7.42208829572">
        <ele>9.2</ele>
        <time>2011-03-22T17:57:29Z</time>
      </trkpt>
      <trkpt lat="37.1873858957" lon="-7.42214059878">
        <ele>9.2</ele>
        <time>2011-03-22T17:57:31Z</time>
      </trkpt>
      <trkpt lat="37.1874949442" lon="-7.42221067146">
        <ele>9.2</ele>
        <time>2011-03-22T17:57:34Z</time>
      </trkpt>
      <trkpt lat="37.1875717224" lon="-7.42224595926">
        <ele>9.2</ele>
        <time>2011-03-22T17:57:36Z</time>
      </trkpt>
      <trkpt lat="37.1876459861" lon="-7.4222730328">
        <ele>9</ele>
        <time>2011-03-22T17:57:38Z</time>
      </trkpt>
      <trkpt lat="37.1877188248" lon="-7.42227093732">
        <ele>9</ele>
        <time>2011-03-22T17:57:40Z</time>
      </trkpt>
      <trkpt lat="37.1878039011" lon="-7.42223405697">
        <ele>9</ele>
        <time>2011-03-22T17:57:42Z</time>
      </trkpt>
      <trkpt lat="37.1878411167" lon="-7.4221962546">
        <ele>9</ele>
        <time>2011-03-22T17:57:43Z</time>
      </trkpt>
      <trkpt lat="37.1878540248" lon="-7.42210740646">
        <ele>9</ele>
        <time>2011-03-22T17:57:45Z</time>
      </trkpt>
      <trkpt lat="37.1878327348" lon="-7.4220586238">
        <ele>9</ele>
        <time>2011-03-22T17:57:46Z</time>
      </trkpt>
      <trkpt lat="37.1878000454" lon="-7.4219545206">
        <ele>9</ele>
        <time>2011-03-22T17:57:48Z</time>
      </trkpt>
      <trkpt lat="37.1877607343" lon="-7.42184798665">
        <ele>9</ele>
        <time>2011-03-22T17:57:50Z</time>
      </trkpt>
      <trkpt lat="37.1877110296" lon="-7.42176232363">
        <ele>9</ele>
        <time>2011-03-22T17:57:52Z</time>
      </trkpt>
      <trkpt lat="37.1876444773" lon="-7.42173072387">
        <ele>9</ele>
        <time>2011-03-22T17:57:54Z</time>
      </trkpt>
      <trkpt lat="37.187612207" lon="-7.42173005332">
        <ele>9</ele>
        <time>2011-03-22T17:57:55Z</time>
      </trkpt>
      <trkpt lat="37.1875704651" lon="-7.42172192288">
        <ele>9</ele>
        <time>2011-03-22T17:57:56Z</time>
      </trkpt>
      <trkpt lat="37.1875222692" lon="-7.42167582243">
        <ele>9</ele>
        <time>2011-03-22T17:57:58Z</time>
      </trkpt>
      <trkpt lat="37.1874776775" lon="-7.42162016661">
        <ele>9</ele>
        <time>2011-03-22T17:58:00Z</time>
      </trkpt>
      <trkpt lat="37.1874537053" lon="-7.42158420826">
        <ele>9</ele>
        <time>2011-03-22T17:58:01Z</time>
      </trkpt>
      <trkpt lat="37.1874164896" lon="-7.4215089388">
        <ele>9</ele>
        <time>2011-03-22T17:58:03Z</time>
      </trkpt>
      <trkpt lat="37.1873737419" lon="-7.42141589971">
        <ele>9</ele>
        <time>2011-03-22T17:58:05Z</time>
      </trkpt>
      <trkpt lat="37.1873485962" lon="-7.4213642672">
        <ele>9</ele>
        <time>2011-03-22T17:58:06Z</time>
      </trkpt>
      <trkpt lat="37.1873055133" lon="-7.42126971937">
        <ele>9</ele>
        <time>2011-03-22T17:58:08Z</time>
      </trkpt>
      <trkpt lat="37.1872756737" lon="-7.42117709938">
        <ele>9</ele>
        <time>2011-03-22T17:58:10Z</time>
      </trkpt>
      <trkpt lat="37.1872522044" lon="-7.4210713198">
        <ele>9</ele>
        <time>2011-03-22T17:58:12Z</time>
      </trkpt>
      <trkpt lat="37.1872395477" lon="-7.42097702342">
        <ele>9</ele>
        <time>2011-03-22T17:58:14Z</time>
      </trkpt>
      <trkpt lat="37.1872353568" lon="-7.42093310227">
        <ele>9</ele>
        <time>2011-03-22T17:58:15Z</time>
      </trkpt>
      <trkpt lat="37.1872451636" lon="-7.4207797135">
        <ele>8.4</ele>
        <time>2011-03-22T17:58:18Z</time>
      </trkpt>
      <trkpt lat="37.1872424814" lon="-7.42072992501">
        <ele>8.4</ele>
        <time>2011-03-22T17:58:19Z</time>
      </trkpt>
      <trkpt lat="37.187210714" lon="-7.42059874828">
        <ele>8</ele>
        <time>2011-03-22T17:58:22Z</time>
      </trkpt>
      <trkpt lat="37.1871895916" lon="-7.42051559983">
        <ele>7.8</ele>
        <time>2011-03-22T17:58:24Z</time>
      </trkpt>
      <trkpt lat="37.1871730793" lon="-7.42042842807">
        <ele>7.6</ele>
        <time>2011-03-22T17:58:26Z</time>
      </trkpt>
      <trkpt lat="37.1871554773" lon="-7.42033932847">
        <ele>7.4</ele>
        <time>2011-03-22T17:58:28Z</time>
      </trkpt>
      <trkpt lat="37.18713754" lon="-7.42023857803">
        <ele>7.4</ele>
        <time>2011-03-22T17:58:30Z</time>
      </trkpt>
      <trkpt lat="37.1871307507" lon="-7.42012969715">
        <ele>7.4</ele>
        <time>2011-03-22T17:58:32Z</time>
      </trkpt>
      <trkpt lat="37.1871276494" lon="-7.42007471189">
        <ele>7.2</ele>
        <time>2011-03-22T17:58:33Z</time>
      </trkpt>
      <trkpt lat="37.1870799563" lon="-7.4200085787">
        <ele>7.2</ele>
        <time>2011-03-22T17:58:35Z</time>
      </trkpt>
      <trkpt lat="37.1869613525" lon="-7.41996901613">
        <ele>7.2</ele>
        <time>2011-03-22T17:58:38Z</time>
      </trkpt>
      <trkpt lat="37.1869021762" lon="-7.41996063423">
        <ele>7.2</ele>
        <time>2011-03-22T17:58:40Z</time>
      </trkpt>
      <trkpt lat="37.1868316007" lon="-7.41998603139">
        <ele>7</ele>
        <time>2011-03-22T17:58:42Z</time>
      </trkpt>
      <trkpt lat="37.1867724244" lon="-7.42001017126">
        <ele>7</ele>
        <time>2011-03-22T17:58:44Z</time>
      </trkpt>
      <trkpt lat="37.186716601" lon="-7.42002056481">
        <ele>7</ele>
        <time>2011-03-22T17:58:46Z</time>
      </trkpt>
      <trkpt lat="37.1866907847" lon="-7.42003338912">
        <ele>7</ele>
        <time>2011-03-22T17:58:47Z</time>
      </trkpt>
      <trkpt lat="37.1866428403" lon="-7.42006482124">
        <ele>7</ele>
        <time>2011-03-22T17:58:49Z</time>
      </trkpt>
      <trkpt lat="37.1865882741" lon="-7.42009114041">
        <ele>7</ele>
        <time>2011-03-22T17:58:51Z</time>
      </trkpt>
      <trkpt lat="37.1865130884" lon="-7.42013187645">
        <ele>7</ele>
        <time>2011-03-22T17:58:53Z</time>
      </trkpt>
      <trkpt lat="37.1864274254" lon="-7.42016104546">
        <ele>7</ele>
        <time>2011-03-22T17:58:55Z</time>
      </trkpt>
      <trkpt lat="37.1863352245" lon="-7.42016163219">
        <ele>7</ele>
        <time>2011-03-22T17:58:57Z</time>
      </trkpt>
      <trkpt lat="37.1862899623" lon="-7.42017562996">
        <ele>7</ele>
        <time>2011-03-22T17:58:58Z</time>
      </trkpt>
      <trkpt lat="37.1862321272" lon="-7.42030965654">
        <ele>7</ele>
        <time>2011-03-22T17:59:01Z</time>
      </trkpt>
      <trkpt lat="37.1862343065" lon="-7.42040923352">
        <ele>7</ele>
        <time>2011-03-22T17:59:03Z</time>
      </trkpt>
      <trkpt lat="37.1862283553" lon="-7.42049657291">
        <ele>7</ele>
        <time>2011-03-22T17:59:05Z</time>
      </trkpt>
      <trkpt lat="37.1862051374" lon="-7.4205869298">
        <ele>7</ele>
        <time>2011-03-22T17:59:07Z</time>
      </trkpt>
      <trkpt lat="37.1861938219" lon="-7.42063277879">
        <ele>7</ele>
        <time>2011-03-22T17:59:08Z</time>
      </trkpt>
      <trkpt lat="37.186163647" lon="-7.42072472823">
        <ele>7</ele>
        <time>2011-03-22T17:59:10Z</time>
      </trkpt>
      <trkpt lat="37.1861286945" lon="-7.42082832852">
        <ele>7</ele>
        <time>2011-03-22T17:59:12Z</time>
      </trkpt>
      <trkpt lat="37.1861121822" lon="-7.42093335372">
        <ele>7</ele>
        <time>2011-03-22T17:59:14Z</time>
      </trkpt>
      <trkpt lat="37.1861041355" lon="-7.42098154965">
        <ele>7</ele>
        <time>2011-03-22T17:59:15Z</time>
      </trkpt>
      <trkpt lat="37.1860535927" lon="-7.42114231449">
        <ele>7.2</ele>
        <time>2011-03-22T17:59:18Z</time>
      </trkpt>
      <trkpt lat="37.1860483959" lon="-7.42124993809">
        <ele>7.4</ele>
        <time>2011-03-22T17:59:20Z</time>
      </trkpt>
      <trkpt lat="37.186078906" lon="-7.42134641376">
        <ele>7.8</ele>
        <time>2011-03-22T17:59:22Z</time>
      </trkpt>
      <trkpt lat="37.1861019563" lon="-7.42138849089">
        <ele>7.8</ele>
        <time>2011-03-22T17:59:23Z</time>
      </trkpt>
      <trkpt lat="37.1861279401" lon="-7.42141858191">
        <ele>8</ele>
        <time>2011-03-22T17:59:24Z</time>
      </trkpt>
      <trkpt lat="37.186205808" lon="-7.42146610729">
        <ele>8.2</ele>
        <time>2011-03-22T17:59:26Z</time>
      </trkpt>
      <trkpt lat="37.1862781438" lon="-7.42150608895">
        <ele>8.4</ele>
        <time>2011-03-22T17:59:28Z</time>
      </trkpt>
      <trkpt lat="37.1863144374" lon="-7.42152679224">
        <ele>8.4</ele>
        <time>2011-03-22T17:59:29Z</time>
      </trkpt>
      <trkpt lat="37.1863816603" lon="-7.42156870174">
        <ele>8.6</ele>
        <time>2011-03-22T17:59:31Z</time>
      </trkpt>
      <trkpt lat="37.186485512" lon="-7.4216245252">
        <ele>8.6</ele>
        <time>2011-03-22T17:59:34Z</time>
      </trkpt>
      <trkpt lat="37.1865513099" lon="-7.42165361039">
        <ele>8.6</ele>
        <time>2011-03-22T17:59:36Z</time>
      </trkpt>
      <trkpt lat="37.1866169402" lon="-7.42168311468">
        <ele>8.8</ele>
        <time>2011-03-22T17:59:38Z</time>
      </trkpt>
      <trkpt lat="37.1866839954" lon="-7.42171270279">
        <ele>8.8</ele>
        <time>2011-03-22T17:59:40Z</time>
      </trkpt>
      <trkpt lat="37.1867544872" lon="-7.4217334899">
        <ele>8.8</ele>
        <time>2011-03-22T17:59:42Z</time>
      </trkpt>
      <trkpt lat="37.1868344505" lon="-7.4217603958">
        <ele>8.8</ele>
        <time>2011-03-22T17:59:44Z</time>
      </trkpt>
      <trkpt lat="37.1868878432" lon="-7.42178319456">
        <ele>8.8</ele>
        <time>2011-03-22T17:59:46Z</time>
      </trkpt>
      <trkpt lat="37.186900416" lon="-7.42178755315">
        <ele>8.8</ele>
        <time>2011-03-22T17:59:47Z</time>
      </trkpt>
      <trkpt lat="37.1869548146" lon="-7.42183331833">
        <ele>9</ele>
        <time>2011-03-22T18:00:04Z</time>
      </trkpt>
      <trkpt lat="37.1869838998" lon="-7.4218521776">
        <ele>9</ele>
        <time>2011-03-22T18:00:11Z</time>
      </trkpt>
      <trkpt lat="37.186978703" lon="-7.42183834747">
        <ele>9</ele>
        <time>2011-03-22T18:00:17Z</time>
      </trkpt>
      <trkpt lat="37.1869701535" lon="-7.4218336536">
        <ele>9</ele>
        <time>2011-03-22T18:00:22Z</time>
      </trkpt>
      <trkpt lat="37.1869973108" lon="-7.42185360252">
        <ele>9</ele>
        <time>2011-03-22T18:00:26Z</time>
      </trkpt>
      <trkpt lat="37.1870206963" lon="-7.42186491809">
        <ele>9</ele>
        <time>2011-03-22T18:00:30Z</time>
      </trkpt>
      <trkpt lat="37.1870570738" lon="-7.4218843641">
        <ele>9</ele>
        <time>2011-03-22T18:00:38Z</time>
      </trkpt>
      <trkpt lat="37.1870818842" lon="-7.42189852951">
        <ele>9</ele>
        <time>2011-03-22T18:00:42Z</time>
      </trkpt>
      <trkpt lat="37.1870974745" lon="-7.42190707905">
        <ele>9</ele>
        <time>2011-03-22T18:00:43Z</time>
      </trkpt>
      <trkpt lat="37.1871441617" lon="-7.42192979399">
        <ele>8.8</ele>
        <time>2011-03-22T18:00:45Z</time>
      </trkpt>
      <trkpt lat="37.187216246" lon="-7.42197606208">
        <ele>8.4</ele>
        <time>2011-03-22T18:00:47Z</time>
      </trkpt>
      <trkpt lat="37.1872818763" lon="-7.42203825578">
        <ele>8.2</ele>
        <time>2011-03-22T18:00:49Z</time>
      </trkpt>
      <trkpt lat="37.1873390409" lon="-7.42209617471">
        <ele>7.8</ele>
        <time>2011-03-22T18:00:51Z</time>
      </trkpt>
      <trkpt lat="37.1874045035" lon="-7.42214889686">
        <ele>7.6</ele>
        <time>2011-03-22T18:00:53Z</time>
      </trkpt>
      <trkpt lat="37.1874739895" lon="-7.42219332093">
        <ele>7.6</ele>
        <time>2011-03-22T18:00:55Z</time>
      </trkpt>
      <trkpt lat="37.1875595687" lon="-7.42223347023">
        <ele>7.4</ele>
        <time>2011-03-22T18:00:57Z</time>
      </trkpt>
      <trkpt lat="37.1876030707" lon="-7.42224947966">
        <ele>7.4</ele>
        <time>2011-03-22T18:00:58Z</time>
      </trkpt>
      <trkpt lat="37.1876847943" lon="-7.42226557291">
        <ele>7.2</ele>
        <time>2011-03-22T18:01:00Z</time>
      </trkpt>
      <trkpt lat="37.1877632488" lon="-7.42224377997">
        <ele>7.2</ele>
        <time>2011-03-22T18:01:02Z</time>
      </trkpt>
      <trkpt lat="37.1878246043" lon="-7.42217638949">
        <ele>7.2</ele>
        <time>2011-03-22T18:01:04Z</time>
      </trkpt>
      <trkpt lat="37.1878121153" lon="-7.42207387886">
        <ele>7</ele>
        <time>2011-03-22T18:01:06Z</time>
      </trkpt>
      <trkpt lat="37.1877733071" lon="-7.42197103294">
        <ele>7</ele>
        <time>2011-03-22T18:01:08Z</time>
      </trkpt>
      <trkpt lat="37.1877451439" lon="-7.42186609156">
        <ele>7</ele>
        <time>2011-03-22T18:01:10Z</time>
      </trkpt>
      <trkpt lat="37.1876982053" lon="-7.42176752041">
        <ele>7</ele>
        <time>2011-03-22T18:01:12Z</time>
      </trkpt>
      <trkpt lat="37.1876334132" lon="-7.42172234197">
        <ele>7</ele>
        <time>2011-03-22T18:01:14Z</time>
      </trkpt>
      <trkpt lat="37.1875699622" lon="-7.42171504972">
        <ele>7</ele>
        <time>2011-03-22T18:01:16Z</time>
      </trkpt>
      <trkpt lat="37.187545068" lon="-7.42169434642">
        <ele>7</ele>
        <time>2011-03-22T18:01:17Z</time>
      </trkpt>
      <trkpt lat="37.1874687089" lon="-7.42160700703">
        <ele>7</ele>
        <time>2011-03-22T18:01:20Z</time>
      </trkpt>
      <trkpt lat="37.1874325829" lon="-7.4215455677">
        <ele>7</ele>
        <time>2011-03-22T18:01:22Z</time>
      </trkpt>
      <trkpt lat="37.1873970436" lon="-7.42145588137">
        <ele>7</ele>
        <time>2011-03-22T18:01:24Z</time>
      </trkpt>
      <trkpt lat="37.1873558047" lon="-7.42135999243">
        <ele>7</ele>
        <time>2011-03-22T18:01:26Z</time>
      </trkpt>
      <trkpt lat="37.1873165774" lon="-7.42125831999">
        <ele>6.8</ele>
        <time>2011-03-22T18:01:28Z</time>
      </trkpt>
      <trkpt lat="37.1872937786" lon="-7.42115572553">
        <ele>6.8</ele>
        <time>2011-03-22T18:01:30Z</time>
      </trkpt>
      <trkpt lat="37.1872730753" lon="-7.42104843721">
        <ele>6.8</ele>
        <time>2011-03-22T18:01:32Z</time>
      </trkpt>
      <trkpt lat="37.1872637714" lon="-7.42100124711">
        <ele>6.8</ele>
        <time>2011-03-22T18:01:33Z</time>
      </trkpt>
      <trkpt lat="37.1872614245" lon="-7.42084953472">
        <ele>6.8</ele>
        <time>2011-03-22T18:01:36Z</time>
      </trkpt>
      <trkpt lat="37.1872753384" lon="-7.42074660499">
        <ele>6.8</ele>
        <time>2011-03-22T18:01:38Z</time>
      </trkpt>
      <trkpt lat="37.1872734106" lon="-7.42069446957">
        <ele>6.8</ele>
        <time>2011-03-22T18:01:39Z</time>
      </trkpt>
      <trkpt lat="37.1872418947" lon="-7.42059908355">
        <ele>6.8</ele>
        <time>2011-03-22T18:01:41Z</time>
      </trkpt>
      <trkpt lat="37.1872061039" lon="-7.42052020987">
        <ele>6.8</ele>
        <time>2011-03-22T18:01:43Z</time>
      </trkpt>
      <trkpt lat="37.187178276" lon="-7.42043706142">
        <ele>6.8</ele>
        <time>2011-03-22T18:01:45Z</time>
      </trkpt>
      <trkpt lat="37.1871696427" lon="-7.42034234595">
        <ele>6.8</ele>
        <time>2011-03-22T18:01:47Z</time>
      </trkpt>
      <trkpt lat="37.1871558125" lon="-7.42024478064">
        <ele>6.8</ele>
        <time>2011-03-22T18:01:49Z</time>
      </trkpt>
      <trkpt lat="37.1871395517" lon="-7.42019750672">
        <ele>6.6</ele>
        <time>2011-03-22T18:01:50Z</time>
      </trkpt>
      <trkpt lat="37.1871229555" lon="-7.42010371326">
        <ele>6.4</ele>
        <time>2011-03-22T18:01:52Z</time>
      </trkpt>
      <trkpt lat="37.1870825547" lon="-7.42003699334">
        <ele>6</ele>
        <time>2011-03-22T18:01:54Z</time>
      </trkpt>
      <trkpt lat="37.1870205287" lon="-7.42001746351">
        <ele>5.8</ele>
        <time>2011-03-22T18:01:56Z</time>
      </trkpt>
      <trkpt lat="37.1869594246" lon="-7.420002879">
        <ele>5.6</ele>
        <time>2011-03-22T18:01:58Z</time>
      </trkpt>
      <trkpt lat="37.1869243883" lon="-7.42000748905">
        <ele>5.6</ele>
        <time>2011-03-22T18:01:59Z</time>
      </trkpt>
      <trkpt lat="37.1868188602" lon="-7.420021403">
        <ele>5.4</ele>
        <time>2011-03-22T18:02:02Z</time>
      </trkpt>
      <trkpt lat="37.1867587619" lon="-7.42003062309">
        <ele>5.2</ele>
        <time>2011-03-22T18:02:04Z</time>
      </trkpt>
      <trkpt lat="37.1867315208" lon="-7.42004688398">
        <ele>5.2</ele>
        <time>2011-03-22T18:02:05Z</time>
      </trkpt>
      <trkpt lat="37.1866580115" lon="-7.42007638827">
        <ele>5.2</ele>
        <time>2011-03-22T18:02:08Z</time>
      </trkpt>
      <trkpt lat="37.1865948958" lon="-7.42011477737">
        <ele>5</ele>
        <time>2011-03-22T18:02:10Z</time>
      </trkpt>
      <trkpt lat="37.1865585183" lon="-7.42013405574">
        <ele>5</ele>
        <time>2011-03-22T18:02:11Z</time>
      </trkpt>
      <trkpt lat="37.186441507" lon="-7.42018577206">
        <ele>5</ele>
        <time>2011-03-22T18:02:14Z</time>
      </trkpt>
      <trkpt lat="37.1863488032" lon="-7.42018677789">
        <ele>5.4</ele>
        <time>2011-03-22T18:02:16Z</time>
      </trkpt>
      <trkpt lat="37.1862778923" lon="-7.4202115045">
        <ele>5.6</ele>
        <time>2011-03-22T18:02:18Z</time>
      </trkpt>
      <trkpt lat="37.1862524114" lon="-7.42023950004">
        <ele>5.8</ele>
        <time>2011-03-22T18:02:19Z</time>
      </trkpt>
      <trkpt lat="37.1862249187" lon="-7.42036288161">
        <ele>6</ele>
        <time>2011-03-22T18:02:22Z</time>
      </trkpt>
      <trkpt lat="37.1862285229" lon="-7.42045055628">
        <ele>6.2</ele>
        <time>2011-03-22T18:02:24Z</time>
      </trkpt>
      <trkpt lat="37.1862177941" lon="-7.42049213051">
        <ele>6.4</ele>
        <time>2011-03-22T18:02:25Z</time>
      </trkpt>
      <trkpt lat="37.1861740406" lon="-7.42063805939">
        <ele>6.4</ele>
        <time>2011-03-22T18:02:28Z</time>
      </trkpt>
      <trkpt lat="37.186151158" lon="-7.42073193667">
        <ele>6.6</ele>
        <time>2011-03-22T18:02:30Z</time>
      </trkpt>
      <trkpt lat="37.1861208155" lon="-7.42084006318">
        <ele>6.6</ele>
        <time>2011-03-22T18:02:32Z</time>
      </trkpt>
      <trkpt lat="37.186093742" lon="-7.42094081361">
        <ele>6.6</ele>
        <time>2011-03-22T18:02:34Z</time>
      </trkpt>
      <trkpt lat="37.1860613879" lon="-7.42103661873">
        <ele>6.8</ele>
        <time>2011-03-22T18:02:36Z</time>
      </trkpt>
      <trkpt lat="37.1860492341" lon="-7.42108196481">
        <ele>6.8</ele>
        <time>2011-03-22T18:02:37Z</time>
      </trkpt>
      <trkpt lat="37.1860440373" lon="-7.42118279907">
        <ele>6.8</ele>
        <time>2011-03-22T18:02:39Z</time>
      </trkpt>
      <trkpt lat="37.1860680934" lon="-7.42128782427">
        <ele>6.8</ele>
        <time>2011-03-22T18:02:41Z</time>
      </trkpt>
      <trkpt lat="37.1861220728" lon="-7.42137893553">
        <ele>6.8</ele>
        <time>2011-03-22T18:02:43Z</time>
      </trkpt>
      <trkpt lat="37.1861971746" lon="-7.42142788582">
        <ele>6.8</ele>
        <time>2011-03-22T18:02:45Z</time>
      </trkpt>
      <trkpt lat="37.1862365696" lon="-7.42145311534">
        <ele>6.8</ele>
        <time>2011-03-22T18:02:46Z</time>
      </trkpt>
      <trkpt lat="37.1863053011" lon="-7.42149745559">
        <ele>6.8</ele>
        <time>2011-03-22T18:02:48Z</time>
      </trkpt>
      <trkpt lat="37.1863750386" lon="-7.42154129293">
        <ele>6.8</ele>
        <time>2011-03-22T18:02:50Z</time>
      </trkpt>
      <trkpt lat="37.1864457818" lon="-7.42158119077">
        <ele>6.8</ele>
        <time>2011-03-22T18:02:52Z</time>
      </trkpt>
      <trkpt lat="37.18651795" lon="-7.42162134008">
        <ele>6.8</ele>
        <time>2011-03-22T18:02:54Z</time>
      </trkpt>
      <trkpt lat="37.1865870168" lon="-7.4216624952">
        <ele>6.8</ele>
        <time>2011-03-22T18:02:56Z</time>
      </trkpt>
      <trkpt lat="37.1866556646" lon="-7.42169937556">
        <ele>6.8</ele>
        <time>2011-03-22T18:02:58Z</time>
      </trkpt>
      <trkpt lat="37.186722133" lon="-7.42171756429">
        <ele>6.8</ele>
        <time>2011-03-22T18:03:00Z</time>
      </trkpt>
      <trkpt lat="37.1868011744" lon="-7.42173474718">
        <ele>7</ele>
        <time>2011-03-22T18:03:02Z</time>
      </trkpt>
      <trkpt lat="37.1868871726" lon="-7.42177347156">
        <ele>7</ele>
        <time>2011-03-22T18:03:04Z</time>
      </trkpt>
      <trkpt lat="37.1869493663" lon="-7.42183222868">
        <ele>7</ele>
        <time>2011-03-22T18:03:06Z</time>
      </trkpt>
      <trkpt lat="37.18702363" lon="-7.42188478319">
        <ele>7</ele>
        <time>2011-03-22T18:03:08Z</time>
      </trkpt>
      <trkpt lat="37.1870978936" lon="-7.42192501631">
        <ele>7</ele>
        <time>2011-03-22T18:03:10Z</time>
      </trkpt>
      <trkpt lat="37.1871750071" lon="-7.42197329606">
        <ele>7</ele>
        <time>2011-03-22T18:03:12Z</time>
      </trkpt>
      <trkpt lat="37.1872097082" lon="-7.42200456054">
        <ele>7</ele>
        <time>2011-03-22T18:03:13Z</time>
      </trkpt>
      <trkpt lat="37.1872692196" lon="-7.42206231183">
        <ele>7</ele>
        <time>2011-03-22T18:03:15Z</time>
      </trkpt>
      <trkpt lat="37.1873294855" lon="-7.42211754856">
        <ele>7</ele>
        <time>2011-03-22T18:03:17Z</time>
      </trkpt>
      <trkpt lat="37.1873868177" lon="-7.42216482247">
        <ele>7</ele>
        <time>2011-03-22T18:03:19Z</time>
      </trkpt>
      <trkpt lat="37.187456136" lon="-7.42221377277">
        <ele>7</ele>
        <time>2011-03-22T18:03:21Z</time>
      </trkpt>
      <trkpt lat="37.1875355964" lon="-7.42225333534">
        <ele>7</ele>
        <time>2011-03-22T18:03:23Z</time>
      </trkpt>
      <trkpt lat="37.1876852133" lon="-7.42228552183">
        <ele>7</ele>
        <time>2011-03-22T18:03:27Z</time>
      </trkpt>
      <trkpt lat="37.187727961" lon="-7.4222796545">
        <ele>7</ele>
        <time>2011-03-22T18:03:28Z</time>
      </trkpt>
      <trkpt lat="37.1878007997" lon="-7.42216113444">
        <ele>7</ele>
        <time>2011-03-22T18:03:31Z</time>
      </trkpt>
      <trkpt lat="37.1877732233" lon="-7.42206231183">
        <ele>7</ele>
        <time>2011-03-22T18:03:33Z</time>
      </trkpt>
      <trkpt lat="37.1877546993" lon="-7.42200623692">
        <ele>7</ele>
        <time>2011-03-22T18:03:34Z</time>
      </trkpt>
      <trkpt lat="37.1877365106" lon="-7.42195292804">
        <ele>7</ele>
        <time>2011-03-22T18:03:35Z</time>
      </trkpt>
      <trkpt lat="37.1877100238" lon="-7.42184899248">
        <ele>7</ele>
        <time>2011-03-22T18:03:37Z</time>
      </trkpt>
      <trkpt lat="37.1876407055" lon="-7.42175528284">
        <ele>7</ele>
        <time>2011-03-22T18:03:40Z</time>
      </trkpt>
      <trkpt lat="37.1875765839" lon="-7.42174949933">
        <ele>7</ele>
        <time>2011-03-22T18:03:42Z</time>
      </trkpt>
      <trkpt lat="37.187542302" lon="-7.42171597173">
        <ele>7</ele>
        <time>2011-03-22T18:03:44Z</time>
      </trkpt>
      <trkpt lat="37.1875164857" lon="-7.42168663508">
        <ele>7</ele>
        <time>2011-03-22T18:03:46Z</time>
      </trkpt>
      <trkpt lat="37.1875030747" lon="-7.42166685379">
        <ele>7</ele>
        <time>2011-03-22T18:03:48Z</time>
      </trkpt>
      <trkpt lat="37.1874509392" lon="-7.42164598286">
        <ele>7</ele>
        <time>2011-03-22T18:03:59Z</time>
      </trkpt>
      <trkpt lat="37.1873998935" lon="-7.42161698149">
        <ele>7</ele>
        <time>2011-03-22T18:04:15Z</time>
      </trkpt>
      <trkpt lat="37.1873763403" lon="-7.4215605713">
        <ele>7</ele>
        <time>2011-03-22T18:04:20Z</time>
      </trkpt>
      <trkpt lat="37.1873664497" lon="-7.42153877836">
        <ele>7</ele>
        <time>2011-03-22T18:04:22Z</time>
      </trkpt>
      <trkpt lat="37.1873542959" lon="-7.42151455467">
        <ele>7</ele>
        <time>2011-03-22T18:04:24Z</time>
      </trkpt>
      <trkpt lat="37.1873356881" lon="-7.42145856358">
        <ele>7</ele>
        <time>2011-03-22T18:04:29Z</time>
      </trkpt>
      <trkpt lat="37.1873212712" lon="-7.42142252141">
        <ele>6.2</ele>
        <time>2011-03-22T18:04:33Z</time>
      </trkpt>
      <trkpt lat="37.1873099557" lon="-7.4213929333">
        <ele>5.8</ele>
        <time>2011-03-22T18:04:36Z</time>
      </trkpt>
      <trkpt lat="37.1873026634" lon="-7.42133660693">
        <ele>5.4</ele>
        <time>2011-03-22T18:04:41Z</time>
      </trkpt>
      <trkpt lat="37.1872952035" lon="-7.42132436936">
        <ele>5.4</ele>
        <time>2011-03-22T18:04:42Z</time>
      </trkpt>
      <trkpt lat="37.1872878275" lon="-7.42131255088">
        <ele>5.4</ele>
        <time>2011-03-22T18:04:43Z</time>
      </trkpt>
      <trkpt lat="37.1872679624" lon="-7.42127198248">
        <ele>5.2</ele>
        <time>2011-03-22T18:04:45Z</time>
      </trkpt>
      <trkpt lat="37.187235273" lon="-7.42117684792">
        <ele>5.2</ele>
        <time>2011-03-22T18:04:47Z</time>
      </trkpt>
      <trkpt lat="37.187215324" lon="-7.42106897287">
        <ele>5</ele>
        <time>2011-03-22T18:04:49Z</time>
      </trkpt>
      <trkpt lat="37.1872102111" lon="-7.4209755985">
        <ele>5</ele>
        <time>2011-03-22T18:04:51Z</time>
      </trkpt>
      <trkpt lat="37.1872182577" lon="-7.42087954193">
        <ele>5</ele>
        <time>2011-03-22T18:04:53Z</time>
      </trkpt>
      <trkpt lat="37.1872299924" lon="-7.42083302238">
        <ele>5</ele>
        <time>2011-03-22T18:04:54Z</time>
      </trkpt>
      <trkpt lat="37.1872230354" lon="-7.42068625531">
        <ele>5</ele>
        <time>2011-03-22T18:04:57Z</time>
      </trkpt>
      <trkpt lat="37.1872104625" lon="-7.42063663446">
        <ele>5</ele>
        <time>2011-03-22T18:04:58Z</time>
      </trkpt>
      <trkpt lat="37.1871778569" lon="-7.42050244024">
        <ele>4.8</ele>
        <time>2011-03-22T18:05:01Z</time>
      </trkpt>
      <trkpt lat="37.187167631" lon="-7.42041208336">
        <ele>4.8</ele>
        <time>2011-03-22T18:05:03Z</time>
      </trkpt>
      <trkpt lat="37.1871578242" lon="-7.42029959826">
        <ele>4.8</ele>
        <time>2011-03-22T18:05:05Z</time>
      </trkpt>
      <trkpt lat="37.1871387135" lon="-7.4201806591">
        <ele>4.8</ele>
        <time>2011-03-22T18:05:07Z</time>
      </trkpt>
      <trkpt lat="37.1871311698" lon="-7.42013095444">
        <ele>4.8</ele>
        <time>2011-03-22T18:05:08Z</time>
      </trkpt>
      <trkpt lat="37.1870760169" lon="-7.42005836718">
        <ele>4.8</ele>
        <time>2011-03-22T18:05:10Z</time>
      </trkpt>
      <trkpt lat="37.1870318442" lon="-7.42004185484">
        <ele>4.8</ele>
        <time>2011-03-22T18:05:11Z</time>
      </trkpt>
      <trkpt lat="37.1869217061" lon="-7.42002148682">
        <ele>4.8</ele>
        <time>2011-03-22T18:05:14Z</time>
      </trkpt>
      <trkpt lat="37.1868863345" lon="-7.42002198974">
        <ele>4.8</ele>
        <time>2011-03-22T18:05:15Z</time>
      </trkpt>
      <trkpt lat="37.1868062873" lon="-7.42004026228">
        <ele>4.8</ele>
        <time>2011-03-22T18:05:17Z</time>
      </trkpt>
      <trkpt lat="37.1867373881" lon="-7.42004537524">
        <ele>4.8</ele>
        <time>2011-03-22T18:05:19Z</time>
      </trkpt>
      <trkpt lat="37.1866825705" lon="-7.42006708436">
        <ele>4.8</ele>
        <time>2011-03-22T18:05:21Z</time>
      </trkpt>
      <trkpt lat="37.1866528985" lon="-7.42007781319">
        <ele>4.8</ele>
        <time>2011-03-22T18:05:22Z</time>
      </trkpt>
      <trkpt lat="37.1865685766" lon="-7.42011628611">
        <ele>5</ele>
        <time>2011-03-22T18:05:25Z</time>
      </trkpt>
      <trkpt lat="37.1864840033" lon="-7.42016297329">
        <ele>5.4</ele>
        <time>2011-03-22T18:05:27Z</time>
      </trkpt>
      <trkpt lat="37.1863918862" lon="-7.42018535297">
        <ele>5.6</ele>
        <time>2011-03-22T18:05:29Z</time>
      </trkpt>
      <trkpt lat="37.1862973383" lon="-7.42019976984">
        <ele>6</ele>
        <time>2011-03-22T18:05:31Z</time>
      </trkpt>
      <trkpt lat="37.1862580272" lon="-7.42022265242">
        <ele>6</ele>
        <time>2011-03-22T18:05:32Z</time>
      </trkpt>
      <trkpt lat="37.1862170397" lon="-7.42030337012">
        <ele>6.2</ele>
        <time>2011-03-22T18:05:34Z</time>
      </trkpt>
      <trkpt lat="37.1862032934" lon="-7.42040018106">
        <ele>6.4</ele>
        <time>2011-03-22T18:05:36Z</time>
      </trkpt>
      <trkpt lat="37.1861984319" lon="-7.42044938282">
        <ele>6.4</ele>
        <time>2011-03-22T18:05:37Z</time>
      </trkpt>
      <trkpt lat="37.1861896309" lon="-7.42049322015">
        <ele>6.6</ele>
        <time>2011-03-22T18:05:38Z</time>
      </trkpt>
      <trkpt lat="37.1861617192" lon="-7.42057234529">
        <ele>7</ele>
        <time>2011-03-22T18:05:40Z</time>
      </trkpt>
      <trkpt lat="37.1861483082" lon="-7.42061526062">
        <ele>7.2</ele>
        <time>2011-03-22T18:05:41Z</time>
      </trkpt>
      <trkpt lat="37.1861011181" lon="-7.42076320115">
        <ele>7.8</ele>
        <time>2011-03-22T18:05:44Z</time>
      </trkpt>
      <trkpt lat="37.1860820073" lon="-7.42086889691">
        <ele>8</ele>
        <time>2011-03-22T18:05:46Z</time>
      </trkpt>
      <trkpt lat="37.1860637348" lon="-7.42096989881">
        <ele>8.2</ele>
        <time>2011-03-22T18:05:48Z</time>
      </trkpt>
      <trkpt lat="37.1860391758" lon="-7.42105824403">
        <ele>8.2</ele>
        <time>2011-03-22T18:05:50Z</time>
      </trkpt>
      <trkpt lat="37.1860268544" lon="-7.4211083678">
        <ele>8.4</ele>
        <time>2011-03-22T18:05:51Z</time>
      </trkpt>
      <trkpt lat="37.1860391758" lon="-7.42128237604">
        <ele>8.6</ele>
        <time>2011-03-22T18:05:54Z</time>
      </trkpt>
      <trkpt lat="37.1860841028" lon="-7.42137725915">
        <ele>8.6</ele>
        <time>2011-03-22T18:05:56Z</time>
      </trkpt>
      <trkpt lat="37.1861560195" lon="-7.4214335017">
        <ele>8.6</ele>
        <time>2011-03-22T18:05:58Z</time>
      </trkpt>
      <trkpt lat="37.1862393356" lon="-7.42148471511">
        <ele>8.8</ele>
        <time>2011-03-22T18:06:00Z</time>
      </trkpt>
      <trkpt lat="37.1862773056" lon="-7.42151136955">
        <ele>8.8</ele>
        <time>2011-03-22T18:06:01Z</time>
      </trkpt>
      <trkpt lat="37.1863537485" lon="-7.42155638035">
        <ele>8.8</ele>
        <time>2011-03-22T18:06:03Z</time>
      </trkpt>
      <trkpt lat="37.1863925567" lon="-7.42157699982">
        <ele>8.8</ele>
        <time>2011-03-22T18:06:04Z</time>
      </trkpt>
      <trkpt lat="37.1865047904" lon="-7.42162703977">
        <ele>8.8</ele>
        <time>2011-03-22T18:06:07Z</time>
      </trkpt>
      <trkpt lat="37.1865755336" lon="-7.4216593939">
        <ele>8.8</ele>
        <time>2011-03-22T18:06:09Z</time>
      </trkpt>
      <trkpt lat="37.1866096479" lon="-7.42167758262">
        <ele>8.8</ele>
        <time>2011-03-22T18:06:10Z</time>
      </trkpt>
      <trkpt lat="37.1867090573" lon="-7.42171714519">
        <ele>8.8</ele>
        <time>2011-03-22T18:06:13Z</time>
      </trkpt>
      <trkpt lat="37.1867859193" lon="-7.42173575301">
        <ele>8.8</ele>
        <time>2011-03-22T18:06:15Z</time>
      </trkpt>
      <trkpt lat="37.1868693192" lon="-7.42176760423">
        <ele>8.8</ele>
        <time>2011-03-22T18:06:17Z</time>
      </trkpt>
      <trkpt lat="37.1869430799" lon="-7.4218256908">
        <ele>9</ele>
        <time>2011-03-22T18:06:19Z</time>
      </trkpt>
      <trkpt lat="37.1870187685" lon="-7.42188176571">
        <ele>9</ele>
        <time>2011-03-22T18:06:21Z</time>
      </trkpt>
      <trkpt lat="37.1870978936" lon="-7.42192778234">
        <ele>9.2</ele>
        <time>2011-03-22T18:06:23Z</time>
      </trkpt>
      <trkpt lat="37.1871696427" lon="-7.4219699433">
        <ele>9.6</ele>
        <time>2011-03-22T18:06:25Z</time>
      </trkpt>
      <trkpt lat="37.1872330937" lon="-7.42201830686">
        <ele>9.8</ele>
        <time>2011-03-22T18:06:27Z</time>
      </trkpt>
      <trkpt lat="37.187261173" lon="-7.42205108009">
        <ele>10</ele>
        <time>2011-03-22T18:06:28Z</time>
      </trkpt>
      <trkpt lat="37.187317667" lon="-7.42210857992">
        <ele>10.2</ele>
        <time>2011-03-22T18:06:30Z</time>
      </trkpt>
      <trkpt lat="37.1873760051" lon="-7.42216356519">
        <ele>10.2</ele>
        <time>2011-03-22T18:06:32Z</time>
      </trkpt>
      <trkpt lat="37.187445491" lon="-7.42220740252">
        <ele>10.4</ele>
        <time>2011-03-22T18:06:34Z</time>
      </trkpt>
      <trkpt lat="37.1875235265" lon="-7.42224696509">
        <ele>10.6</ele>
        <time>2011-03-22T18:06:36Z</time>
      </trkpt>
      <trkpt lat="37.1875979578" lon="-7.42227822958">
        <ele>10.6</ele>
        <time>2011-03-22T18:06:38Z</time>
      </trkpt>
      <trkpt lat="37.1876733949" lon="-7.42229734031">
        <ele>10.6</ele>
        <time>2011-03-22T18:06:40Z</time>
      </trkpt>
      <trkpt lat="37.1877518495" lon="-7.42228853932">
        <ele>10.8</ele>
        <time>2011-03-22T18:06:42Z</time>
      </trkpt>
      <trkpt lat="37.1877904062" lon="-7.42226163342">
        <ele>10.8</ele>
        <time>2011-03-22T18:06:43Z</time>
      </trkpt>
      <trkpt lat="37.1877982014" lon="-7.42209910838">
        <ele>10.8</ele>
        <time>2011-03-22T18:06:46Z</time>
      </trkpt>
      <trkpt lat="37.1877677751" lon="-7.4219946699">
        <ele>10.8</ele>
        <time>2011-03-22T18:06:48Z</time>
      </trkpt>
      <trkpt lat="37.1877340798" lon="-7.42189601494">
        <ele>10.8</ele>
        <time>2011-03-22T18:06:50Z</time>
      </trkpt>
      <trkpt lat="37.1876967804" lon="-7.42179451013">
        <ele>10.8</ele>
        <time>2011-03-22T18:06:52Z</time>
      </trkpt>
      <trkpt lat="37.1876763285" lon="-7.42175134334">
        <ele>10.8</ele>
        <time>2011-03-22T18:06:53Z</time>
      </trkpt>
      <trkpt lat="37.1876169009" lon="-7.42172988568">
        <ele>10.8</ele>
        <time>2011-03-22T18:06:55Z</time>
      </trkpt>
      <trkpt lat="37.1875798529" lon="-7.42173147824">
        <ele>10.8</ele>
        <time>2011-03-22T18:06:56Z</time>
      </trkpt>
      <trkpt lat="37.1875137197" lon="-7.4216726373">
        <ele>10.8</ele>
        <time>2011-03-22T18:06:59Z</time>
      </trkpt>
      <trkpt lat="37.187466781" lon="-7.42160222934">
        <ele>11</ele>
        <time>2011-03-22T18:07:01Z</time>
      </trkpt>
      <trkpt lat="37.1874412162" lon="-7.42152310421">
        <ele>11</ele>
        <time>2011-03-22T18:07:03Z</time>
      </trkpt>
      <trkpt lat="37.1874280567" lon="-7.42147515974">
        <ele>11</ele>
        <time>2011-03-22T18:07:04Z</time>
      </trkpt>
      <trkpt lat="37.1873893323" lon="-7.42137139182">
        <ele>11</ele>
        <time>2011-03-22T18:07:06Z</time>
      </trkpt>
      <trkpt lat="37.1873366939" lon="-7.42127349123">
        <ele>11</ele>
        <time>2011-03-22T18:07:08Z</time>
      </trkpt>
      <trkpt lat="37.1873140628" lon="-7.42122261309">
        <ele>11</ele>
        <time>2011-03-22T18:07:09Z</time>
      </trkpt>
      <trkpt lat="37.1872802838" lon="-7.42106151297">
        <ele>11</ele>
        <time>2011-03-22T18:07:12Z</time>
      </trkpt>
      <trkpt lat="37.1872755899" lon="-7.42101499343">
        <ele>11</ele>
        <time>2011-03-22T18:07:13Z</time>
      </trkpt>
      <trkpt lat="37.1872869893" lon="-7.42087727881">
        <ele>11</ele>
        <time>2011-03-22T18:07:16Z</time>
      </trkpt>
      <trkpt lat="37.1872923537" lon="-7.42076906848">
        <ele>11</ele>
        <time>2011-03-22T18:07:18Z</time>
      </trkpt>
      <trkpt lat="37.187282044" lon="-7.42071073046">
        <ele>11</ele>
        <time>2011-03-22T18:07:19Z</time>
      </trkpt>
      <trkpt lat="37.1872643581" lon="-7.42065733776">
        <ele>11</ele>
        <time>2011-03-22T18:07:20Z</time>
      </trkpt>
      <trkpt lat="37.187227394" lon="-7.42056119736">
        <ele>11</ele>
        <time>2011-03-22T18:07:22Z</time>
      </trkpt>
      <trkpt lat="37.1872087862" lon="-7.42051476164">
        <ele>11</ele>
        <time>2011-03-22T18:07:23Z</time>
      </trkpt>
      <trkpt lat="37.1871775217" lon="-7.4203703415">
        <ele>11</ele>
        <time>2011-03-22T18:07:26Z</time>
      </trkpt>
      <trkpt lat="37.1871738336" lon="-7.42032273231">
        <ele>11</ele>
        <time>2011-03-22T18:07:27Z</time>
      </trkpt>
      <trkpt lat="37.1871575727" lon="-7.42021267796">
        <ele>11</ele>
        <time>2011-03-22T18:07:29Z</time>
      </trkpt>
      <trkpt lat="37.187105102" lon="-7.42007672354">
        <ele>11</ele>
        <time>2011-03-22T18:07:32Z</time>
      </trkpt>
      <trkpt lat="37.1870274018" lon="-7.42003179656">
        <ele>11</ele>
        <time>2011-03-22T18:07:34Z</time>
      </trkpt>
      <trkpt lat="37.1869941257" lon="-7.42001796642">
        <ele>11</ele>
        <time>2011-03-22T18:07:35Z</time>
      </trkpt>
      <trkpt lat="37.1869225443" lon="-7.42000606413">
        <ele>11</ele>
        <time>2011-03-22T18:07:37Z</time>
      </trkpt>
      <trkpt lat="37.1868621108" lon="-7.42002291175">
        <ele>11</ele>
        <time>2011-03-22T18:07:39Z</time>
      </trkpt>
      <trkpt lat="37.1868299243" lon="-7.42003280239">
        <ele>11</ele>
        <time>2011-03-22T18:07:40Z</time>
      </trkpt>
      <trkpt lat="37.1867700775" lon="-7.42003975936">
        <ele>11</ele>
        <time>2011-03-22T18:07:42Z</time>
      </trkpt>
      <trkpt lat="37.1867143379" lon="-7.42005945683">
        <ele>11</ele>
        <time>2011-03-22T18:07:44Z</time>
      </trkpt>
      <trkpt lat="37.1866984961" lon="-7.42006909601">
        <ele>11</ele>
        <time>2011-03-22T18:07:45Z</time>
      </trkpt>
      <trkpt lat="37.1866395713" lon="-7.42010145015">
        <ele>11.4</ele>
        <time>2011-03-22T18:07:52Z</time>
      </trkpt>
      <trkpt lat="37.1865980809" lon="-7.42012626057">
        <ele>12</ele>
        <time>2011-03-22T18:07:56Z</time>
      </trkpt>
      <trkpt lat="37.1865879388" lon="-7.42013204408">
        <ele>12.2</ele>
        <time>2011-03-22T18:07:57Z</time>
      </trkpt>
      <trkpt lat="37.1865135914" lon="-7.42014671241">
        <ele>12.4</ele>
        <time>2011-03-22T18:08:01Z</time>
      </trkpt>
      <trkpt lat="37.1864860987" lon="-7.42016624224">
        <ele>12.6</ele>
        <time>2011-03-22T18:08:04Z</time>
      </trkpt>
      <trkpt lat="37.1864337957" lon="-7.42017185811">
        <ele>12.8</ele>
        <time>2011-03-22T18:08:09Z</time>
      </trkpt>
      <trkpt lat="37.1864043752" lon="-7.4201691759">
        <ele>12.8</ele>
        <time>2011-03-22T18:08:11Z</time>
      </trkpt>
      <trkpt lat="37.186378559" lon="-7.42017244484">
        <ele>12.8</ele>
        <time>2011-03-22T18:08:13Z</time>
      </trkpt>
      <trkpt lat="37.1863418462" lon="-7.42017370213">
        <ele>12.8</ele>
        <time>2011-03-22T18:08:16Z</time>
      </trkpt>
      <trkpt lat="37.1862995176" lon="-7.42018267076">
        <ele>12.8</ele>
        <time>2011-03-22T18:08:19Z</time>
      </trkpt>
      <trkpt lat="37.1862619667" lon="-7.42019935074">
        <ele>13</ele>
        <time>2011-03-22T18:08:22Z</time>
      </trkpt>
      <trkpt lat="37.18624009" lon="-7.42023815894">
        <ele>13</ele>
        <time>2011-03-22T18:08:25Z</time>
      </trkpt>
      <trkpt lat="37.1862339712" lon="-7.42027923025">
        <ele>13</ele>
        <time>2011-03-22T18:08:28Z</time>
      </trkpt>
      <trkpt lat="37.186238665" lon="-7.420300185">
        <ele>13</ele>
        <time>2011-03-22T18:08:30Z</time>
      </trkpt>
      <trkpt lat="37.1862514055" lon="-7.42033027602">
        <ele>13</ele>
        <time>2011-03-22T18:08:33Z</time>
      </trkpt>
      <trkpt lat="37.1862382459" lon="-7.42036103759">
        <ele>13</ele>
        <time>2011-03-22T18:08:42Z</time>
      </trkpt>
      <trkpt lat="37.18624009" lon="-7.42037537064">
        <ele>13</ele>
        <time>2011-03-22T18:08:43Z</time>
      </trkpt>
      <trkpt lat="37.1862345579" lon="-7.42047050521">
        <ele>12.8</ele>
        <time>2011-03-22T18:08:46Z</time>
      </trkpt>
      <trkpt lat="37.1862115077" lon="-7.42055248019">
        <ele>12.4</ele>
        <time>2011-03-22T18:08:48Z</time>
      </trkpt>
      <trkpt lat="37.1861798241" lon="-7.4206399034">
        <ele>12.2</ele>
        <time>2011-03-22T18:08:50Z</time>
      </trkpt>
      <trkpt lat="37.1861658263" lon="-7.4206901948">
        <ele>12</ele>
        <time>2011-03-22T18:08:51Z</time>
      </trkpt>
      <trkpt lat="37.1861322987" lon="-7.42079262162">
        <ele>11.8</ele>
        <time>2011-03-22T18:08:53Z</time>
      </trkpt>
      <trkpt lat="37.186110422" lon="-7.4208935397">
        <ele>11.6</ele>
        <time>2011-03-22T18:08:55Z</time>
      </trkpt>
      <trkpt lat="37.186085863" lon="-7.42099504451">
        <ele>11.6</ele>
        <time>2011-03-22T18:08:57Z</time>
      </trkpt>
      <trkpt lat="37.1860578675" lon="-7.42109227455">
        <ele>11.4</ele>
        <time>2011-03-22T18:08:59Z</time>
      </trkpt>
      <trkpt lat="37.1860543471" lon="-7.42114248213">
        <ele>11.4</ele>
        <time>2011-03-22T18:09:00Z</time>
      </trkpt>
      <trkpt lat="37.1860640701" lon="-7.42125136301">
        <ele>11.4</ele>
        <time>2011-03-22T18:09:02Z</time>
      </trkpt>
      <trkpt lat="37.1860732063" lon="-7.42130676737">
        <ele>11.2</ele>
        <time>2011-03-22T18:09:03Z</time>
      </trkpt>
      <trkpt lat="37.1861291136" lon="-7.42139234657">
        <ele>11.2</ele>
        <time>2011-03-22T18:09:05Z</time>
      </trkpt>
      <trkpt lat="37.1862195543" lon="-7.42144884057">
        <ele>11.2</ele>
        <time>2011-03-22T18:09:07Z</time>
      </trkpt>
      <trkpt lat="37.1862990147" lon="-7.42149049862">
        <ele>11.2</ele>
        <time>2011-03-22T18:09:09Z</time>
      </trkpt>
      <trkpt lat="37.1863346378" lon="-7.42150885498">
        <ele>11.2</ele>
        <time>2011-03-22T18:09:10Z</time>
      </trkpt>
      <trkpt lat="37.1864094882" lon="-7.42155596126">
        <ele>11</ele>
        <time>2011-03-22T18:09:12Z</time>
      </trkpt>
      <trkpt lat="37.1864452789" lon="-7.42157783801">
        <ele>11</ele>
        <time>2011-03-22T18:09:13Z</time>
      </trkpt>
      <trkpt lat="37.1865494659" lon="-7.4216342482">
        <ele>11</ele>
        <time>2011-03-22T18:09:16Z</time>
      </trkpt>
      <trkpt lat="37.1866231428" lon="-7.42167632534">
        <ele>11</ele>
        <time>2011-03-22T18:09:18Z</time>
      </trkpt>
      <trkpt lat="37.1866916229" lon="-7.42170230923">
        <ele>11</ele>
        <time>2011-03-22T18:09:20Z</time>
      </trkpt>
      <trkpt lat="37.1867668086" lon="-7.42172058177">
        <ele>11</ele>
        <time>2011-03-22T18:09:22Z</time>
      </trkpt>
      <trkpt lat="37.1868493703" lon="-7.42174229089">
        <ele>11</ele>
        <time>2011-03-22T18:09:24Z</time>
      </trkpt>
      <trkpt lat="37.1869153358" lon="-7.42179182792">
        <ele>11</ele>
        <time>2011-03-22T18:09:26Z</time>
      </trkpt>
      <trkpt lat="37.186977781" lon="-7.42184505299">
        <ele>11</ele>
        <time>2011-03-22T18:09:28Z</time>
      </trkpt>
      <trkpt lat="37.1870475184" lon="-7.42189341655">
        <ele>11</ele>
        <time>2011-03-22T18:09:30Z</time>
      </trkpt>
      <trkpt lat="37.1871286552" lon="-7.42194027137">
        <ele>11</ele>
        <time>2011-03-22T18:09:32Z</time>
      </trkpt>
      <trkpt lat="37.1872050981" lon="-7.4219898084">
        <ele>11</ele>
        <time>2011-03-22T18:09:34Z</time>
      </trkpt>
      <trkpt lat="37.1872707284" lon="-7.42204923607">
        <ele>11</ele>
        <time>2011-03-22T18:09:36Z</time>
      </trkpt>
      <trkpt lat="37.1873249593" lon="-7.42210749028">
        <ele>11</ele>
        <time>2011-03-22T18:09:38Z</time>
      </trkpt>
      <trkpt lat="37.1873827944" lon="-7.42215970951">
        <ele>11</ele>
        <time>2011-03-22T18:09:40Z</time>
      </trkpt>
      <trkpt lat="37.1874417192" lon="-7.42220086464">
        <ele>11</ele>
        <time>2011-03-22T18:09:42Z</time>
      </trkpt>
      <trkpt lat="37.1875167372" lon="-7.42223363787">
        <ele>11</ele>
        <time>2011-03-22T18:09:44Z</time>
      </trkpt>
      <trkpt lat="37.1875929286" lon="-7.4222681713">
        <ele>11</ele>
        <time>2011-03-22T18:09:46Z</time>
      </trkpt>
      <trkpt lat="37.1876683657" lon="-7.4222880364">
        <ele>11</ele>
        <time>2011-03-22T18:09:48Z</time>
      </trkpt>
      <trkpt lat="37.1877482452" lon="-7.42227144024">
        <ele>11</ele>
        <time>2011-03-22T18:09:50Z</time>
      </trkpt>
      <trkpt lat="37.1877880593" lon="-7.42223833173">
        <ele>11</ele>
        <time>2011-03-22T18:09:51Z</time>
      </trkpt>
      <trkpt lat="37.1878301364" lon="-7.42212995377">
        <ele>11</ele>
        <time>2011-03-22T18:09:53Z</time>
      </trkpt>
      <trkpt lat="37.1878206649" lon="-7.42202777841">
        <ele>11</ele>
        <time>2011-03-22T18:09:55Z</time>
      </trkpt>
      <trkpt lat="37.1878052422" lon="-7.42197572681">
        <ele>11</ele>
        <time>2011-03-22T18:09:56Z</time>
      </trkpt>
      <trkpt lat="37.1877720498" lon="-7.42187967023">
        <ele>11</ele>
        <time>2011-03-22T18:09:58Z</time>
      </trkpt>
      <trkpt lat="37.1877566271" lon="-7.42183600053">
        <ele>11</ele>
        <time>2011-03-22T18:09:59Z</time>
      </trkpt>
      <trkpt lat="37.1876777535" lon="-7.42173851904">
        <ele>11</ele>
        <time>2011-03-22T18:10:02Z</time>
      </trkpt>
      <trkpt lat="37.1876088542" lon="-7.421725108">
        <ele>11</ele>
        <time>2011-03-22T18:10:04Z</time>
      </trkpt>
      <trkpt lat="37.1875594848" lon="-7.42168814382">
        <ele>11</ele>
        <time>2011-03-22T18:10:06Z</time>
      </trkpt>
      <trkpt lat="37.1875371052" lon="-7.42165428094">
        <ele>11</ele>
        <time>2011-03-22T18:10:07Z</time>
      </trkpt>
      <trkpt lat="37.1874915076" lon="-7.42158948886">
        <ele>11</ele>
        <time>2011-03-22T18:10:09Z</time>
      </trkpt>
      <trkpt lat="37.1874600755" lon="-7.42151740452">
        <ele>11</ele>
        <time>2011-03-22T18:10:11Z</time>
      </trkpt>
      <trkpt lat="37.1874169087" lon="-7.421427802">
        <ele>11</ele>
        <time>2011-03-22T18:10:13Z</time>
      </trkpt>
      <trkpt lat="37.1873690481" lon="-7.42133400854">
        <ele>11</ele>
        <time>2011-03-22T18:10:15Z</time>
      </trkpt>
      <trkpt lat="37.1873347661" lon="-7.42123946071">
        <ele>11</ele>
        <time>2011-03-22T18:10:17Z</time>
      </trkpt>
      <trkpt lat="37.1873061838" lon="-7.42114072193">
        <ele>11</ele>
        <time>2011-03-22T18:10:19Z</time>
      </trkpt>
      <trkpt lat="37.1872937786" lon="-7.42104625792">
        <ele>11</ele>
        <time>2011-03-22T18:10:21Z</time>
      </trkpt>
      <trkpt lat="37.1872847262" lon="-7.42096813861">
        <ele>11</ele>
        <time>2011-03-22T18:10:23Z</time>
      </trkpt>
      <trkpt lat="37.1872720695" lon="-7.42085431241">
        <ele>11</ele>
        <time>2011-03-22T18:10:25Z</time>
      </trkpt>
      <trkpt lat="37.1872750032" lon="-7.42080184171">
        <ele>11</ele>
        <time>2011-03-22T18:10:26Z</time>
      </trkpt>
      <trkpt lat="37.1872636038" lon="-7.42070117509">
        <ele>11</ele>
        <time>2011-03-22T18:10:28Z</time>
      </trkpt>
      <trkpt lat="37.1872249632" lon="-7.42061115349">
        <ele>11</ele>
        <time>2011-03-22T18:10:30Z</time>
      </trkpt>
      <trkpt lat="37.1872017454" lon="-7.42056966308">
        <ele>11</ele>
        <time>2011-03-22T18:10:31Z</time>
      </trkpt>
      <trkpt lat="37.1871683854" lon="-7.4204876881">
        <ele>11</ele>
        <time>2011-03-22T18:10:33Z</time>
      </trkpt>
      <trkpt lat="37.1871555611" lon="-7.42040143835">
        <ele>11</ele>
        <time>2011-03-22T18:10:35Z</time>
      </trkpt>
      <trkpt lat="37.1871479336" lon="-7.42029951445">
        <ele>11</ele>
        <time>2011-03-22T18:10:37Z</time>
      </trkpt>
      <trkpt lat="37.1871430721" lon="-7.4202177071">
        <ele>11</ele>
        <time>2011-03-22T18:10:39Z</time>
      </trkpt>
      <trkpt lat="37.1871330138" lon="-7.42014134799">
        <ele>11</ele>
        <time>2011-03-22T18:10:41Z</time>
      </trkpt>
      <trkpt lat="37.1871211115" lon="-7.42009759447">
        <ele>11</ele>
        <time>2011-03-22T18:10:42Z</time>
      </trkpt>
      <trkpt lat="37.1870289944" lon="-7.42003481404">
        <ele>11</ele>
        <time>2011-03-22T18:10:45Z</time>
      </trkpt>
      <trkpt lat="37.1869408168" lon="-7.42000581267">
        <ele>11</ele>
        <time>2011-03-22T18:10:47Z</time>
      </trkpt>
      <trkpt lat="37.1868626975" lon="-7.42000396865">
        <ele>11</ele>
        <time>2011-03-22T18:10:49Z</time>
      </trkpt>
      <trkpt lat="37.1867982407" lon="-7.4200200619">
        <ele>11</ele>
        <time>2011-03-22T18:10:51Z</time>
      </trkpt>
      <trkpt lat="37.1867394836" lon="-7.42004361504">
        <ele>11.2</ele>
        <time>2011-03-22T18:10:53Z</time>
      </trkpt>
      <trkpt lat="37.1866860909" lon="-7.42007152677">
        <ele>11.6</ele>
        <time>2011-03-22T18:10:55Z</time>
      </trkpt>
      <trkpt lat="37.1866138389" lon="-7.42009575046">
        <ele>12</ele>
        <time>2011-03-22T18:10:58Z</time>
      </trkpt>
      <trkpt lat="37.1865513099" lon="-7.42010857476">
        <ele>12.2</ele>
        <time>2011-03-22T18:11:00Z</time>
      </trkpt>
      <trkpt lat="37.1864775492" lon="-7.42014143181">
        <ele>12.4</ele>
        <time>2011-03-22T18:11:02Z</time>
      </trkpt>
      <trkpt lat="37.1863751224" lon="-7.42014419784">
        <ele>12.6</ele>
        <time>2011-03-22T18:11:04Z</time>
      </trkpt>
      <trkpt lat="37.1862891241" lon="-7.4201541723">
        <ele>12.8</ele>
        <time>2011-03-22T18:11:06Z</time>
      </trkpt>
      <trkpt lat="37.1862552612" lon="-7.42017856363">
        <ele>13</ele>
        <time>2011-03-22T18:11:07Z</time>
      </trkpt>
      <trkpt lat="37.1862223203" lon="-7.42027252473">
        <ele>13.4</ele>
        <time>2011-03-22T18:11:09Z</time>
      </trkpt>
      <trkpt lat="37.1862132679" lon="-7.42037637647">
        <ele>13.8</ele>
        <time>2011-03-22T18:11:11Z</time>
      </trkpt>
      <trkpt lat="37.1862113401" lon="-7.42042775752">
        <ele>14</ele>
        <time>2011-03-22T18:11:12Z</time>
      </trkpt>
      <trkpt lat="37.1862024552" lon="-7.42047670781">
        <ele>14</ele>
        <time>2011-03-22T18:11:13Z</time>
      </trkpt>
      <trkpt lat="37.1861739568" lon="-7.42057368639">
        <ele>14.2</ele>
        <time>2011-03-22T18:11:15Z</time>
      </trkpt>
      <trkpt lat="37.186142357" lon="-7.42067669995">
        <ele>14.4</ele>
        <time>2011-03-22T18:11:17Z</time>
      </trkpt>
      <trkpt lat="37.1861225757" lon="-7.42073093084">
        <ele>14.6</ele>
        <time>2011-03-22T18:11:18Z</time>
      </trkpt>
      <trkpt lat="37.1860932391" lon="-7.42088767237">
        <ele>14.6</ele>
        <time>2011-03-22T18:11:21Z</time>
      </trkpt>
      <trkpt lat="37.186073374" lon="-7.42098590824">
        <ele>14.8</ele>
        <time>2011-03-22T18:11:23Z</time>
      </trkpt>
      <trkpt lat="37.1860578675" lon="-7.42103452326">
        <ele>14.8</ele>
        <time>2011-03-22T18:11:24Z</time>
      </trkpt>
      <trkpt lat="37.1860442888" lon="-7.4211428174">
        <ele>14.8</ele>
        <time>2011-03-22T18:11:26Z</time>
      </trkpt>
      <trkpt lat="37.1860587895" lon="-7.4212490999">
        <ele>15</ele>
        <time>2011-03-22T18:11:28Z</time>
      </trkpt>
      <trkpt lat="37.1860686801" lon="-7.42129754728">
        <ele>15</ele>
        <time>2011-03-22T18:11:29Z</time>
      </trkpt>
      <trkpt lat="37.1860908083" lon="-7.42134859305">
        <ele>15</ele>
        <time>2011-03-22T18:11:30Z</time>
      </trkpt>
      <trkpt lat="37.1861541755" lon="-7.42141866573">
        <ele>15</ele>
        <time>2011-03-22T18:11:32Z</time>
      </trkpt>
      <trkpt lat="37.1863130125" lon="-7.42152813335">
        <ele>15</ele>
        <time>2011-03-22T18:11:36Z</time>
      </trkpt>
      <trkpt lat="37.1863921376" lon="-7.42157658073">
        <ele>15</ele>
        <time>2011-03-22T18:11:38Z</time>
      </trkpt>
      <trkpt lat="37.1864279283" lon="-7.42159510473">
        <ele>15.2</ele>
        <time>2011-03-22T18:11:39Z</time>
      </trkpt>
      <trkpt lat="37.1865042875" lon="-7.42161974751">
        <ele>15.2</ele>
        <time>2011-03-22T18:11:41Z</time>
      </trkpt>
      <trkpt lat="37.1866147609" lon="-7.42168085157">
        <ele>15.2</ele>
        <time>2011-03-22T18:11:44Z</time>
      </trkpt>
      <trkpt lat="37.1866640465" lon="-7.42170012994">
        <ele>15.2</ele>
        <time>2011-03-22T18:11:46Z</time>
      </trkpt>
      <trkpt lat="37.1866925449" lon="-7.4217198274">
        <ele>15.2</ele>
        <time>2011-03-22T18:11:49Z</time>
      </trkpt>
      <trkpt lat="37.186718445" lon="-7.42172561091">
        <ele>15.2</ele>
        <time>2011-03-22T18:11:52Z</time>
      </trkpt>
      <trkpt lat="37.1867300958" lon="-7.42172728729">
        <ele>15.2</ele>
        <time>2011-03-22T18:11:53Z</time>
      </trkpt>
      <trkpt lat="37.1867631205" lon="-7.42173407663">
        <ele>15.2</ele>
        <time>2011-03-22T18:12:02Z</time>
      </trkpt>
      <trkpt lat="37.1867716701" lon="-7.42173608829">
        <ele>15.2</ele>
        <time>2011-03-22T18:12:03Z</time>
      </trkpt>
      <trkpt lat="37.1868212909" lon="-7.42175142716">
        <ele>15.2</ele>
        <time>2011-03-22T18:12:08Z</time>
      </trkpt>
      <trkpt lat="37.1868574169" lon="-7.42174975078">
        <ele>15.2</ele>
        <time>2011-03-22T18:12:12Z</time>
      </trkpt>
      <trkpt lat="37.1868891005" lon="-7.42176718514">
        <ele>15.2</ele>
        <time>2011-03-22T18:12:16Z</time>
      </trkpt>
      <trkpt lat="37.1868969795" lon="-7.42177162754">
        <ele>15.2</ele>
        <time>2011-03-22T18:12:17Z</time>
      </trkpt>
      <trkpt lat="37.1869286631" lon="-7.42181119011">
        <ele>15.2</ele>
        <time>2011-03-22T18:12:22Z</time>
      </trkpt>
      <trkpt lat="37.1869322673" lon="-7.42181119011">
        <ele>15.2</ele>
        <time>2011-03-22T18:12:23Z</time>
      </trkpt>
      <trkpt lat="37.1869062834" lon="-7.42178713406">
        <ele>15.2</ele>
        <time>2011-03-22T18:12:28Z</time>
      </trkpt>
      <trkpt lat="37.186865715" lon="-7.42176064725">
        <ele>15.2</ele>
        <time>2011-03-22T18:12:32Z</time>
      </trkpt>
      <trkpt lat="37.1868491188" lon="-7.42174690094">
        <ele>15.2</ele>
        <time>2011-03-22T18:12:34Z</time>
      </trkpt>
      <trkpt lat="37.1868062873" lon="-7.42173508246">
        <ele>15.2</ele>
        <time>2011-03-22T18:12:39Z</time>
      </trkpt>
      <trkpt lat="37.1867988274" lon="-7.42172435363">
        <ele>15.2</ele>
        <time>2011-03-22T18:12:43Z</time>
      </trkpt>
      <trkpt lat="37.1868154236" lon="-7.42172779021">
        <ele>15.2</ele>
        <time>2011-03-22T18:12:45Z</time>
      </trkpt>
      <trkpt lat="37.1868500408" lon="-7.42172846076">
        <ele>15.2</ele>
        <time>2011-03-22T18:12:47Z</time>
      </trkpt>
      <trkpt lat="37.1868789584" lon="-7.42174212325">
        <ele>15.2</ele>
        <time>2011-03-22T18:12:48Z</time>
      </trkpt>
      <trkpt lat="37.18693101" lon="-7.42179794671">
        <ele>15</ele>
        <time>2011-03-22T18:12:50Z</time>
      </trkpt>
      <trkpt lat="37.1870025914" lon="-7.4218570391">
        <ele>14.6</ele>
        <time>2011-03-22T18:12:52Z</time>
      </trkpt>
      <trkpt lat="37.1870382983" lon="-7.42188285536">
        <ele>14.4</ele>
        <time>2011-03-22T18:12:53Z</time>
      </trkpt>
      <trkpt lat="37.187113903" lon="-7.42192753088">
        <ele>14.2</ele>
        <time>2011-03-22T18:12:55Z</time>
      </trkpt>
      <trkpt lat="37.1871969677" lon="-7.42197581063">
        <ele>14</ele>
        <time>2011-03-22T18:12:57Z</time>
      </trkpt>
      <trkpt lat="37.1872709798" lon="-7.42204227909">
        <ele>13.8</ele>
        <time>2011-03-22T18:12:59Z</time>
      </trkpt>
      <trkpt lat="37.1873024958" lon="-7.42207857272">
        <ele>13.8</ele>
        <time>2011-03-22T18:13:00Z</time>
      </trkpt>
      <trkpt lat="37.1873627617" lon="-7.42214445445">
        <ele>13.6</ele>
        <time>2011-03-22T18:13:02Z</time>
      </trkpt>
      <trkpt lat="37.1873924336" lon="-7.42217077362">
        <ele>13.6</ele>
        <time>2011-03-22T18:13:03Z</time>
      </trkpt>
      <trkpt lat="37.1875129653" lon="-7.4222342246">
        <ele>13.4</ele>
        <time>2011-03-22T18:13:06Z</time>
      </trkpt>
      <trkpt lat="37.187592761" lon="-7.42226699783">
        <ele>13.4</ele>
        <time>2011-03-22T18:13:08Z</time>
      </trkpt>
      <trkpt lat="37.1876255342" lon="-7.42227998978">
        <ele>13.4</ele>
        <time>2011-03-22T18:13:09Z</time>
      </trkpt>
      <trkpt lat="37.1877407853" lon="-7.42228929369">
        <ele>13.2</ele>
        <time>2011-03-22T18:13:12Z</time>
      </trkpt>
      <trkpt lat="37.1877791744" lon="-7.42227211079">
        <ele>13.2</ele>
        <time>2011-03-22T18:13:13Z</time>
      </trkpt>
      <trkpt lat="37.1878193237" lon="-7.42213624019">
        <ele>13.2</ele>
        <time>2011-03-22T18:13:16Z</time>
      </trkpt>
      <trkpt lat="37.1878096007" lon="-7.42208544588">
        <ele>13.2</ele>
        <time>2011-03-22T18:13:17Z</time>
      </trkpt>
      <trkpt lat="37.1877850418" lon="-7.42198176178">
        <ele>13.2</ele>
        <time>2011-03-22T18:13:19Z</time>
      </trkpt>
      <trkpt lat="37.1877309785" lon="-7.42182812155">
        <ele>13.2</ele>
        <time>2011-03-22T18:13:22Z</time>
      </trkpt>
      <trkpt lat="37.1877045755" lon="-7.4217873017">
        <ele>13.2</ele>
        <time>2011-03-22T18:13:23Z</time>
      </trkpt>
      <trkpt lat="37.1876275459" lon="-7.42174681712">
        <ele>13.2</ele>
        <time>2011-03-22T18:13:25Z</time>
      </trkpt>
      <trkpt lat="37.1875219339" lon="-7.42165914244">
        <ele>13.2</ele>
        <time>2011-03-22T18:13:29Z</time>
      </trkpt>
      <trkpt lat="37.1874776775" lon="-7.42158915358">
        <ele>13.2</ele>
        <time>2011-03-22T18:13:31Z</time>
      </trkpt>
      <trkpt lat="37.1874601593" lon="-7.42155378196">
        <ele>13.2</ele>
        <time>2011-03-22T18:13:32Z</time>
      </trkpt>
      <trkpt lat="37.1873788549" lon="-7.42137038599">
        <ele>13.2</ele>
        <time>2011-03-22T18:13:36Z</time>
      </trkpt>
      <trkpt lat="37.18732739" lon="-7.42125982873">
        <ele>13.2</ele>
        <time>2011-03-22T18:13:38Z</time>
      </trkpt>
      <trkpt lat="37.187292689" lon="-7.42114591871">
        <ele>13.2</ele>
        <time>2011-03-22T18:13:40Z</time>
      </trkpt>
      <trkpt lat="37.1872788588" lon="-7.42109286128">
        <ele>13.2</ele>
        <time>2011-03-22T18:13:41Z</time>
      </trkpt>
      <trkpt lat="37.1872686329" lon="-7.42103921712">
        <ele>13.2</ele>
        <time>2011-03-22T18:13:42Z</time>
      </trkpt>
      <trkpt lat="37.1872610892" lon="-7.42098423186">
        <ele>13.2</ele>
        <time>2011-03-22T18:13:43Z</time>
      </trkpt>
      <trkpt lat="37.1872619274" lon="-7.42082681977">
        <ele>13.2</ele>
        <time>2011-03-22T18:13:46Z</time>
      </trkpt>
      <trkpt lat="37.187267208" lon="-7.42076873321">
        <ele>13.2</ele>
        <time>2011-03-22T18:13:47Z</time>
      </trkpt>
      <trkpt lat="37.1872497736" lon="-7.42060788455">
        <ele>13.2</ele>
        <time>2011-03-22T18:13:50Z</time>
      </trkpt>
      <trkpt lat="37.1872327584" lon="-7.42053596784">
        <ele>13.2</ele>
        <time>2011-03-22T18:13:52Z</time>
      </trkpt>
      <trkpt lat="37.1872108816" lon="-7.4204475388">
        <ele>13.2</ele>
        <time>2011-03-22T18:13:54Z</time>
      </trkpt>
      <trkpt lat="37.1872039246" lon="-7.42040353382">
        <ele>13.2</ele>
        <time>2011-03-22T18:13:55Z</time>
      </trkpt>
      <trkpt lat="37.1871962133" lon="-7.42026129298">
        <ele>13.2</ele>
        <time>2011-03-22T18:13:58Z</time>
      </trkpt>
      <trkpt lat="37.1871772702" lon="-7.42016356003">
        <ele>13.2</ele>
        <time>2011-03-22T18:14:00Z</time>
      </trkpt>
      <trkpt lat="37.1871543038" lon="-7.42008745238">
        <ele>13.2</ele>
        <time>2011-03-22T18:14:02Z</time>
      </trkpt>
      <trkpt lat="37.1871370371" lon="-7.42006565944">
        <ele>13.2</ele>
        <time>2011-03-22T18:14:03Z</time>
      </trkpt>
      <trkpt lat="37.1870580796" lon="-7.42003808298">
        <ele>13.2</ele>
        <time>2011-03-22T18:14:06Z</time>
      </trkpt>
      <trkpt lat="37.1869952153" lon="-7.42002483958">
        <ele>13.2</ele>
        <time>2011-03-22T18:14:08Z</time>
      </trkpt>
      <trkpt lat="37.1869244721" lon="-7.42002777325">
        <ele>13.2</ele>
        <time>2011-03-22T18:14:10Z</time>
      </trkpt>
      <trkpt lat="37.1868526392" lon="-7.42004788981">
        <ele>13.2</ele>
        <time>2011-03-22T18:14:12Z</time>
      </trkpt>
      <trkpt lat="37.1867908646" lon="-7.42006658144">
        <ele>13.2</ele>
        <time>2011-03-22T18:14:14Z</time>
      </trkpt>
      <trkpt lat="37.1867132482" lon="-7.42009030222">
        <ele>13.2</ele>
        <time>2011-03-22T18:14:17Z</time>
      </trkpt>
      <trkpt lat="37.1866384817" lon="-7.42011829777">
        <ele>13.6</ele>
        <time>2011-03-22T18:14:20Z</time>
      </trkpt>
      <trkpt lat="37.186575366" lon="-7.42015442376">
        <ele>14</ele>
        <time>2011-03-22T18:14:22Z</time>
      </trkpt>
      <trkpt lat="37.1864969114" lon="-7.4201872808">
        <ele>14.2</ele>
        <time>2011-03-22T18:14:24Z</time>
      </trkpt>
      <trkpt lat="37.186392892" lon="-7.42019180703">
        <ele>14.4</ele>
        <time>2011-03-22T18:14:26Z</time>
      </trkpt>
      <trkpt lat="37.1863006073" lon="-7.42020169767">
        <ele>14.6</ele>
        <time>2011-03-22T18:14:28Z</time>
      </trkpt>
      <trkpt lat="37.186270181" lon="-7.42022566991">
        <ele>14.6</ele>
        <time>2011-03-22T18:14:29Z</time>
      </trkpt>
      <trkpt lat="37.1862488071" lon="-7.42026305318">
        <ele>14.6</ele>
        <time>2011-03-22T18:14:30Z</time>
      </trkpt>
      <trkpt lat="37.1862011141" lon="-7.42056111354">
        <ele>15.6</ele>
        <time>2011-03-22T18:14:36Z</time>
      </trkpt>
      <trkpt lat="37.186164569" lon="-7.42065817595">
        <ele>15.8</ele>
        <time>2011-03-22T18:14:38Z</time>
      </trkpt>
      <trkpt lat="37.1861265152" lon="-7.42076236296">
        <ele>16.2</ele>
        <time>2011-03-22T18:14:40Z</time>
      </trkpt>
      <trkpt lat="37.1861121822" lon="-7.42081801878">
        <ele>16.2</ele>
        <time>2011-03-22T18:14:41Z</time>
      </trkpt>
      <trkpt lat="37.1861003637" lon="-7.42087468042">
        <ele>16.4</ele>
        <time>2011-03-22T18:14:42Z</time>
      </trkpt>
      <trkpt lat="37.1860732902" lon="-7.42097861598">
        <ele>16.6</ele>
        <time>2011-03-22T18:14:44Z</time>
      </trkpt>
      <trkpt lat="37.1860350687" lon="-7.42113225621">
        <ele>16.8</ele>
        <time>2011-03-22T18:14:47Z</time>
      </trkpt>
      <trkpt lat="37.1860377509" lon="-7.42124985427">
        <ele>16.8</ele>
        <time>2011-03-22T18:14:49Z</time>
      </trkpt>
      <trkpt lat="37.1860763076" lon="-7.42135571766">
        <ele>16.8</ele>
        <time>2011-03-22T18:14:51Z</time>
      </trkpt>
      <trkpt lat="37.1861538402" lon="-7.42142654472">
        <ele>17</ele>
        <time>2011-03-22T18:14:53Z</time>
      </trkpt>
      <trkpt lat="37.1861955821" lon="-7.42145713865">
        <ele>17</ele>
        <time>2011-03-22T18:14:54Z</time>
      </trkpt>
      <trkpt lat="37.1862750425" lon="-7.42151455467">
        <ele>17</ele>
        <time>2011-03-22T18:14:56Z</time>
      </trkpt>
      <trkpt lat="37.1863116714" lon="-7.42153198902">
        <ele>17</ele>
        <time>2011-03-22T18:14:57Z</time>
      </trkpt>
      <trkpt lat="37.1863846777" lon="-7.42157339561">
        <ele>17</ele>
        <time>2011-03-22T18:14:59Z</time>
      </trkpt>
      <trkpt lat="37.1864571812" lon="-7.42161538893">
        <ele>17</ele>
        <time>2011-03-22T18:15:01Z</time>
      </trkpt>
      <trkpt lat="37.1865264157" lon="-7.42165327511">
        <ele>17.2</ele>
        <time>2011-03-22T18:15:03Z</time>
      </trkpt>
      <trkpt lat="37.1865959854" lon="-7.42169040693">
        <ele>17.2</ele>
        <time>2011-03-22T18:15:05Z</time>
      </trkpt>
      <trkpt lat="37.1866691594" lon="-7.42172711965">
        <ele>17.2</ele>
        <time>2011-03-22T18:15:07Z</time>
      </trkpt>
      <trkpt lat="37.1867491228" lon="-7.42175327118">
        <ele>17.2</ele>
        <time>2011-03-22T18:15:09Z</time>
      </trkpt>
      <trkpt lat="37.1867955585" lon="-7.42176408383">
        <ele>17.2</ele>
        <time>2011-03-22T18:15:10Z</time>
      </trkpt>
      <trkpt lat="37.186924975" lon="-7.42182895974">
        <ele>17.2</ele>
        <time>2011-03-22T18:15:13Z</time>
      </trkpt>
      <trkpt lat="37.1869636156" lon="-7.42186181679">
        <ele>17.2</ele>
        <time>2011-03-22T18:15:14Z</time>
      </trkpt>
      <trkpt lat="37.1870885897" lon="-7.42194580342">
        <ele>17.2</ele>
        <time>2011-03-22T18:15:17Z</time>
      </trkpt>
      <trkpt lat="37.1871297448" lon="-7.4219681831">
        <ele>17.2</ele>
        <time>2011-03-22T18:15:18Z</time>
      </trkpt>
      <trkpt lat="37.1872067745" lon="-7.42201604375">
        <ele>17.2</ele>
        <time>2011-03-22T18:15:20Z</time>
      </trkpt>
      <trkpt lat="37.1872419785" lon="-7.42204680532">
        <ele>17.2</ele>
        <time>2011-03-22T18:15:21Z</time>
      </trkpt>
      <trkpt lat="37.1873414716" lon="-7.42214059878">
        <ele>17.2</ele>
        <time>2011-03-22T18:15:24Z</time>
      </trkpt>
      <trkpt lat="37.1873697186" lon="-7.42216423574">
        <ele>17.2</ele>
        <time>2011-03-22T18:15:25Z</time>
      </trkpt>
      <trkpt lat="37.1874446528" lon="-7.42220958182">
        <ele>17.2</ele>
        <time>2011-03-22T18:15:27Z</time>
      </trkpt>
      <trkpt lat="37.1874850536" lon="-7.42223263204">
        <ele>17.2</ele>
        <time>2011-03-22T18:15:28Z</time>
      </trkpt>
      <trkpt lat="37.1876136319" lon="-7.42228719821">
        <ele>17.2</ele>
        <time>2011-03-22T18:15:31Z</time>
      </trkpt>
      <trkpt lat="37.1876509314" lon="-7.42229759177">
        <ele>17.2</ele>
        <time>2011-03-22T18:15:32Z</time>
      </trkpt>
      <trkpt lat="37.1877650929" lon="-7.42228208525">
        <ele>17.2</ele>
        <time>2011-03-22T18:15:35Z</time>
      </trkpt>
      <trkpt lat="37.1878272866" lon="-7.42220723489">
        <ele>17.2</ele>
        <time>2011-03-22T18:15:37Z</time>
      </trkpt>
      <trkpt lat="37.1878240176" lon="-7.42210380224">
        <ele>17.2</ele>
        <time>2011-03-22T18:15:39Z</time>
      </trkpt>
      <trkpt lat="37.1878101875" lon="-7.42205032572">
        <ele>17.2</ele>
        <time>2011-03-22T18:15:40Z</time>
      </trkpt>
      <trkpt lat="37.1877715469" lon="-7.4218958473">
        <ele>17.2</ele>
        <time>2011-03-22T18:15:43Z</time>
      </trkpt>
      <trkpt lat="37.1877565433" lon="-7.42184966303">
        <ele>17.2</ele>
        <time>2011-03-22T18:15:44Z</time>
      </trkpt>
      <trkpt lat="37.1877256979" lon="-7.42177665668">
        <ele>16.8</ele>
        <time>2011-03-22T18:15:46Z</time>
      </trkpt>
      <trkpt lat="37.187682112" lon="-7.42174312908">
        <ele>16.4</ele>
        <time>2011-03-22T18:15:49Z</time>
      </trkpt>
      <trkpt lat="37.1876433038" lon="-7.42174882877">
        <ele>16</ele>
        <time>2011-03-22T18:15:52Z</time>
      </trkpt>
      <trkpt lat="37.1876303957" lon="-7.42175042134">
        <ele>15.8</ele>
        <time>2011-03-22T18:15:53Z</time>
      </trkpt>
      <trkpt lat="37.1876048309" lon="-7.42174790677">
        <ele>15.8</ele>
        <time>2011-03-22T18:15:55Z</time>
      </trkpt>
      <trkpt lat="37.1875652684" lon="-7.4217096853">
        <ele>15.2</ele>
        <time>2011-03-22T18:15:59Z</time>
      </trkpt>
      <trkpt lat="37.1875521926" lon="-7.42169652572">
        <ele>15</ele>
        <time>2011-03-22T18:16:00Z</time>
      </trkpt>
      <trkpt lat="37.1875267954" lon="-7.42167707971">
        <ele>14.6</ele>
        <time>2011-03-22T18:16:02Z</time>
      </trkpt>
      <trkpt lat="37.1874988837" lon="-7.42163047635">
        <ele>14.2</ele>
        <time>2011-03-22T18:16:06Z</time>
      </trkpt>
      <trkpt lat="37.1874711396" lon="-7.42157976585">
        <ele>13.8</ele>
        <time>2011-03-22T18:16:10Z</time>
      </trkpt>
      <trkpt lat="37.1874547949" lon="-7.42153249194">
        <ele>13.6</ele>
        <time>2011-03-22T18:16:13Z</time>
      </trkpt>
      <trkpt lat="37.1874350974" lon="-7.42148404455">
        <ele>13.4</ele>
        <time>2011-03-22T18:16:16Z</time>
      </trkpt>
      <trkpt lat="37.1874265479" lon="-7.42145764157">
        <ele>13.4</ele>
        <time>2011-03-22T18:16:18Z</time>
      </trkpt>
      <trkpt lat="37.1874239495" lon="-7.42142788582">
        <ele>13.2</ele>
        <time>2011-03-22T18:16:20Z</time>
      </trkpt>
      <trkpt lat="37.1873988876" lon="-7.4213642672">
        <ele>13</ele>
        <time>2011-03-22T18:16:24Z</time>
      </trkpt>
      <trkpt lat="37.1873818724" lon="-7.42132286062">
        <ele>12.4</ele>
        <time>2011-03-22T18:16:27Z</time>
      </trkpt>
      <trkpt lat="37.1873643542" lon="-7.42127717926">
        <ele>12</ele>
        <time>2011-03-22T18:16:30Z</time>
      </trkpt>
      <trkpt lat="37.1873603309" lon="-7.4212641035">
        <ele>12</ele>
        <time>2011-03-22T18:16:31Z</time>
      </trkpt>
      <trkpt lat="37.1873384541" lon="-7.42120241271">
        <ele>11.6</ele>
        <time>2011-03-22T18:16:35Z</time>
      </trkpt>
      <trkpt lat="37.187331581" lon="-7.42117215405">
        <ele>11.4</ele>
        <time>2011-03-22T18:16:37Z</time>
      </trkpt>
      <trkpt lat="37.1873204331" lon="-7.42111582769">
        <ele>11.2</ele>
        <time>2011-03-22T18:16:42Z</time>
      </trkpt>
      <trkpt lat="37.1873150686" lon="-7.42109772278">
        <ele>11.2</ele>
        <time>2011-03-22T18:16:44Z</time>
      </trkpt>
      <trkpt lat="37.1873123864" lon="-7.42103066758">
        <ele>11.2</ele>
        <time>2011-03-22T18:16:47Z</time>
      </trkpt>
      <trkpt lat="37.1873132246" lon="-7.42099009919">
        <ele>11.2</ele>
        <time>2011-03-22T18:16:48Z</time>
      </trkpt>
      <trkpt lat="37.1873140628" lon="-7.42087577007">
        <ele>11.2</ele>
        <time>2011-03-22T18:16:50Z</time>
      </trkpt>
      <trkpt lat="37.1872977181" lon="-7.42076227914">
        <ele>11</ele>
        <time>2011-03-22T18:16:52Z</time>
      </trkpt>
      <trkpt lat="37.1872749193" lon="-7.42064778239">
        <ele>11</ele>
        <time>2011-03-22T18:16:54Z</time>
      </trkpt>
      <trkpt lat="37.1872542999" lon="-7.42054971416">
        <ele>11</ele>
        <time>2011-03-22T18:16:56Z</time>
      </trkpt>
      <trkpt lat="37.1872314173" lon="-7.42044561096">
        <ele>11</ele>
        <time>2011-03-22T18:16:58Z</time>
      </trkpt>
      <trkpt lat="37.1872240412" lon="-7.42039272117">
        <ele>11</ele>
        <time>2011-03-22T18:16:59Z</time>
      </trkpt>
      <trkpt lat="37.187206523" lon="-7.42028241537">
        <ele>11</ele>
        <time>2011-03-22T18:17:01Z</time>
      </trkpt>
      <trkpt lat="37.1871844786" lon="-7.42022458026">
        <ele>11</ele>
        <time>2011-03-22T18:17:02Z</time>
      </trkpt>
      <trkpt lat="37.1871473468" lon="-7.42012667967">
        <ele>11</ele>
        <time>2011-03-22T18:17:04Z</time>
      </trkpt>
      <trkpt lat="37.1870786991" lon="-7.42008217178">
        <ele>11</ele>
        <time>2011-03-22T18:17:06Z</time>
      </trkpt>
      <trkpt lat="37.1869992387" lon="-7.42007110767">
        <ele>11</ele>
        <time>2011-03-22T18:17:08Z</time>
      </trkpt>
      <trkpt lat="37.1869191077" lon="-7.42006591089">
        <ele>11</ele>
        <time>2011-03-22T18:17:10Z</time>
      </trkpt>
      <trkpt lat="37.1868362107" lon="-7.42007446043">
        <ele>11</ele>
        <time>2011-03-22T18:17:12Z</time>
      </trkpt>
      <trkpt lat="37.1868000009" lon="-7.42008041158">
        <ele>11.2</ele>
        <time>2011-03-22T18:17:13Z</time>
      </trkpt>
      <trkpt lat="37.1867401541" lon="-7.4200902184">
        <ele>11.6</ele>
        <time>2011-03-22T18:17:15Z</time>
      </trkpt>
      <trkpt lat="37.1867123262" lon="-7.42009541518">
        <ele>11.6</ele>
        <time>2011-03-22T18:17:16Z</time>
      </trkpt>
      <trkpt lat="37.1866238133" lon="-7.42015023281">
        <ele>12</ele>
        <time>2011-03-22T18:17:19Z</time>
      </trkpt>
      <trkpt lat="37.1865444368" lon="-7.4201872808">
        <ele>12.2</ele>
        <time>2011-03-22T18:17:21Z</time>
      </trkpt>
      <trkpt lat="37.1864416747" lon="-7.42021393525">
        <ele>12.4</ele>
        <time>2011-03-22T18:17:23Z</time>
      </trkpt>
      <trkpt lat="37.1863844263" lon="-7.4202128456">
        <ele>12.4</ele>
        <time>2011-03-22T18:17:24Z</time>
      </trkpt>
      <trkpt lat="37.1862918063" lon="-7.42023363271">
        <ele>13</ele>
        <time>2011-03-22T18:17:26Z</time>
      </trkpt>
      <trkpt lat="37.1862369048" lon="-7.42030772871">
        <ele>13.4</ele>
        <time>2011-03-22T18:17:28Z</time>
      </trkpt>
      <trkpt lat="37.1862323786" lon="-7.42046036311">
        <ele>13.8</ele>
        <time>2011-03-22T18:17:31Z</time>
      </trkpt>
      <trkpt lat="37.1862102504" lon="-7.42055633586">
        <ele>14.2</ele>
        <time>2011-03-22T18:17:33Z</time>
      </trkpt>
      <trkpt lat="37.1861928999" lon="-7.42060620817">
        <ele>14.2</ele>
        <time>2011-03-22T18:17:34Z</time>
      </trkpt>
      <trkpt lat="37.1861612163" lon="-7.42070788061">
        <ele>14.4</ele>
        <time>2011-03-22T18:17:36Z</time>
      </trkpt>
      <trkpt lat="37.1861440334" lon="-7.42075540599">
        <ele>14.4</ele>
        <time>2011-03-22T18:17:37Z</time>
      </trkpt>
      <trkpt lat="37.1861056443" lon="-7.42091357244">
        <ele>14.6</ele>
        <time>2011-03-22T18:17:40Z</time>
      </trkpt>
      <trkpt lat="37.1860939935" lon="-7.42096813861">
        <ele>14.8</ele>
        <time>2011-03-22T18:17:41Z</time>
      </trkpt>
      <trkpt lat="37.1860678419" lon="-7.42106712885">
        <ele>14.8</ele>
        <time>2011-03-22T18:17:43Z</time>
      </trkpt>
      <trkpt lat="37.1860592924" lon="-7.42110996036">
        <ele>14.8</ele>
        <time>2011-03-22T18:17:44Z</time>
      </trkpt>
      <trkpt lat="37.1860570293" lon="-7.42119562337">
        <ele>15</ele>
        <time>2011-03-22T18:17:46Z</time>
      </trkpt>
      <trkpt lat="37.1860726196" lon="-7.42129603854">
        <ele>15</ele>
        <time>2011-03-22T18:17:48Z</time>
      </trkpt>
      <trkpt lat="37.1861146967" lon="-7.42138010899">
        <ele>15</ele>
        <time>2011-03-22T18:17:50Z</time>
      </trkpt>
      <trkpt lat="37.1861887089" lon="-7.42142897547">
        <ele>15</ele>
        <time>2011-03-22T18:17:52Z</time>
      </trkpt>
      <trkpt lat="37.1862242482" lon="-7.42145244479">
        <ele>15</ele>
        <time>2011-03-22T18:17:53Z</time>
      </trkpt>
      <trkpt lat="37.1863307821" lon="-7.42152109255">
        <ele>15</ele>
        <time>2011-03-22T18:17:56Z</time>
      </trkpt>
      <trkpt lat="37.1863969991" lon="-7.42156107421">
        <ele>15.2</ele>
        <time>2011-03-22T18:17:58Z</time>
      </trkpt>
      <trkpt lat="37.1864684129" lon="-7.42160466009">
        <ele>15.2</ele>
        <time>2011-03-22T18:18:00Z</time>
      </trkpt>
      <trkpt lat="37.1865420898" lon="-7.42164581522">
        <ele>15.2</ele>
        <time>2011-03-22T18:18:02Z</time>
      </trkpt>
      <trkpt lat="37.1866093127" lon="-7.42168596452">
        <ele>15.2</ele>
        <time>2011-03-22T18:18:04Z</time>
      </trkpt>
      <trkpt lat="37.1866869291" lon="-7.42172301252">
        <ele>15.2</ele>
        <time>2011-03-22T18:18:06Z</time>
      </trkpt>
      <trkpt lat="37.1867560797" lon="-7.4217453922">
        <ele>15.2</ele>
        <time>2011-03-22T18:18:08Z</time>
      </trkpt>
      <trkpt lat="37.1868326065" lon="-7.42176793951">
        <ele>15.2</ele>
        <time>2011-03-22T18:18:10Z</time>
      </trkpt>
      <trkpt lat="37.1869071216" lon="-7.42181848236">
        <ele>15.2</ele>
        <time>2011-03-22T18:18:12Z</time>
      </trkpt>
      <trkpt lat="37.1869744282" lon="-7.42187195889">
        <ele>15.2</ele>
        <time>2011-03-22T18:18:14Z</time>
      </trkpt>
      <trkpt lat="37.1870514579" lon="-7.42191940044">
        <ele>15.2</ele>
        <time>2011-03-22T18:18:16Z</time>
      </trkpt>
      <trkpt lat="37.1871314212" lon="-7.4219646627">
        <ele>15.2</ele>
        <time>2011-03-22T18:18:18Z</time>
      </trkpt>
      <trkpt lat="37.1872073612" lon="-7.42200917059">
        <ele>15.2</ele>
        <time>2011-03-22T18:18:20Z</time>
      </trkpt>
      <trkpt lat="37.1872399668" lon="-7.42203934543">
        <ele>15.2</ele>
        <time>2011-03-22T18:18:21Z</time>
      </trkpt>
      <trkpt lat="37.1873009032" lon="-7.42210631681">
        <ele>15.2</ele>
        <time>2011-03-22T18:18:23Z</time>
      </trkpt>
      <trkpt lat="37.1873279768" lon="-7.42213766512">
        <ele>15.2</ele>
        <time>2011-03-22T18:18:24Z</time>
      </trkpt>
      <trkpt lat="37.1874216864" lon="-7.42221368895">
        <ele>15.2</ele>
        <time>2011-03-22T18:18:27Z</time>
      </trkpt>
      <trkpt lat="37.1874998895" lon="-7.42225735865">
        <ele>15.2</ele>
        <time>2011-03-22T18:18:29Z</time>
      </trkpt>
      <trkpt lat="37.1875777574" lon="-7.42228728203">
        <ele>15.2</ele>
        <time>2011-03-22T18:18:31Z</time>
      </trkpt>
      <trkpt lat="37.1876869735" lon="-7.42231519376">
        <ele>15.2</ele>
        <time>2011-03-22T18:18:34Z</time>
      </trkpt>
      <trkpt lat="37.187724273" lon="-7.42231351738">
        <ele>15.2</ele>
        <time>2011-03-22T18:18:35Z</time>
      </trkpt>
      <trkpt lat="37.1878012188" lon="-7.42218284356">
        <ele>15.2</ele>
        <time>2011-03-22T18:18:38Z</time>
      </trkpt>
      <trkpt lat="37.1877796774" lon="-7.4220736274">
        <ele>15.2</ele>
        <time>2011-03-22T18:18:40Z</time>
      </trkpt>
      <trkpt lat="37.1877526876" lon="-7.42197690027">
        <ele>15.2</ele>
        <time>2011-03-22T18:18:42Z</time>
      </trkpt>
      <trkpt lat="37.1877396119" lon="-7.42193222475">
        <ele>15.2</ele>
        <time>2011-03-22T18:18:43Z</time>
      </trkpt>
      <trkpt lat="37.1877084312" lon="-7.42184438243">
        <ele>15.2</ele>
        <time>2011-03-22T18:18:45Z</time>
      </trkpt>
      <trkpt lat="37.1876854648" lon="-7.42180071274">
        <ele>15.2</ele>
        <time>2011-03-22T18:18:46Z</time>
      </trkpt>
      <trkpt lat="37.1876351734" lon="-7.42175486374">
        <ele>15.2</ele>
        <time>2011-03-22T18:18:48Z</time>
      </trkpt>
      <trkpt lat="37.1875861393" lon="-7.42174606275">
        <ele>15.2</ele>
        <time>2011-03-22T18:18:50Z</time>
      </trkpt>
      <trkpt lat="37.1875194194" lon="-7.42170960148">
        <ele>15.2</ele>
        <time>2011-03-22T18:18:53Z</time>
      </trkpt>
      <trkpt lat="37.1875021527" lon="-7.4216827794">
        <ele>15.2</ele>
        <time>2011-03-22T18:18:54Z</time>
      </trkpt>
      <trkpt lat="37.1874550464" lon="-7.42159267398">
        <ele>14.6</ele>
        <time>2011-03-22T18:18:57Z</time>
      </trkpt>
      <trkpt lat="37.18743208" lon="-7.42153316249">
        <ele>14.4</ele>
        <time>2011-03-22T18:18:59Z</time>
      </trkpt>
      <trkpt lat="37.1874162382" lon="-7.42145286389">
        <ele>14.2</ele>
        <time>2011-03-22T18:19:01Z</time>
      </trkpt>
      <trkpt lat="37.187388997" lon="-7.42137432548">
        <ele>14</ele>
        <time>2011-03-22T18:19:03Z</time>
      </trkpt>
      <trkpt lat="37.1873540445" lon="-7.42129494889">
        <ele>13.8</ele>
        <time>2011-03-22T18:19:05Z</time>
      </trkpt>
      <trkpt lat="37.1873231153" lon="-7.42120249653">
        <ele>13.6</ele>
        <time>2011-03-22T18:19:07Z</time>
      </trkpt>
      <trkpt lat="37.1872990592" lon="-7.42111490568">
        <ele>13.6</ele>
        <time>2011-03-22T18:19:09Z</time>
      </trkpt>
      <trkpt lat="37.187291264" lon="-7.42101960347">
        <ele>13.4</ele>
        <time>2011-03-22T18:19:11Z</time>
      </trkpt>
      <trkpt lat="37.18728481" lon="-7.42097098845">
        <ele>13.4</ele>
        <time>2011-03-22T18:19:12Z</time>
      </trkpt>
      <trkpt lat="37.1873071058" lon="-7.42082975344">
        <ele>13.4</ele>
        <time>2011-03-22T18:19:15Z</time>
      </trkpt>
      <trkpt lat="37.1873211874" lon="-7.42073109848">
        <ele>13.4</ele>
        <time>2011-03-22T18:19:17Z</time>
      </trkpt>
      <trkpt lat="37.1872930242" lon="-7.4206319406">
        <ele>13.2</ele>
        <time>2011-03-22T18:19:19Z</time>
      </trkpt>
      <trkpt lat="37.1872519529" lon="-7.42054367919">
        <ele>13.2</ele>
        <time>2011-03-22T18:19:21Z</time>
      </trkpt>
      <trkpt lat="37.1872288189" lon="-7.4204471197">
        <ele>13.2</ele>
        <time>2011-03-22T18:19:23Z</time>
      </trkpt>
      <trkpt lat="37.1872209399" lon="-7.42041300537">
        <ele>13.2</ele>
        <time>2011-03-22T18:19:24Z</time>
      </trkpt>
      <trkpt lat="37.1872194312" lon="-7.42032214558">
        <ele>13.2</ele>
        <time>2011-03-22T18:19:26Z</time>
      </trkpt>
      <trkpt lat="37.1872076127" lon="-7.42022458026">
        <ele>13.2</ele>
        <time>2011-03-22T18:19:28Z</time>
      </trkpt>
      <trkpt lat="37.1871823832" lon="-7.4201307868">
        <ele>13.2</ele>
        <time>2011-03-22T18:19:30Z</time>
      </trkpt>
      <trkpt lat="37.187164865" lon="-7.42008728474">
        <ele>13.2</ele>
        <time>2011-03-22T18:19:31Z</time>
      </trkpt>
      <trkpt lat="37.1870787829" lon="-7.42004059755">
        <ele>13.2</ele>
        <time>2011-03-22T18:19:34Z</time>
      </trkpt>
      <trkpt lat="37.1870147452" lon="-7.42002525868">
        <ele>13.2</ele>
        <time>2011-03-22T18:19:36Z</time>
      </trkpt>
      <trkpt lat="37.1869581673" lon="-7.42001084181">
        <ele>13.2</ele>
        <time>2011-03-22T18:19:38Z</time>
      </trkpt>
      <trkpt lat="37.1868901901" lon="-7.42000774051">
        <ele>13.2</ele>
        <time>2011-03-22T18:19:40Z</time>
      </trkpt>
      <trkpt lat="37.1868077122" lon="-7.42002106773">
        <ele>13.4</ele>
        <time>2011-03-22T18:19:43Z</time>
      </trkpt>
      <trkpt lat="37.1867404056" lon="-7.4200385859">
        <ele>13.8</ele>
        <time>2011-03-22T18:19:46Z</time>
      </trkpt>
      <trkpt lat="37.1866947242" lon="-7.4200606303">
        <ele>14.2</ele>
        <time>2011-03-22T18:19:49Z</time>
      </trkpt>
      <trkpt lat="37.1866943051" lon="-7.42005752899">
        <ele>14.4</ele>
        <time>2011-03-22T18:19:50Z</time>
      </trkpt>
      <trkpt lat="37.1867212948" lon="-7.42007228114">
        <ele>20</ele>
        <time>2011-03-22T18:20:17Z</time>
      </trkpt>
      <trkpt lat="37.186715679" lon="-7.42009214624">
        <ele>21.6</ele>
        <time>2011-03-22T18:20:29Z</time>
      </trkpt>
      <trkpt lat="37.1866891084" lon="-7.42011117315">
        <ele>22.2</ele>
        <time>2011-03-22T18:20:32Z</time>
      </trkpt>
      <trkpt lat="37.1866780442" lon="-7.42011460973">
        <ele>22.4</ele>
        <time>2011-03-22T18:20:33Z</time>
      </trkpt>
      <trkpt lat="37.1866334525" lon="-7.42013615121">
        <ele>22.8</ele>
        <time>2011-03-22T18:20:37Z</time>
      </trkpt>
      <trkpt lat="37.1866135036" lon="-7.42014830497">
        <ele>23</ele>
        <time>2011-03-22T18:20:39Z</time>
      </trkpt>
      <trkpt lat="37.186568409" lon="-7.42015090336">
        <ele>23.2</ele>
        <time>2011-03-22T18:20:44Z</time>
      </trkpt>
      <trkpt lat="37.1865223085" lon="-7.42015274738">
        <ele>23.2</ele>
        <time>2011-03-22T18:20:46Z</time>
      </trkpt>
      <trkpt lat="37.1863879467" lon="-7.42017244484">
        <ele>23.4</ele>
        <time>2011-03-22T18:20:49Z</time>
      </trkpt>
      <trkpt lat="37.186350731" lon="-7.42020220059">
        <ele>23.4</ele>
        <time>2011-03-22T18:20:50Z</time>
      </trkpt>
      <trkpt lat="37.1863094083" lon="-7.42029708369">
        <ele>23.4</ele>
        <time>2011-03-22T18:20:52Z</time>
      </trkpt>
      <trkpt lat="37.1862814966" lon="-7.42041635813">
        <ele>23.4</ele>
        <time>2011-03-22T18:20:54Z</time>
      </trkpt>
      <trkpt lat="37.1862700134" lon="-7.42047335505">
        <ele>23.4</ele>
        <time>2011-03-22T18:20:55Z</time>
      </trkpt>
      <trkpt lat="37.1862004436" lon="-7.42065239244">
        <ele>23.4</ele>
        <time>2011-03-22T18:20:58Z</time>
      </trkpt>
      <trkpt lat="37.1861547622" lon="-7.42076747592">
        <ele>23.6</ele>
        <time>2011-03-22T18:21:00Z</time>
      </trkpt>
      <trkpt lat="37.1861367411" lon="-7.4208260654">
        <ele>23.6</ele>
        <time>2011-03-22T18:21:01Z</time>
      </trkpt>
      <trkpt lat="37.1861111763" lon="-7.42093846668">
        <ele>23.6</ele>
        <time>2011-03-22T18:21:03Z</time>
      </trkpt>
      <trkpt lat="37.1860863659" lon="-7.42104357571">
        <ele>23.6</ele>
        <time>2011-03-22T18:21:05Z</time>
      </trkpt>
      <trkpt lat="37.1860696021" lon="-7.42109554349">
        <ele>23.6</ele>
        <time>2011-03-22T18:21:06Z</time>
      </trkpt>
      <trkpt lat="37.1860659979" lon="-7.42125848762">
        <ele>23.6</ele>
        <time>2011-03-22T18:21:09Z</time>
      </trkpt>
      <trkpt lat="37.1860764753" lon="-7.42131364053">
        <ele>23.6</ele>
        <time>2011-03-22T18:21:10Z</time>
      </trkpt>
      <trkpt lat="37.186167838" lon="-7.42143467516">
        <ele>23.6</ele>
        <time>2011-03-22T18:21:13Z</time>
      </trkpt>
      <trkpt lat="37.1862468793" lon="-7.42148463129">
        <ele>23.4</ele>
        <time>2011-03-22T18:21:15Z</time>
      </trkpt>
      <trkpt lat="37.1862891241" lon="-7.42151220774">
        <ele>23.2</ele>
        <time>2011-03-22T18:21:16Z</time>
      </trkpt>
      <trkpt lat="37.18640865" lon="-7.42157951439">
        <ele>22.8</ele>
        <time>2011-03-22T18:21:19Z</time>
      </trkpt>
      <trkpt lat="37.1864492184" lon="-7.42159745166">
        <ele>22.6</ele>
        <time>2011-03-22T18:21:20Z</time>
      </trkpt>
      <trkpt lat="37.1865247393" lon="-7.42163198509">
        <ele>22.4</ele>
        <time>2011-03-22T18:21:22Z</time>
      </trkpt>
      <trkpt lat="37.1865965722" lon="-7.42166869781">
        <ele>22.2</ele>
        <time>2011-03-22T18:21:24Z</time>
      </trkpt>
      <trkpt lat="37.186661029" lon="-7.42170742219">
        <ele>22.2</ele>
        <time>2011-03-22T18:21:26Z</time>
      </trkpt>
      <trkpt lat="37.1867219654" lon="-7.421734831">
        <ele>22</ele>
        <time>2011-03-22T18:21:28Z</time>
      </trkpt>
      <trkpt lat="37.1868039404" lon="-7.42175536666">
        <ele>22</ele>
        <time>2011-03-22T18:21:30Z</time>
      </trkpt>
      <trkpt lat="37.1868871726" lon="-7.42178612823">
        <ele>21.8</ele>
        <time>2011-03-22T18:21:32Z</time>
      </trkpt>
      <trkpt lat="37.1869539764" lon="-7.42184278987">
        <ele>21.8</ele>
        <time>2011-03-22T18:21:34Z</time>
      </trkpt>
      <trkpt lat="37.1870251387" lon="-7.42189031525">
        <ele>21.6</ele>
        <time>2011-03-22T18:21:36Z</time>
      </trkpt>
      <trkpt lat="37.187104683" lon="-7.42193708625">
        <ele>21.2</ele>
        <time>2011-03-22T18:21:38Z</time>
      </trkpt>
      <trkpt lat="37.1871759291" lon="-7.42197983394">
        <ele>20.8</ele>
        <time>2011-03-22T18:21:40Z</time>
      </trkpt>
      <trkpt lat="37.1872114684" lon="-7.4220061531">
        <ele>20.8</ele>
        <time>2011-03-22T18:21:41Z</time>
      </trkpt>
      <trkpt lat="37.1872777692" lon="-7.42206859826">
        <ele>20.4</ele>
        <time>2011-03-22T18:21:43Z</time>
      </trkpt>
      <trkpt lat="37.187311213" lon="-7.42209902456">
        <ele>20.4</ele>
        <time>2011-03-22T18:21:44Z</time>
      </trkpt>
      <trkpt lat="37.1874040844" lon="-7.42217261764">
        <ele>20.2</ele>
        <time>2011-03-22T18:21:47Z</time>
      </trkpt>
      <trkpt lat="37.1874756658" lon="-7.42221326985">
        <ele>20</ele>
        <time>2011-03-22T18:21:49Z</time>
      </trkpt>
      <trkpt lat="37.1875499295" lon="-7.42225123986">
        <ele>20</ele>
        <time>2011-03-22T18:21:51Z</time>
      </trkpt>
      <trkpt lat="37.1876252828" lon="-7.42227873249">
        <ele>19.8</ele>
        <time>2011-03-22T18:21:53Z</time>
      </trkpt>
      <trkpt lat="37.1876942658" lon="-7.42229231117">
        <ele>19.8</ele>
        <time>2011-03-22T18:21:55Z</time>
      </trkpt>
      <trkpt lat="37.1877721336" lon="-7.4222862762">
        <ele>19.8</ele>
        <time>2011-03-22T18:21:57Z</time>
      </trkpt>
      <trkpt lat="37.1878084273" lon="-7.42227076969">
        <ele>19.8</ele>
        <time>2011-03-22T18:21:58Z</time>
      </trkpt>
      <trkpt lat="37.1878417872" lon="-7.42217672477">
        <ele>19.2</ele>
        <time>2011-03-22T18:22:02Z</time>
      </trkpt>
      <trkpt lat="37.1878254425" lon="-7.42213271979">
        <ele>18.8</ele>
        <time>2011-03-22T18:22:04Z</time>
      </trkpt>
      <trkpt lat="37.1877971955" lon="-7.42203113117">
        <ele>18.4</ele>
        <time>2011-03-22T18:22:07Z</time>
      </trkpt>
      <trkpt lat="37.187774732" lon="-7.421939517">
        <ele>18.2</ele>
        <time>2011-03-22T18:22:09Z</time>
      </trkpt>
      <trkpt lat="37.1877432999" lon="-7.42184044294">
        <ele>18.2</ele>
        <time>2011-03-22T18:22:11Z</time>
      </trkpt>
      <trkpt lat="37.1877217584" lon="-7.42179442631">
        <ele>18</ele>
        <time>2011-03-22T18:22:12Z</time>
      </trkpt>
      <trkpt lat="37.187635844" lon="-7.42174748767">
        <ele>17.8</ele>
        <time>2011-03-22T18:22:15Z</time>
      </trkpt>
      <trkpt lat="37.1875847144" lon="-7.42173633974">
        <ele>17.8</ele>
        <time>2011-03-22T18:22:17Z</time>
      </trkpt>
      <trkpt lat="37.1875460738" lon="-7.42169099366">
        <ele>17.8</ele>
        <time>2011-03-22T18:22:19Z</time>
      </trkpt>
      <trkpt lat="37.1875272984" lon="-7.42165553823">
        <ele>17.6</ele>
        <time>2011-03-22T18:22:20Z</time>
      </trkpt>
      <trkpt lat="37.187470972" lon="-7.42158596846">
        <ele>17.6</ele>
        <time>2011-03-22T18:22:22Z</time>
      </trkpt>
      <trkpt lat="37.1874451557" lon="-7.42154389132">
        <ele>17.4</ele>
        <time>2011-03-22T18:22:23Z</time>
      </trkpt>
      <trkpt lat="37.1874032462" lon="-7.42142025829">
        <ele>16.8</ele>
        <time>2011-03-22T18:22:26Z</time>
      </trkpt>
      <trkpt lat="37.1873673717" lon="-7.42135420892">
        <ele>16.6</ele>
        <time>2011-03-22T18:22:28Z</time>
      </trkpt>
      <trkpt lat="37.1873292341" lon="-7.42123635941">
        <ele>16.4</ele>
        <time>2011-03-22T18:22:30Z</time>
      </trkpt>
      <trkpt lat="37.1873199301" lon="-7.4211882473">
        <ele>16.4</ele>
        <time>2011-03-22T18:22:31Z</time>
      </trkpt>
      <trkpt lat="37.1872890009" lon="-7.42105841167">
        <ele>16</ele>
        <time>2011-03-22T18:22:34Z</time>
      </trkpt>
      <trkpt lat="37.1872755061" lon="-7.42095422465">
        <ele>15.8</ele>
        <time>2011-03-22T18:22:36Z</time>
      </trkpt>
      <trkpt lat="37.1872896715" lon="-7.42086462214">
        <ele>15.8</ele>
        <time>2011-03-22T18:22:38Z</time>
      </trkpt>
      <trkpt lat="37.1873138114" lon="-7.42078499409">
        <ele>15.6</ele>
        <time>2011-03-22T18:22:40Z</time>
      </trkpt>
      <trkpt lat="37.1873133923" lon="-7.42073344541">
        <ele>15.6</ele>
        <time>2011-03-22T18:22:41Z</time>
      </trkpt>
      <trkpt lat="37.1872823792" lon="-7.42063395226">
        <ele>15.6</ele>
        <time>2011-03-22T18:22:43Z</time>
      </trkpt>
      <trkpt lat="37.1872808705" lon="-7.42055926953">
        <ele>15.6</ele>
        <time>2011-03-22T18:22:45Z</time>
      </trkpt>
      <trkpt lat="37.1872631009" lon="-7.42047905474">
        <ele>15.4</ele>
        <time>2011-03-22T18:22:47Z</time>
      </trkpt>
      <trkpt lat="37.1872558924" lon="-7.42043898926">
        <ele>15.4</ele>
        <time>2011-03-22T18:22:48Z</time>
      </trkpt>
      <trkpt lat="37.1872277292" lon="-7.42027931407">
        <ele>15.4</ele>
        <time>2011-03-22T18:22:51Z</time>
      </trkpt>
      <trkpt lat="37.187201913" lon="-7.42017948564">
        <ele>15.4</ele>
        <time>2011-03-22T18:22:53Z</time>
      </trkpt>
      <trkpt lat="37.1871688883" lon="-7.42009013458">
        <ele>15.4</ele>
        <time>2011-03-22T18:22:55Z</time>
      </trkpt>
      <trkpt lat="37.1871385458" lon="-7.42005392478">
        <ele>15.4</ele>
        <time>2011-03-22T18:22:56Z</time>
      </trkpt>
      <trkpt lat="37.1870648689" lon="-7.42002592923">
        <ele>15.4</ele>
        <time>2011-03-22T18:22:58Z</time>
      </trkpt>
      <trkpt lat="37.1870004121" lon="-7.42000396865">
        <ele>15.4</ele>
        <time>2011-03-22T18:23:00Z</time>
      </trkpt>
      <trkpt lat="37.1869311776" lon="-7.42000405247">
        <ele>15.4</ele>
        <time>2011-03-22T18:23:02Z</time>
      </trkpt>
      <trkpt lat="37.186875438" lon="-7.42001737969">
        <ele>15.4</ele>
        <time>2011-03-22T18:23:04Z</time>
      </trkpt>
      <trkpt lat="37.1867944688" lon="-7.42004579433">
        <ele>15.4</ele>
        <time>2011-03-22T18:23:07Z</time>
      </trkpt>
      <trkpt lat="37.1867687364" lon="-7.42005895392">
        <ele>15.4</ele>
        <time>2011-03-22T18:23:08Z</time>
      </trkpt>
      <trkpt lat="37.1867052016" lon="-7.4200818365">
        <ele>15.4</ele>
        <time>2011-03-22T18:23:11Z</time>
      </trkpt>
      <trkpt lat="37.186634626" lon="-7.42012232108">
        <ele>15.6</ele>
        <time>2011-03-22T18:23:14Z</time>
      </trkpt>
      <trkpt lat="37.1865619549" lon="-7.4201524121">
        <ele>15.8</ele>
        <time>2011-03-22T18:23:16Z</time>
      </trkpt>
      <trkpt lat="37.1864643058" lon="-7.42017286394">
        <ele>16.2</ele>
        <time>2011-03-22T18:23:18Z</time>
      </trkpt>
      <trkpt lat="37.1863551735" lon="-7.42018652643">
        <ele>16.4</ele>
        <time>2011-03-22T18:23:20Z</time>
      </trkpt>
      <trkpt lat="37.1862740367" lon="-7.42022810066">
        <ele>16.6</ele>
        <time>2011-03-22T18:23:22Z</time>
      </trkpt>
      <trkpt lat="37.1862519923" lon="-7.42027084835">
        <ele>16.8</ele>
        <time>2011-03-22T18:23:23Z</time>
      </trkpt>
      <trkpt lat="37.186235899" lon="-7.42037235316">
        <ele>16.8</ele>
        <time>2011-03-22T18:23:25Z</time>
      </trkpt>
      <trkpt lat="37.186229445" lon="-7.42042465621">
        <ele>17.2</ele>
        <time>2011-03-22T18:23:26Z</time>
      </trkpt>
      <trkpt lat="37.18618544" lon="-7.42057268057">
        <ele>17.8</ele>
        <time>2011-03-22T18:23:30Z</time>
      </trkpt>
      <trkpt lat="37.186157193" lon="-7.42064174742">
        <ele>18.2</ele>
        <time>2011-03-22T18:23:31Z</time>
      </trkpt>
      <trkpt lat="37.1861250903" lon="-7.4207338645">
        <ele>18.4</ele>
        <time>2011-03-22T18:23:33Z</time>
      </trkpt>
      <trkpt lat="37.1860957536" lon="-7.42082640068">
        <ele>18.6</ele>
        <time>2011-03-22T18:23:35Z</time>
      </trkpt>
      <trkpt lat="37.1860797442" lon="-7.42092798931">
        <ele>18.8</ele>
        <time>2011-03-22T18:23:37Z</time>
      </trkpt>
      <trkpt lat="37.1860616393" lon="-7.42102136367">
        <ele>19</ele>
        <time>2011-03-22T18:23:39Z</time>
      </trkpt>
      <trkpt lat="37.1860322188" lon="-7.42112186265">
        <ele>19</ele>
        <time>2011-03-22T18:23:41Z</time>
      </trkpt>
      <trkpt lat="37.1860257648" lon="-7.42117483626">
        <ele>19.2</ele>
        <time>2011-03-22T18:23:42Z</time>
      </trkpt>
      <trkpt lat="37.1860320512" lon="-7.42126821063">
        <ele>19.2</ele>
        <time>2011-03-22T18:23:44Z</time>
      </trkpt>
      <trkpt lat="37.1860392596" lon="-7.42130450426">
        <ele>19.2</ele>
        <time>2011-03-22T18:23:45Z</time>
      </trkpt>
      <trkpt lat="37.1860484797" lon="-7.42133451146">
        <ele>19.2</ele>
        <time>2011-03-22T18:23:46Z</time>
      </trkpt>
      <trkpt lat="37.1860527545" lon="-7.42135873515">
        <ele>19.2</ele>
        <time>2011-03-22T18:23:47Z</time>
      </trkpt>
      <trkpt lat="37.186072452" lon="-7.42140156666">
        <ele>19.4</ele>
        <time>2011-03-22T18:23:50Z</time>
      </trkpt>
      <trkpt lat="37.1861038003" lon="-7.42142109648">
        <ele>19.4</ele>
        <time>2011-03-22T18:23:53Z</time>
      </trkpt>
      <trkpt lat="37.1861065663" lon="-7.42138782034">
        <ele>19.4</ele>
        <time>2011-03-22T18:24:00Z</time>
      </trkpt>
      <trkpt lat="37.1860874556" lon="-7.42136460248">
        <ele>19.6</ele>
        <time>2011-03-22T18:24:04Z</time>
      </trkpt>
      <trkpt lat="37.1860796604" lon="-7.42133023669">
        <ele>18.8</ele>
        <time>2011-03-22T18:24:08Z</time>
      </trkpt>
      <trkpt lat="37.1860835999" lon="-7.42130450426">
        <ele>18.4</ele>
        <time>2011-03-22T18:24:13Z</time>
      </trkpt>
      <trkpt lat="37.1861017048" lon="-7.42134700049">
        <ele>17.6</ele>
        <time>2011-03-22T18:24:18Z</time>
      </trkpt>
      <trkpt lat="37.1861244197" lon="-7.4213845514">
        <ele>16.8</ele>
        <time>2011-03-22T18:24:22Z</time>
      </trkpt>
      <trkpt lat="37.18613079" lon="-7.42139586697">
        <ele>16.8</ele>
        <time>2011-03-22T18:24:23Z</time>
      </trkpt>
      <trkpt lat="37.1861704364" lon="-7.42142579035">
        <ele>16.2</ele>
        <time>2011-03-22T18:24:28Z</time>
      </trkpt>
      <trkpt lat="37.1862110048" lon="-7.42144791856">
        <ele>15.4</ele>
        <time>2011-03-22T18:24:32Z</time>
      </trkpt>
      <trkpt lat="37.1862469631" lon="-7.42146987914">
        <ele>14.8</ele>
        <time>2011-03-22T18:24:36Z</time>
      </trkpt>
      <trkpt lat="37.1862777247" lon="-7.42149116917">
        <ele>14.4</ele>
        <time>2011-03-22T18:24:39Z</time>
      </trkpt>
      <trkpt lat="37.1862883697" lon="-7.42149720414">
        <ele>14.2</ele>
        <time>2011-03-22T18:24:40Z</time>
      </trkpt>
      <trkpt lat="37.1863362304" lon="-7.4215190809">
        <ele>14</ele>
        <time>2011-03-22T18:24:44Z</time>
      </trkpt>
      <trkpt lat="37.1863604541" lon="-7.42154003565">
        <ele>13.8</ele>
        <time>2011-03-22T18:24:46Z</time>
      </trkpt>
      <trkpt lat="37.1863726078" lon="-7.42154573534">
        <ele>13.8</ele>
        <time>2011-03-22T18:24:47Z</time>
      </trkpt>
      <trkpt lat="37.1864279283" lon="-7.42157272506">
        <ele>13.8</ele>
        <time>2011-03-22T18:24:49Z</time>
      </trkpt>
      <trkpt lat="37.1864582708" lon="-7.42158680665">
        <ele>13.6</ele>
        <time>2011-03-22T18:24:50Z</time>
      </trkpt>
      <trkpt lat="37.1865308581" lon="-7.42161957988">
        <ele>13.6</ele>
        <time>2011-03-22T18:24:52Z</time>
      </trkpt>
      <trkpt lat="37.1866137551" lon="-7.42166283048">
        <ele>13.6</ele>
        <time>2011-03-22T18:24:54Z</time>
      </trkpt>
      <trkpt lat="37.1866856718" lon="-7.42170700309">
        <ele>13.6</ele>
        <time>2011-03-22T18:24:56Z</time>
      </trkpt>
      <trkpt lat="37.1867568341" lon="-7.42172435363">
        <ele>13.6</ele>
        <time>2011-03-22T18:24:58Z</time>
      </trkpt>
      <trkpt lat="37.186850879" lon="-7.42175343882">
        <ele>13.6</ele>
        <time>2011-03-22T18:25:00Z</time>
      </trkpt>
      <trkpt lat="37.1868947164" lon="-7.4217749803">
        <ele>13.2</ele>
        <time>2011-03-22T18:25:01Z</time>
      </trkpt>
      <trkpt lat="37.1869600952" lon="-7.42183180958">
        <ele>13</ele>
        <time>2011-03-22T18:25:03Z</time>
      </trkpt>
      <trkpt lat="37.1870704848" lon="-7.42190741432">
        <ele>12.6</ele>
        <time>2011-03-22T18:25:06Z</time>
      </trkpt>
      <trkpt lat="37.1871475983" lon="-7.42194739599">
        <ele>12.2</ele>
        <time>2011-03-22T18:25:08Z</time>
      </trkpt>
      <trkpt lat="37.187217671" lon="-7.4219880482">
        <ele>12.2</ele>
        <time>2011-03-22T18:25:10Z</time>
      </trkpt>
      <trkpt lat="37.1872512824" lon="-7.42201487028">
        <ele>12</ele>
        <time>2011-03-22T18:25:11Z</time>
      </trkpt>
      <trkpt lat="37.1873087822" lon="-7.4220767287">
        <ele>12</ele>
        <time>2011-03-22T18:25:13Z</time>
      </trkpt>
      <trkpt lat="37.187338035" lon="-7.4221058139">
        <ele>11.8</ele>
        <time>2011-03-22T18:25:14Z</time>
      </trkpt>
      <trkpt lat="37.1874278052" lon="-7.42216993543">
        <ele>11.8</ele>
        <time>2011-03-22T18:25:17Z</time>
      </trkpt>
      <trkpt lat="37.1874944413" lon="-7.42220991709">
        <ele>11.6</ele>
        <time>2011-03-22T18:25:19Z</time>
      </trkpt>
      <trkpt lat="37.1875643463" lon="-7.42223925374">
        <ele>11.6</ele>
        <time>2011-03-22T18:25:21Z</time>
      </trkpt>
      <trkpt lat="37.1876330779" lon="-7.42226456708">
        <ele>11.6</ele>
        <time>2011-03-22T18:25:23Z</time>
      </trkpt>
      <trkpt lat="37.1877005522" lon="-7.42228585711">
        <ele>11.6</ele>
        <time>2011-03-22T18:25:25Z</time>
      </trkpt>
      <trkpt lat="37.1877764922" lon="-7.4222734519">
        <ele>11.6</ele>
        <time>2011-03-22T18:25:27Z</time>
      </trkpt>
      <trkpt lat="37.18780717" lon="-7.42224394761">
        <ele>11.4</ele>
        <time>2011-03-22T18:25:28Z</time>
      </trkpt>
      <trkpt lat="37.1878277056" lon="-7.42213984441">
        <ele>11.4</ele>
        <time>2011-03-22T18:25:30Z</time>
      </trkpt>
      <trkpt lat="37.1878095169" lon="-7.4220467215">
        <ele>11.4</ele>
        <time>2011-03-22T18:25:32Z</time>
      </trkpt>
      <trkpt lat="37.1877671045" lon="-7.42189601494">
        <ele>11.4</ele>
        <time>2011-03-22T18:25:35Z</time>
      </trkpt>
      <trkpt lat="37.1877508436" lon="-7.42184605881">
        <ele>11.4</ele>
        <time>2011-03-22T18:25:36Z</time>
      </trkpt>
      <trkpt lat="37.1876697068" lon="-7.42174832586">
        <ele>11.4</ele>
        <time>2011-03-22T18:25:39Z</time>
      </trkpt>
      <trkpt lat="37.1876086028" lon="-7.42173851904">
        <ele>11.4</ele>
        <time>2011-03-22T18:25:41Z</time>
      </trkpt>
      <trkpt lat="37.1875661904" lon="-7.4216929215">
        <ele>11.4</ele>
        <time>2011-03-22T18:25:43Z</time>
      </trkpt>
      <trkpt lat="37.1875146417" lon="-7.42162494429">
        <ele>11.4</ele>
        <time>2011-03-22T18:25:45Z</time>
      </trkpt>
      <trkpt lat="37.1874883225" lon="-7.42158798011">
        <ele>11.4</ele>
        <time>2011-03-22T18:25:46Z</time>
      </trkpt>
      <trkpt lat="37.1874490114" lon="-7.42151447085">
        <ele>11.4</ele>
        <time>2011-03-22T18:25:48Z</time>
      </trkpt>
      <trkpt lat="37.1874125501" lon="-7.42143224441">
        <ele>11.4</ele>
        <time>2011-03-22T18:25:50Z</time>
      </trkpt>
      <trkpt lat="37.187374664" lon="-7.42132596192">
        <ele>11.4</ele>
        <time>2011-03-22T18:25:52Z</time>
      </trkpt>
      <trkpt lat="37.1873349337" lon="-7.42122261309">
        <ele>11.4</ele>
        <time>2011-03-22T18:25:54Z</time>
      </trkpt>
      <trkpt lat="37.187313979" lon="-7.42111666588">
        <ele>11.4</ele>
        <time>2011-03-22T18:25:56Z</time>
      </trkpt>
      <trkpt lat="37.1873029149" lon="-7.42106813468">
        <ele>11.4</ele>
        <time>2011-03-22T18:25:57Z</time>
      </trkpt>
      <trkpt lat="37.1872858996" lon="-7.42096084636">
        <ele>11.4</ele>
        <time>2011-03-22T18:25:59Z</time>
      </trkpt>
      <trkpt lat="37.1872890848" lon="-7.42091005204">
        <ele>11.4</ele>
        <time>2011-03-22T18:26:00Z</time>
      </trkpt>
      <trkpt lat="37.1872984725" lon="-7.4208075414">
        <ele>11.4</ele>
        <time>2011-03-22T18:26:02Z</time>
      </trkpt>
      <trkpt lat="37.1872753384" lon="-7.42066328891">
        <ele>11.4</ele>
        <time>2011-03-22T18:26:05Z</time>
      </trkpt>
      <trkpt lat="37.1872600834" lon="-7.42061408715">
        <ele>11.4</ele>
        <time>2011-03-22T18:26:06Z</time>
      </trkpt>
      <trkpt lat="37.1872335966" lon="-7.42052867559">
        <ele>11.4</ele>
        <time>2011-03-22T18:26:08Z</time>
      </trkpt>
      <trkpt lat="37.1872129771" lon="-7.42044971809">
        <ele>11.4</ele>
        <time>2011-03-22T18:26:10Z</time>
      </trkpt>
      <trkpt lat="37.1871973029" lon="-7.42034234595">
        <ele>11.4</ele>
        <time>2011-03-22T18:26:12Z</time>
      </trkpt>
      <trkpt lat="37.1871783599" lon="-7.42024411009">
        <ele>11.4</ele>
        <time>2011-03-22T18:26:14Z</time>
      </trkpt>
      <trkpt lat="37.1871571536" lon="-7.42015098718">
        <ele>11.4</ele>
        <time>2011-03-22T18:26:16Z</time>
      </trkpt>
      <trkpt lat="37.1871134001" lon="-7.42007152677">
        <ele>11.4</ele>
        <time>2011-03-22T18:26:18Z</time>
      </trkpt>
      <trkpt lat="37.1870821356" lon="-7.42006364778">
        <ele>11.4</ele>
        <time>2011-03-22T18:26:19Z</time>
      </trkpt>
      <trkpt lat="37.1870266475" lon="-7.42005409241">
        <ele>11.4</ele>
        <time>2011-03-22T18:26:21Z</time>
      </trkpt>
      <trkpt lat="37.1869572453" lon="-7.42003012018">
        <ele>11.8</ele>
        <time>2011-03-22T18:26:23Z</time>
      </trkpt>
      <trkpt lat="37.1868922018" lon="-7.42002592923">
        <ele>12</ele>
        <time>2011-03-22T18:26:25Z</time>
      </trkpt>
      <trkpt lat="37.1868247275" lon="-7.42003758007">
        <ele>12.4</ele>
        <time>2011-03-22T18:26:27Z</time>
      </trkpt>
      <trkpt lat="37.1867356279" lon="-7.42006415069">
        <ele>12.6</ele>
        <time>2011-03-22T18:26:30Z</time>
      </trkpt>
      <trkpt lat="37.1866881025" lon="-7.42009181096">
        <ele>12.8</ele>
        <time>2011-03-22T18:26:32Z</time>
      </trkpt>
      <trkpt lat="37.1866381464" lon="-7.4201175434">
        <ele>13</ele>
        <time>2011-03-22T18:26:34Z</time>
      </trkpt>
      <trkpt lat="37.1865751983" lon="-7.42014486839">
        <ele>13.6</ele>
        <time>2011-03-22T18:26:36Z</time>
      </trkpt>
      <trkpt lat="37.1864709275" lon="-7.42017814453">
        <ele>13.8</ele>
        <time>2011-03-22T18:26:38Z</time>
      </trkpt>
      <trkpt lat="37.1863607893" lon="-7.42018677789">
        <ele>14.2</ele>
        <time>2011-03-22T18:26:40Z</time>
      </trkpt>
      <trkpt lat="37.1863097436" lon="-7.42019482451">
        <ele>14.4</ele>
        <time>2011-03-22T18:26:41Z</time>
      </trkpt>
      <trkpt lat="37.1862360667" lon="-7.42028794742">
        <ele>14.6</ele>
        <time>2011-03-22T18:26:44Z</time>
      </trkpt>
      <trkpt lat="37.1862354799" lon="-7.42033924465">
        <ele>14.6</ele>
        <time>2011-03-22T18:26:45Z</time>
      </trkpt>
      <trkpt lat="37.1862375754" lon="-7.42045089156">
        <ele>15.2</ele>
        <time>2011-03-22T18:26:47Z</time>
      </trkpt>
      <trkpt lat="37.1861995216" lon="-7.42058986346">
        <ele>15.8</ele>
        <time>2011-03-22T18:26:50Z</time>
      </trkpt>
      <trkpt lat="37.186183093" lon="-7.42063655064">
        <ele>16</ele>
        <time>2011-03-22T18:26:51Z</time>
      </trkpt>
      <trkpt lat="37.1861336398" lon="-7.42076931994">
        <ele>16.4</ele>
        <time>2011-03-22T18:26:54Z</time>
      </trkpt>
      <trkpt lat="37.1861190553" lon="-7.42081416311">
        <ele>16.6</ele>
        <time>2011-03-22T18:26:55Z</time>
      </trkpt>
      <trkpt lat="37.1860885452" lon="-7.42096771951">
        <ele>16.8</ele>
        <time>2011-03-22T18:26:58Z</time>
      </trkpt>
      <trkpt lat="37.1860728711" lon="-7.42101843001">
        <ele>16.8</ele>
        <time>2011-03-22T18:26:59Z</time>
      </trkpt>
      <trkpt lat="37.1860440373" lon="-7.4211595812">
        <ele>17</ele>
        <time>2011-03-22T18:27:02Z</time>
      </trkpt>
      <trkpt lat="37.1860517487" lon="-7.4212486808">
        <ele>17.2</ele>
        <time>2011-03-22T18:27:04Z</time>
      </trkpt>
      <trkpt lat="37.1860810015" lon="-7.42133426">
        <ele>17.2</ele>
        <time>2011-03-22T18:27:06Z</time>
      </trkpt>
      <trkpt lat="37.1861380822" lon="-7.42139628606">
        <ele>17.2</ele>
        <time>2011-03-22T18:27:08Z</time>
      </trkpt>
      <trkpt lat="37.1862090769" lon="-7.42144657746">
        <ele>17.2</ele>
        <time>2011-03-22T18:27:10Z</time>
      </trkpt>
      <trkpt lat="37.1862888726" lon="-7.42149904815">
        <ele>17.4</ele>
        <time>2011-03-22T18:27:12Z</time>
      </trkpt>
      <trkpt lat="37.1863617113" lon="-7.42154322077">
        <ele>17.4</ele>
        <time>2011-03-22T18:27:14Z</time>
      </trkpt>
      <trkpt lat="37.1864318678" lon="-7.42157691601">
        <ele>17.4</ele>
        <time>2011-03-22T18:27:16Z</time>
      </trkpt>
      <trkpt lat="37.1865025273" lon="-7.42161756822">
        <ele>17.4</ele>
        <time>2011-03-22T18:27:18Z</time>
      </trkpt>
      <trkpt lat="37.1865789702" lon="-7.42166274666">
        <ele>17.4</ele>
        <time>2011-03-22T18:27:20Z</time>
      </trkpt>
      <trkpt lat="37.186648959" lon="-7.4217044047">
        <ele>17.4</ele>
        <time>2011-03-22T18:27:22Z</time>
      </trkpt>
      <trkpt lat="37.1868358754" lon="-7.42176542494">
        <ele>17.4</ele>
        <time>2011-03-22T18:27:27Z</time>
      </trkpt>
      <trkpt lat="37.1868709956" lon="-7.42178135055">
        <ele>17.4</ele>
        <time>2011-03-22T18:27:28Z</time>
      </trkpt>
      <trkpt lat="37.1869441696" lon="-7.42184128113">
        <ele>17.4</ele>
        <time>2011-03-22T18:27:30Z</time>
      </trkpt>
      <trkpt lat="37.1869789545" lon="-7.42187145597">
        <ele>17.4</ele>
        <time>2011-03-22T18:27:31Z</time>
      </trkpt>
      <trkpt lat="37.1870879192" lon="-7.42194295358">
        <ele>17.4</ele>
        <time>2011-03-22T18:27:34Z</time>
      </trkpt>
      <trkpt lat="37.1871166691" lon="-7.42195971738">
        <ele>17.4</ele>
        <time>2011-03-22T18:27:35Z</time>
      </trkpt>
      <trkpt lat="37.1872268072" lon="-7.42203440011">
        <ele>17.4</ele>
        <time>2011-03-22T18:27:38Z</time>
      </trkpt>
      <trkpt lat="37.1872598319" lon="-7.42206968791">
        <ele>17.4</ele>
        <time>2011-03-22T18:27:39Z</time>
      </trkpt>
      <trkpt lat="37.187319511" lon="-7.42213137869">
        <ele>17.4</ele>
        <time>2011-03-22T18:27:41Z</time>
      </trkpt>
      <trkpt lat="37.1873780167" lon="-7.42218460376">
        <ele>17.4</ele>
        <time>2011-03-22T18:27:43Z</time>
      </trkpt>
      <trkpt lat="37.1874485923" lon="-7.42223263204">
        <ele>17.4</ele>
        <time>2011-03-22T18:27:45Z</time>
      </trkpt>
      <trkpt lat="37.1875250352" lon="-7.42226976386">
        <ele>17.4</ele>
        <time>2011-03-22T18:27:47Z</time>
      </trkpt>
      <trkpt lat="37.1875948565" lon="-7.42229918433">
        <ele>17.4</ele>
        <time>2011-03-22T18:27:49Z</time>
      </trkpt>
      <trkpt lat="37.1876638395" lon="-7.42231754069">
        <ele>17.4</ele>
        <time>2011-03-22T18:27:51Z</time>
      </trkpt>
      <trkpt lat="37.187728883" lon="-7.42231192482">
        <ele>17.4</ele>
        <time>2011-03-22T18:27:53Z</time>
      </trkpt>
      <trkpt lat="37.187776157" lon="-7.42229180826">
        <ele>17.4</ele>
        <time>2011-03-22T18:27:55Z</time>
      </trkpt>
      <trkpt lat="37.1877915797" lon="-7.42228057651">
        <ele>17.4</ele>
        <time>2011-03-22T18:27:56Z</time>
      </trkpt>
      <trkpt lat="37.1878030629" lon="-7.42222785436">
        <ele>17.4</ele>
        <time>2011-03-22T18:28:00Z</time>
      </trkpt>
      <trkpt lat="37.1877984528" lon="-7.42223908611">
        <ele>17.4</ele>
        <time>2011-03-22T18:28:02Z</time>
      </trkpt>
      <trkpt lat="37.1877549508" lon="-7.42226473472">
        <ele>17.4</ele>
        <time>2011-03-22T18:28:06Z</time>
      </trkpt>
      <trkpt lat="37.1877424617" lon="-7.42226657874">
        <ele>17.4</ele>
        <time>2011-03-22T18:28:07Z</time>
      </trkpt>
      <trkpt lat="37.1876976186" lon="-7.42227118878">
        <ele>16.8</ele>
        <time>2011-03-22T18:28:11Z</time>
      </trkpt>
      <trkpt lat="37.1876604029" lon="-7.42226850657">
        <ele>16.4</ele>
        <time>2011-03-22T18:28:14Z</time>
      </trkpt>
      <trkpt lat="37.1876189125" lon="-7.42224797092">
        <ele>16</ele>
        <time>2011-03-22T18:28:18Z</time>
      </trkpt>
      <trkpt lat="37.1875829542" lon="-7.42224009193">
        <ele>15.8</ele>
        <time>2011-03-22T18:28:21Z</time>
      </trkpt>
      <trkpt lat="37.1875472473" lon="-7.42222064592">
        <ele>15.8</ele>
        <time>2011-03-22T18:28:25Z</time>
      </trkpt>
      <trkpt lat="37.1875016497" lon="-7.4221958355">
        <ele>15.6</ele>
        <time>2011-03-22T18:28:29Z</time>
      </trkpt>
      <trkpt lat="37.1874898313" lon="-7.42218351411">
        <ele>15.6</ele>
        <time>2011-03-22T18:28:31Z</time>
      </trkpt>
      <trkpt lat="37.1874697985" lon="-7.42217647331">
        <ele>15.6</ele>
        <time>2011-03-22T18:28:33Z</time>
      </trkpt>
      <trkpt lat="37.1874343431" lon="-7.42215426128">
        <ele>15.6</ele>
        <time>2011-03-22T18:28:37Z</time>
      </trkpt>
      <trkpt lat="37.187404755" lon="-7.42213112723">
        <ele>15.4</ele>
        <time>2011-03-22T18:28:41Z</time>
      </trkpt>
      <trkpt lat="37.1873734905" lon="-7.42209089411">
        <ele>15.4</ele>
        <time>2011-03-22T18:28:45Z</time>
      </trkpt>
      <trkpt lat="37.187350105" lon="-7.42205887526">
        <ele>15.4</ele>
        <time>2011-03-22T18:28:48Z</time>
      </trkpt>
      <trkpt lat="37.1873261328" lon="-7.42202920333">
        <ele>14.8</ele>
        <time>2011-03-22T18:28:51Z</time>
      </trkpt>
      <trkpt lat="37.1873200978" lon="-7.42202040233">
        <ele>14.8</ele>
        <time>2011-03-22T18:28:52Z</time>
      </trkpt>
      <trkpt lat="37.1872803676" lon="-7.42196835074">
        <ele>14.2</ele>
        <time>2011-03-22T18:28:57Z</time>
      </trkpt>
      <trkpt lat="37.1872677947" lon="-7.42195820864">
        <ele>14</ele>
        <time>2011-03-22T18:28:58Z</time>
      </trkpt>
      <trkpt lat="37.1872122227" lon="-7.42192979399">
        <ele>13.8</ele>
        <time>2011-03-22T18:29:02Z</time>
      </trkpt>
      <trkpt lat="37.1872013263" lon="-7.42192292084">
        <ele>13.8</ele>
        <time>2011-03-22T18:29:03Z</time>
      </trkpt>
      <trkpt lat="37.187166709" lon="-7.42190498357">
        <ele>13.6</ele>
        <time>2011-03-22T18:29:06Z</time>
      </trkpt>
      <trkpt lat="37.1871212791" lon="-7.42187958641">
        <ele>13.6</ele>
        <time>2011-03-22T18:29:10Z</time>
      </trkpt>
      <trkpt lat="37.1870853208" lon="-7.42184220314">
        <ele>13.4</ele>
        <time>2011-03-22T18:29:14Z</time>
      </trkpt>
      <trkpt lat="37.1870589178" lon="-7.42179451013">
        <ele>13.4</ele>
        <time>2011-03-22T18:29:18Z</time>
      </trkpt>
      <trkpt lat="37.1870413996" lon="-7.42175452847">
        <ele>13.4</ele>
        <time>2011-03-22T18:29:21Z</time>
      </trkpt>
      <trkpt lat="37.1870220374" lon="-7.42171504972">
        <ele>13.4</ele>
        <time>2011-03-22T18:29:24Z</time>
      </trkpt>
      <trkpt lat="37.1870196067" lon="-7.42170465616">
        <ele>13.4</ele>
        <time>2011-03-22T18:29:25Z</time>
      </trkpt>
      <trkpt lat="37.1870008312" lon="-7.42166341721">
        <ele>13.4</ele>
        <time>2011-03-22T18:29:28Z</time>
      </trkpt>
      <trkpt lat="37.1869852409" lon="-7.42164288156">
        <ele>13.4</ele>
        <time>2011-03-22T18:29:30Z</time>
      </trkpt>
      <trkpt lat="37.1869466003" lon="-7.42160273226">
        <ele>13.4</ele>
        <time>2011-03-22T18:29:34Z</time>
      </trkpt>
      <trkpt lat="37.1869211193" lon="-7.42158806393">
        <ele>13.4</ele>
        <time>2011-03-22T18:29:36Z</time>
      </trkpt>
      <trkpt lat="37.1868722529" lon="-7.42155294377">
        <ele>13.4</ele>
        <time>2011-03-22T18:29:41Z</time>
      </trkpt>
      <trkpt lat="37.1868404016" lon="-7.42152930681">
        <ele>13.4</ele>
        <time>2011-03-22T18:29:44Z</time>
      </trkpt>
      <trkpt lat="37.1868324388" lon="-7.42152008672">
        <ele>13.4</ele>
        <time>2011-03-22T18:29:45Z</time>
      </trkpt>
      <trkpt lat="37.1868166809" lon="-7.42145881503">
        <ele>13.4</ele>
        <time>2011-03-22T18:29:49Z</time>
      </trkpt>
      <trkpt lat="37.1868036889" lon="-7.42140600906">
        <ele>13.4</ele>
        <time>2011-03-22T18:29:53Z</time>
      </trkpt>
      <trkpt lat="37.1867894397" lon="-7.42136066299">
        <ele>13.4</ele>
        <time>2011-03-22T18:29:57Z</time>
      </trkpt>
      <trkpt lat="37.1867777889" lon="-7.42131632273">
        <ele>13.4</ele>
        <time>2011-03-22T18:30:00Z</time>
      </trkpt>
      <trkpt lat="37.1867667247" lon="-7.42127583816">
        <ele>13.4</ele>
        <time>2011-03-22T18:30:03Z</time>
      </trkpt>
      <trkpt lat="37.1867593487" lon="-7.42122420565">
        <ele>13.4</ele>
        <time>2011-03-22T18:30:06Z</time>
      </trkpt>
      <trkpt lat="37.1867467758" lon="-7.42115932975">
        <ele>13.4</ele>
        <time>2011-03-22T18:30:10Z</time>
      </trkpt>
      <trkpt lat="37.1867436745" lon="-7.42114600253">
        <ele>13.4</ele>
        <time>2011-03-22T18:30:11Z</time>
      </trkpt>
      <trkpt lat="37.1867413276" lon="-7.4211335135">
        <ele>13.4</ele>
        <time>2011-03-22T18:30:12Z</time>
      </trkpt>
      <trkpt lat="37.1867424172" lon="-7.42108271918">
        <ele>13.4</ele>
        <time>2011-03-22T18:30:16Z</time>
      </trkpt>
      <trkpt lat="37.1867354603" lon="-7.4210408935">
        <ele>13.4</ele>
        <time>2011-03-22T18:30:19Z</time>
      </trkpt>
      <trkpt lat="37.1867352088" lon="-7.42102572226">
        <ele>13.4</ele>
        <time>2011-03-22T18:30:20Z</time>
      </trkpt>
      <trkpt lat="37.1867154275" lon="-7.4209839804">
        <ele>13.4</ele>
        <time>2011-03-22T18:30:23Z</time>
      </trkpt>
      <trkpt lat="37.186698077" lon="-7.42094047834">
        <ele>13.4</ele>
        <time>2011-03-22T18:30:26Z</time>
      </trkpt>
      <trkpt lat="37.1866812294" lon="-7.42089932321">
        <ele>13.4</ele>
        <time>2011-03-22T18:30:29Z</time>
      </trkpt>
      <trkpt lat="37.1866630406" lon="-7.42084425413">
        <ele>13.4</ele>
        <time>2011-03-22T18:30:33Z</time>
      </trkpt>
      <trkpt lat="37.1866552455" lon="-7.42079991388">
        <ele>13.4</ele>
        <time>2011-03-22T18:30:36Z</time>
      </trkpt>
      <trkpt lat="37.1866554131" lon="-7.42078843067">
        <ele>13.4</ele>
        <time>2011-03-22T18:30:37Z</time>
      </trkpt>
      <trkpt lat="37.1866456063" lon="-7.42073160139">
        <ele>13.4</ele>
        <time>2011-03-22T18:30:41Z</time>
      </trkpt>
      <trkpt lat="37.186644349" lon="-7.42067921452">
        <ele>13.4</ele>
        <time>2011-03-22T18:30:45Z</time>
      </trkpt>
      <trkpt lat="37.1866409962" lon="-7.42066446237">
        <ele>13.4</ele>
        <time>2011-03-22T18:30:46Z</time>
      </trkpt>
      <trkpt lat="37.1866315247" lon="-7.42062339106">
        <ele>13.4</ele>
        <time>2011-03-22T18:30:49Z</time>
      </trkpt>
      <trkpt lat="37.1866305189" lon="-7.42061274605">
        <ele>13.4</ele>
        <time>2011-03-22T18:30:50Z</time>
      </trkpt>
      <trkpt lat="37.1866176107" lon="-7.4205529831">
        <ele>13.4</ele>
        <time>2011-03-22T18:30:54Z</time>
      </trkpt>
      <trkpt lat="37.1866016013" lon="-7.42050176969">
        <ele>13.4</ele>
        <time>2011-03-22T18:30:58Z</time>
      </trkpt>
      <trkpt lat="37.1865930518" lon="-7.42047511525">
        <ele>13.4</ele>
        <time>2011-03-22T18:31:00Z</time>
      </trkpt>
      <trkpt lat="37.186556842" lon="-7.42042163873">
        <ele>13.4</ele>
        <time>2011-03-22T18:31:05Z</time>
      </trkpt>
      <trkpt lat="37.1865365578" lon="-7.42039121243">
        <ele>13.4</ele>
        <time>2011-03-22T18:31:08Z</time>
      </trkpt>
      <trkpt lat="37.1864769625" lon="-7.42039448137">
        <ele>13.4</ele>
        <time>2011-03-22T18:31:13Z</time>
      </trkpt>
      <trkpt lat="37.1864371484" lon="-7.42039883996">
        <ele>13.4</ele>
        <time>2011-03-22T18:31:16Z</time>
      </trkpt>
      <trkpt lat="37.186422983" lon="-7.42039791795">
        <ele>13.4</ele>
        <time>2011-03-22T18:31:17Z</time>
      </trkpt>
      <trkpt lat="37.1863992622" lon="-7.42039892378">
        <ele>13.6</ele>
        <time>2011-03-22T18:31:19Z</time>
      </trkpt>
      <trkpt lat="37.1863483841" lon="-7.42039582248">
        <ele>14.2</ele>
        <time>2011-03-22T18:31:24Z</time>
      </trkpt>
      <trkpt lat="37.1863226517" lon="-7.42040152217">
        <ele>14.8</ele>
        <time>2011-03-22T18:31:29Z</time>
      </trkpt>
      <trkpt lat="37.1863078995" lon="-7.42040831151">
        <ele>15.2</ele>
        <time>2011-03-22T18:31:48Z</time>
      </trkpt>
      <trkpt lat="37.186303038" lon="-7.42043479831">
        <ele>15.2</ele>
        <time>2011-03-22T18:31:52Z</time>
      </trkpt>
      <trkpt lat="37.1862509864" lon="-7.42047209777">
        <ele>15.4</ele>
        <time>2011-03-22T18:32:24Z</time>
      </trkpt>
      <trkpt lat="37.1862364858" lon="-7.42050663119">
        <ele>15.4</ele>
        <time>2011-03-22T18:32:30Z</time>
      </trkpt>
      <trkpt lat="37.1862156148" lon="-7.42055524621">
        <ele>15.4</ele>
        <time>2011-03-22T18:32:34Z</time>
      </trkpt>
      <trkpt lat="37.1861878707" lon="-7.42053521347">
        <ele>15.4</ele>
        <time>2011-03-22T18:32:40Z</time>
      </trkpt>
      <trkpt lat="37.1861639823" lon="-7.42052180243">
        <ele>15.4</ele>
        <time>2011-03-22T18:32:44Z</time>
      </trkpt>
      <trkpt lat="37.1861416865" lon="-7.42051727621">
        <ele>14.4</ele>
        <time>2011-03-22T18:32:54Z</time>
      </trkpt>
      <trkpt lat="37.1861167922" lon="-7.42053672222">
        <ele>14</ele>
        <time>2011-03-22T18:32:58Z</time>
      </trkpt>
      <trkpt lat="37.1861020401" lon="-7.42058173302">
        <ele>13.8</ele>
        <time>2011-03-22T18:33:02Z</time>
      </trkpt>
      <trkpt lat="37.1860920656" lon="-7.42061232695">
        <ele>13.6</ele>
        <time>2011-03-22T18:33:05Z</time>
      </trkpt>
      <trkpt lat="37.1860707756" lon="-7.42067510738">
        <ele>13.6</ele>
        <time>2011-03-22T18:33:09Z</time>
      </trkpt>
      <trkpt lat="37.186058538" lon="-7.42071567578">
        <ele>13.4</ele>
        <time>2011-03-22T18:33:12Z</time>
      </trkpt>
      <trkpt lat="37.1860398464" lon="-7.42076990667">
        <ele>13.4</ele>
        <time>2011-03-22T18:33:16Z</time>
      </trkpt>
      <trkpt lat="37.1860263515" lon="-7.42081013979">
        <ele>13.4</ele>
        <time>2011-03-22T18:33:19Z</time>
      </trkpt>
      <trkpt lat="37.1860131081" lon="-7.4208600121">
        <ele>13.4</ele>
        <time>2011-03-22T18:33:23Z</time>
      </trkpt>
      <trkpt lat="37.1860002838" lon="-7.4209134048">
        <ele>13.4</ele>
        <time>2011-03-22T18:33:27Z</time>
      </trkpt>
      <trkpt lat="37.1859789938" lon="-7.42097685578">
        <ele>13.4</ele>
        <time>2011-03-22T18:33:30Z</time>
      </trkpt>
      <trkpt lat="37.1859574523" lon="-7.42104416244">
        <ele>13.4</ele>
        <time>2011-03-22T18:33:33Z</time>
      </trkpt>
      <trkpt lat="37.185934905" lon="-7.42109244219">
        <ele>13.4</ele>
        <time>2011-03-22T18:33:36Z</time>
      </trkpt>
      <trkpt lat="37.1859152075" lon="-7.42116813074">
        <ele>13.4</ele>
        <time>2011-03-22T18:33:39Z</time>
      </trkpt>
      <trkpt lat="37.1859135311" lon="-7.42124055036">
        <ele>13.4</ele>
        <time>2011-03-22T18:33:41Z</time>
      </trkpt>
      <trkpt lat="37.1859230027" lon="-7.42130861139">
        <ele>13.4</ele>
        <time>2011-03-22T18:33:43Z</time>
      </trkpt>
      <trkpt lat="37.1859392636" lon="-7.42137382257">
        <ele>13.4</ele>
        <time>2011-03-22T18:33:45Z</time>
      </trkpt>
      <trkpt lat="37.1859530099" lon="-7.42143878229">
        <ele>13.4</ele>
        <time>2011-03-22T18:33:47Z</time>
      </trkpt>
      <trkpt lat="37.1859567817" lon="-7.42150298765">
        <ele>13.4</ele>
        <time>2011-03-22T18:33:49Z</time>
      </trkpt>
      <trkpt lat="37.1859530099" lon="-7.42156023602">
        <ele>13.4</ele>
        <time>2011-03-22T18:33:51Z</time>
      </trkpt>
      <trkpt lat="37.1859364137" lon="-7.4216377686">
        <ele>13.4</ele>
        <time>2011-03-22T18:33:54Z</time>
      </trkpt>
      <trkpt lat="37.1859045625" lon="-7.42168261176">
        <ele>13.6</ele>
        <time>2011-03-22T18:33:56Z</time>
      </trkpt>
      <trkpt lat="37.1858733818" lon="-7.42172183906">
        <ele>13.8</ele>
        <time>2011-03-22T18:33:58Z</time>
      </trkpt>
      <trkpt lat="37.1858345736" lon="-7.42175268445">
        <ele>14.2</ele>
        <time>2011-03-22T18:34:00Z</time>
      </trkpt>
      <trkpt lat="37.1857795884" lon="-7.42179735998">
        <ele>14.4</ele>
        <time>2011-03-22T18:34:03Z</time>
      </trkpt>
      <trkpt lat="37.1857393553" lon="-7.42183197722">
        <ele>14.6</ele>
        <time>2011-03-22T18:34:05Z</time>
      </trkpt>
      <trkpt lat="37.1856902373" lon="-7.42188369355">
        <ele>14.8</ele>
        <time>2011-03-22T18:34:08Z</time>
      </trkpt>
      <trkpt lat="37.1856505071" lon="-7.42194496523">
        <ele>15</ele>
        <time>2011-03-22T18:34:11Z</time>
      </trkpt>
      <trkpt lat="37.1856246071" lon="-7.42202182726">
        <ele>15.2</ele>
        <time>2011-03-22T18:34:14Z</time>
      </trkpt>
      <trkpt lat="37.1856026465" lon="-7.42210916666">
        <ele>15.6</ele>
        <time>2011-03-22T18:34:17Z</time>
      </trkpt>
      <trkpt lat="37.1855894869" lon="-7.42216322991">
        <ele>16</ele>
        <time>2011-03-22T18:34:19Z</time>
      </trkpt>
      <trkpt lat="37.1855698732" lon="-7.42223129094">
        <ele>16.4</ele>
        <time>2011-03-22T18:34:22Z</time>
      </trkpt>
      <trkpt lat="37.1855551211" lon="-7.42228786876">
        <ele>16.6</ele>
        <time>2011-03-22T18:34:24Z</time>
      </trkpt>
      <trkpt lat="37.1855334958" lon="-7.42235307995">
        <ele>16.8</ele>
        <time>2011-03-22T18:34:27Z</time>
      </trkpt>
      <trkpt lat="37.1855135469" lon="-7.42242055424">
        <ele>17</ele>
        <time>2011-03-22T18:34:30Z</time>
      </trkpt>
      <trkpt lat="37.1855019799" lon="-7.42248341849">
        <ele>17</ele>
        <time>2011-03-22T18:34:32Z</time>
      </trkpt>
      <trkpt lat="37.1854821986" lon="-7.4225650582">
        <ele>17.2</ele>
        <time>2011-03-22T18:34:36Z</time>
      </trkpt>
      <trkpt lat="37.1854488386" lon="-7.42264661408">
        <ele>17.6</ele>
        <time>2011-03-22T18:34:39Z</time>
      </trkpt>
      <trkpt lat="37.1854328292" lon="-7.42270662849">
        <ele>18</ele>
        <time>2011-03-22T18:34:41Z</time>
      </trkpt>
      <trkpt lat="37.185405588" lon="-7.4227896093">
        <ele>18.4</ele>
        <time>2011-03-22T18:34:44Z</time>
      </trkpt>
      <trkpt lat="37.1853837951" lon="-7.42286546549">
        <ele>18.6</ele>
        <time>2011-03-22T18:34:47Z</time>
      </trkpt>
      <trkpt lat="37.185359739" lon="-7.42293889094">
        <ele>18.8</ele>
        <time>2011-03-22T18:34:50Z</time>
      </trkpt>
      <trkpt lat="37.1853411312" lon="-7.4229987377">
        <ele>19</ele>
        <time>2011-03-22T18:34:52Z</time>
      </trkpt>
      <trkpt lat="37.1853226072" lon="-7.42308113178">
        <ele>19.2</ele>
        <time>2011-03-22T18:34:55Z</time>
      </trkpt>
      <trkpt lat="37.185304167" lon="-7.42314005654">
        <ele>19.2</ele>
        <time>2011-03-22T18:34:57Z</time>
      </trkpt>
      <trkpt lat="37.1852804462" lon="-7.42322253443">
        <ele>19.2</ele>
        <time>2011-03-22T18:35:00Z</time>
      </trkpt>
      <trkpt lat="37.1852521154" lon="-7.42330962237">
        <ele>19.4</ele>
        <time>2011-03-22T18:35:03Z</time>
      </trkpt>
      <trkpt lat="37.1852347649" lon="-7.42336611638">
        <ele>19.4</ele>
        <time>2011-03-22T18:35:05Z</time>
      </trkpt>
      <trkpt lat="37.1852170791" lon="-7.42343535087">
        <ele>19.4</ele>
        <time>2011-03-22T18:35:07Z</time>
      </trkpt>
      <trkpt lat="37.1852016564" lon="-7.42349536528">
        <ele>19.4</ele>
        <time>2011-03-22T18:35:09Z</time>
      </trkpt>
      <trkpt lat="37.1851854793" lon="-7.4235554635">
        <ele>19.4</ele>
        <time>2011-03-22T18:35:11Z</time>
      </trkpt>
      <trkpt lat="37.1851595792" lon="-7.42364028833">
        <ele>19.4</ele>
        <time>2011-03-22T18:35:14Z</time>
      </trkpt>
      <trkpt lat="37.1851413905" lon="-7.42369787198">
        <ele>19.4</ele>
        <time>2011-03-22T18:35:16Z</time>
      </trkpt>
      <trkpt lat="37.1851139817" lon="-7.42377984696">
        <ele>19.4</ele>
        <time>2011-03-22T18:35:19Z</time>
      </trkpt>
      <trkpt lat="37.1850879978" lon="-7.42386366596">
        <ele>19.4</ele>
        <time>2011-03-22T18:35:22Z</time>
      </trkpt>
      <trkpt lat="37.1850590803" lon="-7.42394446748">
        <ele>19.4</ele>
        <time>2011-03-22T18:35:25Z</time>
      </trkpt>
      <trkpt lat="37.1850424841" lon="-7.42400096149">
        <ele>19.4</ele>
        <time>2011-03-22T18:35:27Z</time>
      </trkpt>
      <trkpt lat="37.1850193501" lon="-7.42407991898">
        <ele>19.4</ele>
        <time>2011-03-22T18:35:30Z</time>
      </trkpt>
      <trkpt lat="37.1850040112" lon="-7.42413850846">
        <ele>19.4</ele>
        <time>2011-03-22T18:35:32Z</time>
      </trkpt>
      <trkpt lat="37.1849858225" lon="-7.42420187563">
        <ele>19.4</ele>
        <time>2011-03-22T18:35:34Z</time>
      </trkpt>
      <trkpt lat="37.1849713218" lon="-7.42425132884">
        <ele>19.4</ele>
        <time>2011-03-22T18:35:36Z</time>
      </trkpt>
      <trkpt lat="37.1849456732" lon="-7.42434545758">
        <ele>19.4</ele>
        <time>2011-03-22T18:35:39Z</time>
      </trkpt>
      <trkpt lat="37.184927233" lon="-7.42442332543">
        <ele>19.4</ele>
        <time>2011-03-22T18:35:42Z</time>
      </trkpt>
      <trkpt lat="37.1849086252" lon="-7.42449675087">
        <ele>19.4</ele>
        <time>2011-03-22T18:35:45Z</time>
      </trkpt>
      <trkpt lat="37.1848895982" lon="-7.4245577711">
        <ele>19.4</ele>
        <time>2011-03-22T18:35:47Z</time>
      </trkpt>
      <trkpt lat="37.1848727506" lon="-7.42461560621">
        <ele>19.4</ele>
        <time>2011-03-22T18:35:49Z</time>
      </trkpt>
      <trkpt lat="37.1848567412" lon="-7.42467268695">
        <ele>19.4</ele>
        <time>2011-03-22T18:35:51Z</time>
      </trkpt>
      <trkpt lat="37.184831344" lon="-7.4247558354">
        <ele>19.4</ele>
        <time>2011-03-22T18:35:54Z</time>
      </trkpt>
      <trkpt lat="37.1848074556" lon="-7.42483487672">
        <ele>19.4</ele>
        <time>2011-03-22T18:35:57Z</time>
      </trkpt>
      <trkpt lat="37.1847860818" lon="-7.4249119902">
        <ele>19.4</ele>
        <time>2011-03-22T18:36:00Z</time>
      </trkpt>
      <trkpt lat="37.184757248" lon="-7.42499807231">
        <ele>19.4</ele>
        <time>2011-03-22T18:36:03Z</time>
      </trkpt>
      <trkpt lat="37.184738724" lon="-7.42505180029">
        <ele>19.4</ele>
        <time>2011-03-22T18:36:05Z</time>
      </trkpt>
      <trkpt lat="37.1847217926" lon="-7.42510938394">
        <ele>19.4</ele>
        <time>2011-03-22T18:36:07Z</time>
      </trkpt>
      <trkpt lat="37.1846957249" lon="-7.42518968254">
        <ele>19.4</ele>
        <time>2011-03-22T18:36:10Z</time>
      </trkpt>
      <trkpt lat="37.1846814757" lon="-7.42525137333">
        <ele>19.4</ele>
        <time>2011-03-22T18:36:12Z</time>
      </trkpt>
      <trkpt lat="37.1846647957" lon="-7.42531071718">
        <ele>19.4</ele>
        <time>2011-03-22T18:36:14Z</time>
      </trkpt>
      <trkpt lat="37.1846435895" lon="-7.42537190505">
        <ele>19.4</ele>
        <time>2011-03-22T18:36:16Z</time>
      </trkpt>
      <trkpt lat="37.1846248978" lon="-7.42543150036">
        <ele>19.4</ele>
        <time>2011-03-22T18:36:18Z</time>
      </trkpt>
      <trkpt lat="37.1846076311" lon="-7.4254850607">
        <ele>19.4</ele>
        <time>2011-03-22T18:36:20Z</time>
      </trkpt>
      <trkpt lat="37.1845837427" lon="-7.42554926605">
        <ele>19.4</ele>
        <time>2011-03-22T18:36:22Z</time>
      </trkpt>
      <trkpt lat="37.1845620336" lon="-7.42561296849">
        <ele>19.4</ele>
        <time>2011-03-22T18:36:24Z</time>
      </trkpt>
      <trkpt lat="37.184540995" lon="-7.4256941891">
        <ele>19.4</ele>
        <time>2011-03-22T18:36:27Z</time>
      </trkpt>
      <trkpt lat="37.1845208785" lon="-7.42575596371">
        <ele>19.4</ele>
        <time>2011-03-22T18:36:29Z</time>
      </trkpt>
      <trkpt lat="37.184511826" lon="-7.42578555181">
        <ele>19.4</ele>
        <time>2011-03-22T18:36:30Z</time>
      </trkpt>
      <trkpt lat="37.1844833275" lon="-7.42588487733">
        <ele>19.4</ele>
        <time>2011-03-22T18:36:33Z</time>
      </trkpt>
      <trkpt lat="37.1844643006" lon="-7.42593835385">
        <ele>19.4</ele>
        <time>2011-03-22T18:36:35Z</time>
      </trkpt>
      <trkpt lat="37.1844467825" lon="-7.42599711097">
        <ele>19.4</ele>
        <time>2011-03-22T18:36:37Z</time>
      </trkpt>
      <trkpt lat="37.1844238161" lon="-7.4260881384">
        <ele>19.4</ele>
        <time>2011-03-22T18:36:40Z</time>
      </trkpt>
      <trkpt lat="37.184404873" lon="-7.42614706316">
        <ele>19.4</ele>
        <time>2011-03-22T18:36:42Z</time>
      </trkpt>
      <trkpt lat="37.1843930545" lon="-7.42621747112">
        <ele>19.4</ele>
        <time>2011-03-22T18:36:45Z</time>
      </trkpt>
      <trkpt lat="37.1843670706" lon="-7.42630548107">
        <ele>19.4</ele>
        <time>2011-03-22T18:36:48Z</time>
      </trkpt>
      <trkpt lat="37.1843505583" lon="-7.4263634">
        <ele>19.4</ele>
        <time>2011-03-22T18:36:50Z</time>
      </trkpt>
      <trkpt lat="37.1843302741" lon="-7.42642165421">
        <ele>19.4</ele>
        <time>2011-03-22T18:36:52Z</time>
      </trkpt>
      <trkpt lat="37.1843127559" lon="-7.42647856731">
        <ele>19.4</ele>
        <time>2011-03-22T18:36:54Z</time>
      </trkpt>
      <trkpt lat="37.1842981714" lon="-7.42653732443">
        <ele>19.4</ele>
        <time>2011-03-22T18:36:56Z</time>
      </trkpt>
      <trkpt lat="37.1842826649" lon="-7.42659306406">
        <ele>19.4</ele>
        <time>2011-03-22T18:36:58Z</time>
      </trkpt>
      <trkpt lat="37.184263135" lon="-7.42664737877">
        <ele>19.4</ele>
        <time>2011-03-22T18:37:00Z</time>
      </trkpt>
      <trkpt lat="37.1842461198" lon="-7.42670496243">
        <ele>19.4</ele>
        <time>2011-03-22T18:37:02Z</time>
      </trkpt>
      <trkpt lat="37.1842288531" lon="-7.42676154025">
        <ele>19.4</ele>
        <time>2011-03-22T18:37:04Z</time>
      </trkpt>
      <trkpt lat="37.1842131789" lon="-7.42681820189">
        <ele>19.4</ele>
        <time>2011-03-22T18:37:06Z</time>
      </trkpt>
      <trkpt lat="37.1841979239" lon="-7.42687578555">
        <ele>19.4</ele>
        <time>2011-03-22T18:37:08Z</time>
      </trkpt>
      <trkpt lat="37.1841800704" lon="-7.42693395593">
        <ele>19.4</ele>
        <time>2011-03-22T18:37:10Z</time>
      </trkpt>
      <trkpt lat="37.1841610435" lon="-7.42699229396">
        <ele>19.4</ele>
        <time>2011-03-22T18:37:12Z</time>
      </trkpt>
      <trkpt lat="37.1841440282" lon="-7.4270471954">
        <ele>19.4</ele>
        <time>2011-03-22T18:37:14Z</time>
      </trkpt>
      <trkpt lat="37.1841166194" lon="-7.42713235551">
        <ele>19</ele>
        <time>2011-03-22T18:37:17Z</time>
      </trkpt>
      <trkpt lat="37.1840991851" lon="-7.42718901715">
        <ele>18.6</ele>
        <time>2011-03-22T18:37:19Z</time>
      </trkpt>
      <trkpt lat="37.184076051" lon="-7.42727434489">
        <ele>18.4</ele>
        <time>2011-03-22T18:37:22Z</time>
      </trkpt>
      <trkpt lat="37.1840580299" lon="-7.42733419166">
        <ele>18.2</ele>
        <time>2011-03-22T18:37:24Z</time>
      </trkpt>
      <trkpt lat="37.1840416852" lon="-7.42738825491">
        <ele>18</ele>
        <time>2011-03-22T18:37:26Z</time>
      </trkpt>
      <trkpt lat="37.1840250053" lon="-7.42744097706">
        <ele>18</ele>
        <time>2011-03-22T18:37:28Z</time>
      </trkpt>
      <trkpt lat="37.1840092473" lon="-7.4274984769">
        <ele>17.8</ele>
        <time>2011-03-22T18:37:30Z</time>
      </trkpt>
      <trkpt lat="37.1839861132" lon="-7.42758497811">
        <ele>17.8</ele>
        <time>2011-03-22T18:37:33Z</time>
      </trkpt>
      <trkpt lat="37.1839589559" lon="-7.42767173077">
        <ele>17.6</ele>
        <time>2011-03-22T18:37:36Z</time>
      </trkpt>
      <trkpt lat="37.1839332234" lon="-7.42775504686">
        <ele>17.6</ele>
        <time>2011-03-22T18:37:39Z</time>
      </trkpt>
      <trkpt lat="37.1839133583" lon="-7.42781707292">
        <ele>17.6</ele>
        <time>2011-03-22T18:37:41Z</time>
      </trkpt>
      <trkpt lat="37.1838942476" lon="-7.42787717114">
        <ele>17.6</ele>
        <time>2011-03-22T18:37:43Z</time>
      </trkpt>
      <trkpt lat="37.1838757236" lon="-7.4279312344">
        <ele>17.6</ele>
        <time>2011-03-22T18:37:45Z</time>
      </trkpt>
      <trkpt lat="37.1838571158" lon="-7.42799334427">
        <ele>17.6</ele>
        <time>2011-03-22T18:37:47Z</time>
      </trkpt>
      <trkpt lat="37.183841274" lon="-7.42805059265">
        <ele>17.6</ele>
        <time>2011-03-22T18:37:49Z</time>
      </trkpt>
      <trkpt lat="37.1838235882" lon="-7.42810809249">
        <ele>17.4</ele>
        <time>2011-03-22T18:37:51Z</time>
      </trkpt>
      <trkpt lat="37.1838077464" lon="-7.42816944799">
        <ele>17.4</ele>
        <time>2011-03-22T18:37:53Z</time>
      </trkpt>
      <trkpt lat="37.1837930781" lon="-7.42822393034">
        <ele>17.4</ele>
        <time>2011-03-22T18:37:55Z</time>
      </trkpt>
      <trkpt lat="37.1837727101" lon="-7.42828302274">
        <ele>17.4</ele>
        <time>2011-03-22T18:37:57Z</time>
      </trkpt>
      <trkpt lat="37.1837561139" lon="-7.42833926529">
        <ele>17.4</ele>
        <time>2011-03-22T18:37:59Z</time>
      </trkpt>
      <trkpt lat="37.183731052" lon="-7.42842383866">
        <ele>17.4</ele>
        <time>2011-03-22T18:38:02Z</time>
      </trkpt>
      <trkpt lat="37.1837129471" lon="-7.42848150613">
        <ele>17.4</ele>
        <time>2011-03-22T18:38:04Z</time>
      </trkpt>
      <trkpt lat="37.1836928306" lon="-7.42853649139">
        <ele>17.4</ele>
        <time>2011-03-22T18:38:06Z</time>
      </trkpt>
      <trkpt lat="37.183674558" lon="-7.42859424269">
        <ele>17.4</ele>
        <time>2011-03-22T18:38:08Z</time>
      </trkpt>
      <trkpt lat="37.1836573751" lon="-7.42865174252">
        <ele>17.4</ele>
        <time>2011-03-22T18:38:10Z</time>
      </trkpt>
      <trkpt lat="37.1836298825" lon="-7.42873740554">
        <ele>17.4</ele>
        <time>2011-03-22T18:38:13Z</time>
      </trkpt>
      <trkpt lat="37.183606497" lon="-7.42881535721">
        <ele>17.4</ele>
        <time>2011-03-22T18:38:16Z</time>
      </trkpt>
      <trkpt lat="37.1835798425" lon="-7.42889766747">
        <ele>17.4</ele>
        <time>2011-03-22T18:38:19Z</time>
      </trkpt>
      <trkpt lat="37.1835617376" lon="-7.42895810096">
        <ele>17.4</ele>
        <time>2011-03-22T18:38:21Z</time>
      </trkpt>
      <trkpt lat="37.1835437166" lon="-7.42902297687">
        <ele>17.4</ele>
        <time>2011-03-22T18:38:23Z</time>
      </trkpt>
      <trkpt lat="37.1835249411" lon="-7.42908173399">
        <ele>17.4</ele>
        <time>2011-03-22T18:38:25Z</time>
      </trkpt>
      <trkpt lat="37.1835075067" lon="-7.42914057493">
        <ele>17.4</ele>
        <time>2011-03-22T18:38:27Z</time>
      </trkpt>
      <trkpt lat="37.1834905753" lon="-7.42920201425">
        <ele>17.4</ele>
        <time>2011-03-22T18:38:29Z</time>
      </trkpt>
      <trkpt lat="37.1834784216" lon="-7.42926135811">
        <ele>17.4</ele>
        <time>2011-03-22T18:38:31Z</time>
      </trkpt>
      <trkpt lat="37.1834618254" lon="-7.42931902558">
        <ele>17.4</ele>
        <time>2011-03-22T18:38:33Z</time>
      </trkpt>
      <trkpt lat="37.1834454807" lon="-7.42937979435">
        <ele>17.4</ele>
        <time>2011-03-22T18:38:35Z</time>
      </trkpt>
      <trkpt lat="37.1834266214" lon="-7.42943964112">
        <ele>17.4</ele>
        <time>2011-03-22T18:38:37Z</time>
      </trkpt>
      <trkpt lat="37.1834101091" lon="-7.42949730859">
        <ele>17.4</ele>
        <time>2011-03-22T18:38:39Z</time>
      </trkpt>
      <trkpt lat="37.1833941835" lon="-7.42955966993">
        <ele>17.4</ele>
        <time>2011-03-22T18:38:41Z</time>
      </trkpt>
      <trkpt lat="37.18337172" lon="-7.42962337237">
        <ele>17.4</ele>
        <time>2011-03-22T18:38:43Z</time>
      </trkpt>
      <trkpt lat="37.1833520225" lon="-7.42968523079">
        <ele>17.4</ele>
        <time>2011-03-22T18:38:45Z</time>
      </trkpt>
      <trkpt lat="37.1833307325" lon="-7.4297461672">
        <ele>17.4</ele>
        <time>2011-03-22T18:38:47Z</time>
      </trkpt>
      <trkpt lat="37.1833115379" lon="-7.4298070198">
        <ele>17.4</ele>
        <time>2011-03-22T18:38:49Z</time>
      </trkpt>
      <trkpt lat="37.1832949418" lon="-7.42986871058">
        <ele>17.4</ele>
        <time>2011-03-22T18:38:51Z</time>
      </trkpt>
      <trkpt lat="37.1832792676" lon="-7.42992629423">
        <ele>17.4</ele>
        <time>2011-03-22T18:38:53Z</time>
      </trkpt>
      <trkpt lat="37.1832599054" lon="-7.42998421316">
        <ele>17.4</ele>
        <time>2011-03-22T18:38:55Z</time>
      </trkpt>
      <trkpt lat="37.1832399565" lon="-7.43005160364">
        <ele>17.4</ele>
        <time>2011-03-22T18:38:57Z</time>
      </trkpt>
      <trkpt lat="37.1832243662" lon="-7.43011270769">
        <ele>17.4</ele>
        <time>2011-03-22T18:38:59Z</time>
      </trkpt>
      <trkpt lat="37.1832062613" lon="-7.4301687826">
        <ele>17.4</ele>
        <time>2011-03-22T18:39:01Z</time>
      </trkpt>
      <trkpt lat="37.1831880725" lon="-7.43022653389">
        <ele>17.4</ele>
        <time>2011-03-22T18:39:03Z</time>
      </trkpt>
      <trkpt lat="37.1831731528" lon="-7.43028671593">
        <ele>17.4</ele>
        <time>2011-03-22T18:39:05Z</time>
      </trkpt>
      <trkpt lat="37.183160999" lon="-7.43033977336">
        <ele>17.4</ele>
        <time>2011-03-22T18:39:07Z</time>
      </trkpt>
      <trkpt lat="37.1831413854" lon="-7.43040246997">
        <ele>17.4</ele>
        <time>2011-03-22T18:39:09Z</time>
      </trkpt>
      <trkpt lat="37.183126717" lon="-7.43046240056">
        <ele>17.4</ele>
        <time>2011-03-22T18:39:11Z</time>
      </trkpt>
      <trkpt lat="37.183109618" lon="-7.4305194813">
        <ele>17.4</ele>
        <time>2011-03-22T18:39:13Z</time>
      </trkpt>
      <trkpt lat="37.1830898367" lon="-7.43057756786">
        <ele>17.4</ele>
        <time>2011-03-22T18:39:15Z</time>
      </trkpt>
      <trkpt lat="37.1830716479" lon="-7.43063766609">
        <ele>17.4</ele>
        <time>2011-03-22T18:39:17Z</time>
      </trkpt>
      <trkpt lat="37.1830544651" lon="-7.4306999436">
        <ele>17.4</ele>
        <time>2011-03-22T18:39:19Z</time>
      </trkpt>
      <trkpt lat="37.1830391262" lon="-7.43075962273">
        <ele>17.4</ele>
        <time>2011-03-22T18:39:21Z</time>
      </trkpt>
      <trkpt lat="37.1830224462" lon="-7.43082039151">
        <ele>17.4</ele>
        <time>2011-03-22T18:39:23Z</time>
      </trkpt>
      <trkpt lat="37.1830086999" lon="-7.43087437094">
        <ele>17.4</ele>
        <time>2011-03-22T18:39:25Z</time>
      </trkpt>
      <trkpt lat="37.1829897568" lon="-7.4309262549">
        <ele>17.4</ele>
        <time>2011-03-22T18:39:27Z</time>
      </trkpt>
      <trkpt lat="37.1829696402" lon="-7.43098911915">
        <ele>17.4</ele>
        <time>2011-03-22T18:39:29Z</time>
      </trkpt>
      <trkpt lat="37.1829504457" lon="-7.43104737336">
        <ele>17.4</ele>
        <time>2011-03-22T18:39:31Z</time>
      </trkpt>
      <trkpt lat="37.1829274793" lon="-7.43110780686">
        <ele>17.4</ele>
        <time>2011-03-22T18:39:33Z</time>
      </trkpt>
      <trkpt lat="37.1829085362" lon="-7.43116329504">
        <ele>17.4</ele>
        <time>2011-03-22T18:39:35Z</time>
      </trkpt>
      <trkpt lat="37.1828907665" lon="-7.43121928613">
        <ele>17.4</ele>
        <time>2011-03-22T18:39:37Z</time>
      </trkpt>
      <trkpt lat="37.1828748409" lon="-7.43127510958">
        <ele>17.4</ele>
        <time>2011-03-22T18:39:39Z</time>
      </trkpt>
      <trkpt lat="37.1828591668" lon="-7.43133369906">
        <ele>17.4</ele>
        <time>2011-03-22T18:39:41Z</time>
      </trkpt>
      <trkpt lat="37.1828387988" lon="-7.43138969015">
        <ele>17.4</ele>
        <time>2011-03-22T18:39:43Z</time>
      </trkpt>
      <trkpt lat="37.1828211968" lon="-7.43145045893">
        <ele>17.4</ele>
        <time>2011-03-22T18:39:45Z</time>
      </trkpt>
      <trkpt lat="37.1828061094" lon="-7.43150946751">
        <ele>17.4</ele>
        <time>2011-03-22T18:39:47Z</time>
      </trkpt>
      <trkpt lat="37.1827885074" lon="-7.43156822462">
        <ele>17.4</ele>
        <time>2011-03-22T18:39:49Z</time>
      </trkpt>
      <trkpt lat="37.1827708216" lon="-7.43162530536">
        <ele>17.4</ele>
        <time>2011-03-22T18:39:51Z</time>
      </trkpt>
      <trkpt lat="37.1827469331" lon="-7.4316845654">
        <ele>17.4</ele>
        <time>2011-03-22T18:39:53Z</time>
      </trkpt>
      <trkpt lat="37.1827299179" lon="-7.43173670081">
        <ele>17.4</ele>
        <time>2011-03-22T18:39:55Z</time>
      </trkpt>
      <trkpt lat="37.1827103042" lon="-7.43181943017">
        <ele>17.4</ele>
        <time>2011-03-22T18:39:58Z</time>
      </trkpt>
      <trkpt lat="37.1826952168" lon="-7.43187617563">
        <ele>17.4</ele>
        <time>2011-03-22T18:40:00Z</time>
      </trkpt>
      <trkpt lat="37.1826734239" lon="-7.43195530077">
        <ele>17.4</ele>
        <time>2011-03-22T18:40:03Z</time>
      </trkpt>
      <trkpt lat="37.1826455122" lon="-7.43203677283">
        <ele>17.4</ele>
        <time>2011-03-22T18:40:06Z</time>
      </trkpt>
      <trkpt lat="37.1826253956" lon="-7.43209268011">
        <ele>17.4</ele>
        <time>2011-03-22T18:40:08Z</time>
      </trkpt>
      <trkpt lat="37.1826084642" lon="-7.4321433906">
        <ele>17.4</ele>
        <time>2011-03-22T18:40:10Z</time>
      </trkpt>
      <trkpt lat="37.1825916165" lon="-7.43219829205">
        <ele>17.4</ele>
        <time>2011-03-22T18:40:12Z</time>
      </trkpt>
      <trkpt lat="37.182577032" lon="-7.43224866727">
        <ele>17.4</ele>
        <time>2011-03-22T18:40:14Z</time>
      </trkpt>
      <trkpt lat="37.18255482" lon="-7.43232284708">
        <ele>17.4</ele>
        <time>2011-03-22T18:40:17Z</time>
      </trkpt>
      <trkpt lat="37.1825360445" lon="-7.43238110129">
        <ele>17.4</ele>
        <time>2011-03-22T18:40:19Z</time>
      </trkpt>
      <trkpt lat="37.1825133296" lon="-7.43245620311">
        <ele>17.4</ele>
        <time>2011-03-22T18:40:22Z</time>
      </trkpt>
      <trkpt lat="37.1824949732" lon="-7.43251294857">
        <ele>17.4</ele>
        <time>2011-03-22T18:40:24Z</time>
      </trkpt>
      <trkpt lat="37.1824751081" lon="-7.43256927494">
        <ele>17.4</ele>
        <time>2011-03-22T18:40:26Z</time>
      </trkpt>
      <trkpt lat="37.1824550754" lon="-7.43262400875">
        <ele>17.4</ele>
        <time>2011-03-22T18:40:28Z</time>
      </trkpt>
      <trkpt lat="37.1824365514" lon="-7.43267270759">
        <ele>17.4</ele>
        <time>2011-03-22T18:40:30Z</time>
      </trkpt>
      <trkpt lat="37.182408472" lon="-7.43276247774">
        <ele>17.4</ele>
        <time>2011-03-22T18:40:33Z</time>
      </trkpt>
      <trkpt lat="37.18239087" lon="-7.4328161219">
        <ele>17.8</ele>
        <time>2011-03-22T18:40:35Z</time>
      </trkpt>
      <trkpt lat="37.1823708373" lon="-7.43287814796">
        <ele>18.2</ele>
        <time>2011-03-22T18:40:37Z</time>
      </trkpt>
      <trkpt lat="37.1823524809" lon="-7.43293455814">
        <ele>18.4</ele>
        <time>2011-03-22T18:40:39Z</time>
      </trkpt>
      <trkpt lat="37.1823337893" lon="-7.43299113597">
        <ele>18.6</ele>
        <time>2011-03-22T18:40:41Z</time>
      </trkpt>
      <trkpt lat="37.1823133375" lon="-7.43305115037">
        <ele>18.8</ele>
        <time>2011-03-22T18:40:43Z</time>
      </trkpt>
      <trkpt lat="37.1822954002" lon="-7.43310529745">
        <ele>19</ele>
        <time>2011-03-22T18:40:45Z</time>
      </trkpt>
      <trkpt lat="37.1822842523" lon="-7.4331280124">
        <ele>19</ele>
        <time>2011-03-22T18:40:46Z</time>
      </trkpt>
      <trkpt lat="37.1822578493" lon="-7.43321971038">
        <ele>19.2</ele>
        <time>2011-03-22T18:40:49Z</time>
      </trkpt>
      <trkpt lat="37.1822448573" lon="-7.43328098207">
        <ele>19.2</ele>
        <time>2011-03-22T18:40:51Z</time>
      </trkpt>
      <trkpt lat="37.1822253275" lon="-7.43334401396">
        <ele>19.2</ele>
        <time>2011-03-22T18:40:53Z</time>
      </trkpt>
      <trkpt lat="37.1822086475" lon="-7.43340511801">
        <ele>19.4</ele>
        <time>2011-03-22T18:40:55Z</time>
      </trkpt>
      <trkpt lat="37.1821896206" lon="-7.43346521623">
        <ele>19.4</ele>
        <time>2011-03-22T18:40:57Z</time>
      </trkpt>
      <trkpt lat="37.1821721863" lon="-7.43352187788">
        <ele>19.4</ele>
        <time>2011-03-22T18:40:59Z</time>
      </trkpt>
      <trkpt lat="37.1821568474" lon="-7.43358013208">
        <ele>19.4</ele>
        <time>2011-03-22T18:41:01Z</time>
      </trkpt>
      <trkpt lat="37.1821422629" lon="-7.43363922448">
        <ele>19.4</ele>
        <time>2011-03-22T18:41:03Z</time>
      </trkpt>
      <trkpt lat="37.1821282651" lon="-7.43369412592">
        <ele>19.4</ele>
        <time>2011-03-22T18:41:05Z</time>
      </trkpt>
      <trkpt lat="37.1821095735" lon="-7.43375439178">
        <ele>19.6</ele>
        <time>2011-03-22T18:41:07Z</time>
      </trkpt>
      <trkpt lat="37.1820804045" lon="-7.43382974506">
        <ele>20.2</ele>
        <time>2011-03-22T18:41:10Z</time>
      </trkpt>
      <trkpt lat="37.1820581924" lon="-7.43388925655">
        <ele>20.4</ele>
        <time>2011-03-22T18:41:12Z</time>
      </trkpt>
      <trkpt lat="37.182042183" lon="-7.43394935478">
        <ele>20.6</ele>
        <time>2011-03-22T18:41:14Z</time>
      </trkpt>
      <trkpt lat="37.1820251677" lon="-7.43401397922">
        <ele>20.8</ele>
        <time>2011-03-22T18:41:16Z</time>
      </trkpt>
      <trkpt lat="37.1820104156" lon="-7.43407667584">
        <ele>21</ele>
        <time>2011-03-22T18:41:18Z</time>
      </trkpt>
      <trkpt lat="37.1819947414" lon="-7.43413275075">
        <ele>21</ele>
        <time>2011-03-22T18:41:20Z</time>
      </trkpt>
      <trkpt lat="37.181976888" lon="-7.43419494445">
        <ele>21.2</ele>
        <time>2011-03-22T18:41:22Z</time>
      </trkpt>
      <trkpt lat="37.1819556818" lon="-7.4342595689">
        <ele>21.2</ele>
        <time>2011-03-22T18:41:24Z</time>
      </trkpt>
      <trkpt lat="37.1819387503" lon="-7.43431723637">
        <ele>21.4</ele>
        <time>2011-03-22T18:41:26Z</time>
      </trkpt>
      <trkpt lat="37.1819233276" lon="-7.43436618666">
        <ele>21.4</ele>
        <time>2011-03-22T18:41:28Z</time>
      </trkpt>
      <trkpt lat="37.1818944101" lon="-7.43446551218">
        <ele>21.4</ele>
        <time>2011-03-22T18:41:31Z</time>
      </trkpt>
      <trkpt lat="37.1818747126" lon="-7.43452359875">
        <ele>21.4</ele>
        <time>2011-03-22T18:41:33Z</time>
      </trkpt>
      <trkpt lat="37.1818571106" lon="-7.43458260732">
        <ele>21.4</ele>
        <time>2011-03-22T18:41:35Z</time>
      </trkpt>
      <trkpt lat="37.1818315458" lon="-7.43466692924">
        <ele>21.4</ele>
        <time>2011-03-22T18:41:38Z</time>
      </trkpt>
      <trkpt lat="37.1818167099" lon="-7.43472937439">
        <ele>21.6</ele>
        <time>2011-03-22T18:41:40Z</time>
      </trkpt>
      <trkpt lat="37.1818000299" lon="-7.43479416648">
        <ele>21.6</ele>
        <time>2011-03-22T18:41:42Z</time>
      </trkpt>
      <trkpt lat="37.181782847" lon="-7.43485351033">
        <ele>21.6</ele>
        <time>2011-03-22T18:41:44Z</time>
      </trkpt>
      <trkpt lat="37.1817645745" lon="-7.43491101016">
        <ele>21.6</ele>
        <time>2011-03-22T18:41:46Z</time>
      </trkpt>
      <trkpt lat="37.18174999" lon="-7.43496783945">
        <ele>21.6</ele>
        <time>2011-03-22T18:41:48Z</time>
      </trkpt>
      <trkpt lat="37.1817335614" lon="-7.4350267642">
        <ele>21.6</ele>
        <time>2011-03-22T18:41:50Z</time>
      </trkpt>
      <trkpt lat="37.181714786" lon="-7.43508225238">
        <ele>21.6</ele>
        <time>2011-03-22T18:41:52Z</time>
      </trkpt>
      <trkpt lat="37.1817024646" lon="-7.43514570336">
        <ele>21.6</ele>
        <time>2011-03-22T18:41:54Z</time>
      </trkpt>
      <trkpt lat="37.1816817613" lon="-7.43520898671">
        <ele>21.6</ele>
        <time>2011-03-22T18:41:56Z</time>
      </trkpt>
      <trkpt lat="37.1816660871" lon="-7.43526657036">
        <ele>21.6</ele>
        <time>2011-03-22T18:41:58Z</time>
      </trkpt>
      <trkpt lat="37.1816478984" lon="-7.43532935079">
        <ele>21.6</ele>
        <time>2011-03-22T18:42:00Z</time>
      </trkpt>
      <trkpt lat="37.1816278657" lon="-7.43538768882">
        <ele>21.6</ele>
        <time>2011-03-22T18:42:02Z</time>
      </trkpt>
      <trkpt lat="37.1816095931" lon="-7.43544736794">
        <ele>21.6</ele>
        <time>2011-03-22T18:42:04Z</time>
      </trkpt>
      <trkpt lat="37.1815882193" lon="-7.43550285612">
        <ele>21.6</ele>
        <time>2011-03-22T18:42:06Z</time>
      </trkpt>
      <trkpt lat="37.1815739701" lon="-7.43555960159">
        <ele>21.6</ele>
        <time>2011-03-22T18:42:08Z</time>
      </trkpt>
      <trkpt lat="37.1815606428" lon="-7.43561819107">
        <ele>21.6</ele>
        <time>2011-03-22T18:42:10Z</time>
      </trkpt>
      <trkpt lat="37.1815395204" lon="-7.43568038476">
        <ele>21.6</ele>
        <time>2011-03-22T18:42:12Z</time>
      </trkpt>
      <trkpt lat="37.1815206612" lon="-7.43574425484">
        <ele>21.6</ele>
        <time>2011-03-22T18:42:14Z</time>
      </trkpt>
      <trkpt lat="37.1815007961" lon="-7.4358031796">
        <ele>21.6</ele>
        <time>2011-03-22T18:42:16Z</time>
      </trkpt>
      <trkpt lat="37.1814783326" lon="-7.43586830696">
        <ele>21.6</ele>
        <time>2011-03-22T18:42:18Z</time>
      </trkpt>
      <trkpt lat="37.1814602277" lon="-7.43593502689">
        <ele>21.6</ele>
        <time>2011-03-22T18:42:20Z</time>
      </trkpt>
      <trkpt lat="37.1814419551" lon="-7.43599478983">
        <ele>21.6</ele>
        <time>2011-03-22T18:42:22Z</time>
      </trkpt>
      <trkpt lat="37.1814249399" lon="-7.43605673207">
        <ele>21.6</ele>
        <time>2011-03-22T18:42:24Z</time>
      </trkpt>
      <trkpt lat="37.1814071702" lon="-7.43611900959">
        <ele>21.6</ele>
        <time>2011-03-22T18:42:26Z</time>
      </trkpt>
      <trkpt lat="37.1813894006" lon="-7.43617734762">
        <ele>21.6</ele>
        <time>2011-03-22T18:42:28Z</time>
      </trkpt>
      <trkpt lat="37.1813751514" lon="-7.43620349914">
        <ele>21.6</ele>
        <time>2011-03-22T18:42:29Z</time>
      </trkpt>
      <trkpt lat="37.1813560407" lon="-7.4363078538">
        <ele>21.6</ele>
        <time>2011-03-22T18:42:32Z</time>
      </trkpt>
      <trkpt lat="37.1813425458" lon="-7.43635806138">
        <ele>21.6</ele>
        <time>2011-03-22T18:42:34Z</time>
      </trkpt>
      <trkpt lat="37.1813216749" lon="-7.43643391757">
        <ele>21.6</ele>
        <time>2011-03-22T18:42:36Z</time>
      </trkpt>
      <trkpt lat="37.1813023127" lon="-7.43650046986">
        <ele>21.6</ele>
        <time>2011-03-22T18:42:38Z</time>
      </trkpt>
      <trkpt lat="37.181283621" lon="-7.43655964607">
        <ele>21.6</ele>
        <time>2011-03-22T18:42:40Z</time>
      </trkpt>
      <trkpt lat="37.1812644265" lon="-7.43661831937">
        <ele>21.6</ele>
        <time>2011-03-22T18:42:42Z</time>
      </trkpt>
      <trkpt lat="37.1812463216" lon="-7.43667565157">
        <ele>21.6</ele>
        <time>2011-03-22T18:42:44Z</time>
      </trkpt>
      <trkpt lat="37.1812288872" lon="-7.43673717472">
        <ele>21.6</ele>
        <time>2011-03-22T18:42:46Z</time>
      </trkpt>
      <trkpt lat="37.1812116205" lon="-7.43680607393">
        <ele>21.6</ele>
        <time>2011-03-22T18:42:48Z</time>
      </trkpt>
      <trkpt lat="37.1811931803" lon="-7.43686533397">
        <ele>21.6</ele>
        <time>2011-03-22T18:42:50Z</time>
      </trkpt>
      <trkpt lat="37.1811760813" lon="-7.43692518073">
        <ele>21.6</ele>
        <time>2011-03-22T18:42:52Z</time>
      </trkpt>
      <trkpt lat="37.1811582278" lon="-7.43698905081">
        <ele>21.6</ele>
        <time>2011-03-22T18:42:54Z</time>
      </trkpt>
      <trkpt lat="37.1811400391" lon="-7.43705283707">
        <ele>21.6</ele>
        <time>2011-03-22T18:42:56Z</time>
      </trkpt>
      <trkpt lat="37.18111833" lon="-7.43710815761">
        <ele>21.6</ele>
        <time>2011-03-22T18:42:58Z</time>
      </trkpt>
      <trkpt lat="37.1810987163" lon="-7.43717462608">
        <ele>21.6</ele>
        <time>2011-03-22T18:43:00Z</time>
      </trkpt>
      <trkpt lat="37.1810867302" lon="-7.4372395858">
        <ele>21.6</ele>
        <time>2011-03-22T18:43:02Z</time>
      </trkpt>
      <trkpt lat="37.181066446" lon="-7.43730186332">
        <ele>21.6</ele>
        <time>2011-03-22T18:43:04Z</time>
      </trkpt>
      <trkpt lat="37.1810463295" lon="-7.43736648777">
        <ele>21.6</ele>
        <time>2011-03-22T18:43:06Z</time>
      </trkpt>
      <trkpt lat="37.1810319964" lon="-7.43742834619">
        <ele>21.6</ele>
        <time>2011-03-22T18:43:08Z</time>
      </trkpt>
      <trkpt lat="37.1810158193" lon="-7.43748877969">
        <ele>21.6</ele>
        <time>2011-03-22T18:43:10Z</time>
      </trkpt>
      <trkpt lat="37.180996541" lon="-7.43755340414">
        <ele>21.6</ele>
        <time>2011-03-22T18:43:12Z</time>
      </trkpt>
      <trkpt lat="37.1809762568" lon="-7.43761073633">
        <ele>21.6</ele>
        <time>2011-03-22T18:43:14Z</time>
      </trkpt>
      <trkpt lat="37.1809574813" lon="-7.43767200802">
        <ele>21.6</ele>
        <time>2011-03-22T18:43:16Z</time>
      </trkpt>
      <trkpt lat="37.1809431483" lon="-7.43773327971">
        <ele>21.6</ele>
        <time>2011-03-22T18:43:18Z</time>
      </trkpt>
      <trkpt lat="37.1809287314" lon="-7.43778943844">
        <ele>21.4</ele>
        <time>2011-03-22T18:43:20Z</time>
      </trkpt>
      <trkpt lat="37.1809111294" lon="-7.43784375315">
        <ele>21</ele>
        <time>2011-03-22T18:43:22Z</time>
      </trkpt>
      <trkpt lat="37.180893276" lon="-7.43790561158">
        <ele>20.8</ele>
        <time>2011-03-22T18:43:24Z</time>
      </trkpt>
      <trkpt lat="37.1808750872" lon="-7.43796797291">
        <ele>20.6</ele>
        <time>2011-03-22T18:43:26Z</time>
      </trkpt>
      <trkpt lat="37.1808583234" lon="-7.43802538893">
        <ele>20.4</ele>
        <time>2011-03-22T18:43:28Z</time>
      </trkpt>
      <trkpt lat="37.1808415596" lon="-7.4380927794">
        <ele>20.2</ele>
        <time>2011-03-22T18:43:30Z</time>
      </trkpt>
      <trkpt lat="37.1808208563" lon="-7.43815514074">
        <ele>20</ele>
        <time>2011-03-22T18:43:32Z</time>
      </trkpt>
      <trkpt lat="37.180797387" lon="-7.43823317623">
        <ele>20</ele>
        <time>2011-03-22T18:43:35Z</time>
      </trkpt>
      <trkpt lat="37.1807755941" lon="-7.43830417092">
        <ele>19.8</ele>
        <time>2011-03-22T18:43:37Z</time>
      </trkpt>
      <trkpt lat="37.1807653682" lon="-7.43835882091">
        <ele>19.8</ele>
        <time>2011-03-22T18:43:39Z</time>
      </trkpt>
      <trkpt lat="37.1807450001" lon="-7.43842134988">
        <ele>19.8</ele>
        <time>2011-03-22T18:43:41Z</time>
      </trkpt>
      <trkpt lat="37.1807264761" lon="-7.43847918499">
        <ele>19.8</ele>
        <time>2011-03-22T18:43:43Z</time>
      </trkpt>
      <trkpt lat="37.1807060243" lon="-7.4385303984">
        <ele>19.6</ele>
        <time>2011-03-22T18:43:45Z</time>
      </trkpt>
      <trkpt lat="37.1806868298" lon="-7.43859108336">
        <ele>19.6</ele>
        <time>2011-03-22T18:43:47Z</time>
      </trkpt>
      <trkpt lat="37.1806696469" lon="-7.43865604308">
        <ele>19.6</ele>
        <time>2011-03-22T18:43:49Z</time>
      </trkpt>
      <trkpt lat="37.1806581637" lon="-7.43868068587">
        <ele>19.6</ele>
        <time>2011-03-22T18:43:50Z</time>
      </trkpt>
      <trkpt lat="37.1806424057" lon="-7.43874313102">
        <ele>19.6</ele>
        <time>2011-03-22T18:43:52Z</time>
      </trkpt>
      <trkpt lat="37.1806241331" lon="-7.43880867748">
        <ele>19.6</ele>
        <time>2011-03-22T18:43:54Z</time>
      </trkpt>
      <trkpt lat="37.1806051062" lon="-7.43887196083">
        <ele>19.6</ele>
        <time>2011-03-22T18:43:56Z</time>
      </trkpt>
      <trkpt lat="37.1805864146" lon="-7.43893080177">
        <ele>19.6</ele>
        <time>2011-03-22T18:43:58Z</time>
      </trkpt>
      <trkpt lat="37.1805664657" lon="-7.43899106763">
        <ele>19.6</ele>
        <time>2011-03-22T18:44:00Z</time>
      </trkpt>
      <trkpt lat="37.1805448404" lon="-7.43904839982">
        <ele>19.6</ele>
        <time>2011-03-22T18:44:02Z</time>
      </trkpt>
      <trkpt lat="37.1805284119" lon="-7.43910372036">
        <ele>19.6</ele>
        <time>2011-03-22T18:44:04Z</time>
      </trkpt>
      <trkpt lat="37.1805108099" lon="-7.4391660817">
        <ele>19.6</ele>
        <time>2011-03-22T18:44:06Z</time>
      </trkpt>
      <trkpt lat="37.1804923697" lon="-7.43922819158">
        <ele>19.6</ele>
        <time>2011-03-22T18:44:08Z</time>
      </trkpt>
      <trkpt lat="37.1804766117" lon="-7.4392851885">
        <ele>19.6</ele>
        <time>2011-03-22T18:44:10Z</time>
      </trkpt>
      <trkpt lat="37.1804588421" lon="-7.43935249515">
        <ele>19.6</ele>
        <time>2011-03-22T18:44:12Z</time>
      </trkpt>
      <trkpt lat="37.1804422459" lon="-7.43941561086">
        <ele>19.6</ele>
        <time>2011-03-22T18:44:14Z</time>
      </trkpt>
      <trkpt lat="37.1804227999" lon="-7.4394731107">
        <ele>19.6</ele>
        <time>2011-03-22T18:44:16Z</time>
      </trkpt>
      <trkpt lat="37.1804024319" lon="-7.43953781896">
        <ele>19.6</ele>
        <time>2011-03-22T18:44:18Z</time>
      </trkpt>
      <trkpt lat="37.1803847461" lon="-7.43959473206">
        <ele>19.6</ele>
        <time>2011-03-22T18:44:20Z</time>
      </trkpt>
      <trkpt lat="37.1803626179" lon="-7.43965600375">
        <ele>19.6</ele>
        <time>2011-03-22T18:44:22Z</time>
      </trkpt>
      <trkpt lat="37.1803430042" lon="-7.43971626961">
        <ele>19.6</ele>
        <time>2011-03-22T18:44:24Z</time>
      </trkpt>
      <trkpt lat="37.1803281683" lon="-7.43977837949">
        <ele>19.6</ele>
        <time>2011-03-22T18:44:26Z</time>
      </trkpt>
      <trkpt lat="37.1803116559" lon="-7.43984183048">
        <ele>19.6</ele>
        <time>2011-03-22T18:44:28Z</time>
      </trkpt>
      <trkpt lat="37.1802958141" lon="-7.43990109051">
        <ele>19.6</ele>
        <time>2011-03-22T18:44:30Z</time>
      </trkpt>
      <trkpt lat="37.1802781283" lon="-7.43996630169">
        <ele>19.6</ele>
        <time>2011-03-22T18:44:32Z</time>
      </trkpt>
      <trkpt lat="37.1802350454" lon="-7.44012631216">
        <ele>19.6</ele>
        <time>2011-03-22T18:44:37Z</time>
      </trkpt>
      <trkpt lat="37.1802150126" lon="-7.44018833822">
        <ele>19.6</ele>
        <time>2011-03-22T18:44:39Z</time>
      </trkpt>
      <trkpt lat="37.1801974944" lon="-7.44024977755">
        <ele>19.6</ele>
        <time>2011-03-22T18:44:41Z</time>
      </trkpt>
      <trkpt lat="37.1801782161" lon="-7.44031230652">
        <ele>19.6</ele>
        <time>2011-03-22T18:44:43Z</time>
      </trkpt>
      <trkpt lat="37.1801595244" lon="-7.44037030927">
        <ele>19.6</ele>
        <time>2011-03-22T18:44:45Z</time>
      </trkpt>
      <trkpt lat="37.1801405813" lon="-7.4404317486">
        <ele>19.2</ele>
        <time>2011-03-22T18:44:47Z</time>
      </trkpt>
      <trkpt lat="37.1801217221" lon="-7.44049620541">
        <ele>18.8</ele>
        <time>2011-03-22T18:44:49Z</time>
      </trkpt>
      <trkpt lat="37.1801042039" lon="-7.440557058">
        <ele>18.6</ele>
        <time>2011-03-22T18:44:51Z</time>
      </trkpt>
      <trkpt lat="37.1800865181" lon="-7.4406139711">
        <ele>18.4</ele>
        <time>2011-03-22T18:44:53Z</time>
      </trkpt>
      <trkpt lat="37.1800672397" lon="-7.44067415315">
        <ele>18.2</ele>
        <time>2011-03-22T18:44:55Z</time>
      </trkpt>
      <trkpt lat="37.1800487995" lon="-7.44073743649">
        <ele>18.2</ele>
        <time>2011-03-22T18:44:57Z</time>
      </trkpt>
      <trkpt lat="37.1800282639" lon="-7.44079996547">
        <ele>18</ele>
        <time>2011-03-22T18:44:59Z</time>
      </trkpt>
      <trkpt lat="37.1800096561" lon="-7.44085604038">
        <ele>18</ele>
        <time>2011-03-22T18:45:01Z</time>
      </trkpt>
      <trkpt lat="37.1799893719" lon="-7.44091823407">
        <ele>17.8</ele>
        <time>2011-03-22T18:45:03Z</time>
      </trkpt>
      <trkpt lat="37.179971267" lon="-7.44098227179">
        <ele>17.8</ele>
        <time>2011-03-22T18:45:05Z</time>
      </trkpt>
      <trkpt lat="37.1799540841" lon="-7.44104639333">
        <ele>17.8</ele>
        <time>2011-03-22T18:45:07Z</time>
      </trkpt>
      <trkpt lat="37.1799343866" lon="-7.44110649155">
        <ele>17.8</ele>
        <time>2011-03-22T18:45:09Z</time>
      </trkpt>
      <trkpt lat="37.1799157788" lon="-7.44116876907">
        <ele>17.6</ele>
        <time>2011-03-22T18:45:11Z</time>
      </trkpt>
      <trkpt lat="37.1798946564" lon="-7.44124194305">
        <ele>17.6</ele>
        <time>2011-03-22T18:45:14Z</time>
      </trkpt>
      <trkpt lat="37.1798762162" lon="-7.44131335684">
        <ele>17.2</ele>
        <time>2011-03-22T18:45:17Z</time>
      </trkpt>
      <trkpt lat="37.1798623861" lon="-7.44137320361">
        <ele>16.8</ele>
        <time>2011-03-22T18:45:20Z</time>
      </trkpt>
      <trkpt lat="37.1798261763" lon="-7.44145249638">
        <ele>16.4</ele>
        <time>2011-03-22T18:45:23Z</time>
      </trkpt>
      <trkpt lat="37.1798101668" lon="-7.44151795902">
        <ele>16.2</ele>
        <time>2011-03-22T18:45:25Z</time>
      </trkpt>
      <trkpt lat="37.1797929839" lon="-7.44158568477">
        <ele>16</ele>
        <time>2011-03-22T18:45:27Z</time>
      </trkpt>
      <trkpt lat="37.1797648208" lon="-7.44167981351">
        <ele>16</ele>
        <time>2011-03-22T18:45:30Z</time>
      </trkpt>
      <trkpt lat="37.1797492304" lon="-7.4417424263">
        <ele>15.8</ele>
        <time>2011-03-22T18:45:32Z</time>
      </trkpt>
      <trkpt lat="37.179733221" lon="-7.44180545819">
        <ele>15.8</ele>
        <time>2011-03-22T18:45:34Z</time>
      </trkpt>
      <trkpt lat="37.1797182174" lon="-7.44187008264">
        <ele>15.6</ele>
        <time>2011-03-22T18:45:36Z</time>
      </trkpt>
      <trkpt lat="37.1797053931" lon="-7.4419272472">
        <ele>15.6</ele>
        <time>2011-03-22T18:45:38Z</time>
      </trkpt>
      <trkpt lat="37.1796868691" lon="-7.44199145255">
        <ele>15.6</ele>
        <time>2011-03-22T18:45:40Z</time>
      </trkpt>
      <trkpt lat="37.1796711949" lon="-7.44205062876">
        <ele>15.6</ele>
        <time>2011-03-22T18:45:42Z</time>
      </trkpt>
      <trkpt lat="37.1796504916" lon="-7.44210879915">
        <ele>15.6</ele>
        <time>2011-03-22T18:45:44Z</time>
      </trkpt>
      <trkpt lat="37.1796343984" lon="-7.44216479024">
        <ele>15.6</ele>
        <time>2011-03-22T18:45:46Z</time>
      </trkpt>
      <trkpt lat="37.1796184728" lon="-7.44222304445">
        <ele>15.6</ele>
        <time>2011-03-22T18:45:48Z</time>
      </trkpt>
      <trkpt lat="37.1795991106" lon="-7.44228314267">
        <ele>15.6</ele>
        <time>2011-03-22T18:45:50Z</time>
      </trkpt>
      <trkpt lat="37.179580419" lon="-7.44234340853">
        <ele>15.6</ele>
        <time>2011-03-22T18:45:52Z</time>
      </trkpt>
      <trkpt lat="37.1795564467" lon="-7.44240543459">
        <ele>15.4</ele>
        <time>2011-03-22T18:45:54Z</time>
      </trkpt>
      <trkpt lat="37.1795340671" lon="-7.44246838266">
        <ele>15.4</ele>
        <time>2011-03-22T18:45:56Z</time>
      </trkpt>
      <trkpt lat="37.1795163812" lon="-7.44253091163">
        <ele>15.4</ele>
        <time>2011-03-22T18:45:58Z</time>
      </trkpt>
      <trkpt lat="37.1794992822" lon="-7.44259620664">
        <ele>15.4</ele>
        <time>2011-03-22T18:46:00Z</time>
      </trkpt>
      <trkpt lat="37.1794820155" lon="-7.44266074727">
        <ele>15.4</ele>
        <time>2011-03-22T18:46:02Z</time>
      </trkpt>
      <trkpt lat="37.1794615636" lon="-7.44271992348">
        <ele>15.4</ele>
        <time>2011-03-22T18:46:04Z</time>
      </trkpt>
      <trkpt lat="37.1794470629" lon="-7.44278899033">
        <ele>15.4</ele>
        <time>2011-03-22T18:46:06Z</time>
      </trkpt>
      <trkpt lat="37.1794306344" lon="-7.4428492562">
        <ele>15.4</ele>
        <time>2011-03-22T18:46:08Z</time>
      </trkpt>
      <trkpt lat="37.179412781" lon="-7.44290415764">
        <ele>15.4</ele>
        <time>2011-03-22T18:46:10Z</time>
      </trkpt>
      <trkpt lat="37.179394257" lon="-7.4429630824">
        <ele>15.4</ele>
        <time>2011-03-22T18:46:12Z</time>
      </trkpt>
      <trkpt lat="37.1793798401" lon="-7.44302544373">
        <ele>15.4</ele>
        <time>2011-03-22T18:46:14Z</time>
      </trkpt>
      <trkpt lat="37.179364585" lon="-7.44308369794">
        <ele>15.4</ele>
        <time>2011-03-22T18:46:16Z</time>
      </trkpt>
      <trkpt lat="37.1793450552" lon="-7.44314580782">
        <ele>15.4</ele>
        <time>2011-03-22T18:46:18Z</time>
      </trkpt>
      <trkpt lat="37.1793293811" lon="-7.44320582222">
        <ele>15.4</ele>
        <time>2011-03-22T18:46:20Z</time>
      </trkpt>
      <trkpt lat="37.1793169758" lon="-7.44326516607">
        <ele>15.4</ele>
        <time>2011-03-22T18:46:22Z</time>
      </trkpt>
      <trkpt lat="37.1793011341" lon="-7.44332777887">
        <ele>15.4</ele>
        <time>2011-03-22T18:46:24Z</time>
      </trkpt>
      <trkpt lat="37.1792883936" lon="-7.44338553016">
        <ele>15.4</ele>
        <time>2011-03-22T18:46:26Z</time>
      </trkpt>
      <trkpt lat="37.1792790058" lon="-7.443443952">
        <ele>15.4</ele>
        <time>2011-03-22T18:46:28Z</time>
      </trkpt>
      <trkpt lat="37.1792693667" lon="-7.44345945852">
        <ele>15.4</ele>
        <time>2011-03-22T18:46:29Z</time>
      </trkpt>
      <trkpt lat="37.1792370125" lon="-7.44350195475">
        <ele>15.4</ele>
        <time>2011-03-22T18:46:31Z</time>
      </trkpt>
      <trkpt lat="37.1792001322" lon="-7.44355224615">
        <ele>15.4</ele>
        <time>2011-03-22T18:46:34Z</time>
      </trkpt>
      <trkpt lat="37.179167778" lon="-7.44360882397">
        <ele>15.4</ele>
        <time>2011-03-22T18:46:37Z</time>
      </trkpt>
      <trkpt lat="37.1791500922" lon="-7.44362583923">
        <ele>15.4</ele>
        <time>2011-03-22T18:46:38Z</time>
      </trkpt>
      <trkpt lat="37.1791343342" lon="-7.44366900602">
        <ele>15.4</ele>
        <time>2011-03-22T18:46:42Z</time>
      </trkpt>
      <trkpt lat="37.1791324902" lon="-7.4437086524">
        <ele>15.4</ele>
        <time>2011-03-22T18:46:46Z</time>
      </trkpt>
      <trkpt lat="37.1791309815" lon="-7.4437192136">
        <ele>15.4</ele>
        <time>2011-03-22T18:46:47Z</time>
      </trkpt>
      <trkpt lat="37.179122851" lon="-7.44377176811">
        <ele>15.4</ele>
        <time>2011-03-22T18:46:51Z</time>
      </trkpt>
      <trkpt lat="37.1791051652" lon="-7.44381191741">
        <ele>15.4</ele>
        <time>2011-03-22T18:46:54Z</time>
      </trkpt>
      <trkpt lat="37.1791029859" lon="-7.44382625046">
        <ele>15.4</ele>
        <time>2011-03-22T18:46:55Z</time>
      </trkpt>
      <trkpt lat="37.1791008066" lon="-7.44386581303">
        <ele>15.4</ele>
        <time>2011-03-22T18:46:58Z</time>
      </trkpt>
      <trkpt lat="37.1790908322" lon="-7.44391794845">
        <ele>15.4</ele>
        <time>2011-03-22T18:47:02Z</time>
      </trkpt>
      <trkpt lat="37.1790826179" lon="-7.44395818157">
        <ele>15.4</ele>
        <time>2011-03-22T18:47:05Z</time>
      </trkpt>
      <trkpt lat="37.1790754933" lon="-7.44401006553">
        <ele>15.2</ele>
        <time>2011-03-22T18:47:09Z</time>
      </trkpt>
      <trkpt lat="37.179067279" lon="-7.44405591452">
        <ele>14.6</ele>
        <time>2011-03-22T18:47:13Z</time>
      </trkpt>
      <trkpt lat="37.179066357" lon="-7.4441065412">
        <ele>14.2</ele>
        <time>2011-03-22T18:47:17Z</time>
      </trkpt>
      <trkpt lat="37.1790621661" lon="-7.44412942378">
        <ele>14</ele>
        <time>2011-03-22T18:47:19Z</time>
      </trkpt>
      <trkpt lat="37.1790746551" lon="-7.44417904463">
        <ele>13.8</ele>
        <time>2011-03-22T18:47:23Z</time>
      </trkpt>
      <trkpt lat="37.1790713024" lon="-7.44418792945">
        <ele>13.8</ele>
        <time>2011-03-22T18:47:24Z</time>
      </trkpt>
      <trkpt lat="37.1790602382" lon="-7.44423411371">
        <ele>13.6</ele>
        <time>2011-03-22T18:47:28Z</time>
      </trkpt>
      <trkpt lat="37.1790728111" lon="-7.44424442345">
        <ele>13.6</ele>
        <time>2011-03-22T18:47:34Z</time>
      </trkpt>
      <trkpt lat="37.1791158941" lon="-7.44423570628">
        <ele>13.8</ele>
        <time>2011-03-22T18:47:44Z</time>
      </trkpt>
      <trkpt lat="37.179101561" lon="-7.4442490335">
        <ele>14.6</ele>
        <time>2011-03-22T18:47:51Z</time>
      </trkpt>
      <trkpt lat="37.1790868089" lon="-7.44426671931">
        <ele>15.4</ele>
        <time>2011-03-22T18:47:57Z</time>
      </trkpt>
      <trkpt lat="37.1790789299" lon="-7.44430091746">
        <ele>16.4</ele>
        <time>2011-03-22T18:48:03Z</time>
      </trkpt>
      <trkpt lat="37.1790788461" lon="-7.44434014475">
        <ele>16.8</ele>
        <time>2011-03-22T18:48:07Z</time>
      </trkpt>
      <trkpt lat="37.1790713862" lon="-7.44436185387">
        <ele>17.2</ele>
        <time>2011-03-22T18:48:12Z</time>
      </trkpt>
      <trkpt lat="37.1790662732" lon="-7.4443831439">
        <ele>17.4</ele>
        <time>2011-03-22T18:48:18Z</time>
      </trkpt>
      <trkpt lat="37.1790847972" lon="-7.44439412419">
        <ele>17.6</ele>
        <time>2011-03-22T18:48:29Z</time>
      </trkpt>
      <trkpt lat="37.1791062549" lon="-7.4443999077">
        <ele>19</ele>
        <time>2011-03-22T18:48:38Z</time>
      </trkpt>
      <trkpt lat="37.1790651836" lon="-7.44439789604">
        <ele>19.4</ele>
        <time>2011-03-22T18:48:44Z</time>
      </trkpt>
      <trkpt lat="37.1791376032" lon="-7.44441709059">
        <ele>23</ele>
        <time>2011-03-22T18:49:16Z</time>
      </trkpt>
      <trkpt lat="37.1791322388" lon="-7.44440686467">
        <ele>23.4</ele>
        <time>2011-03-22T18:49:25Z</time>
      </trkpt>
      <trkpt lat="37.1791005552" lon="-7.44440007533">
        <ele>25.8</ele>
        <time>2011-03-22T18:50:20Z</time>
      </trkpt>
      <trkpt lat="37.1790971186" lon="-7.44441818024">
        <ele>25.8</ele>
        <time>2011-03-22T18:50:30Z</time>
      </trkpt>
      <trkpt lat="37.1791050814" lon="-7.44444693016">
        <ele>25.8</ele>
        <time>2011-03-22T18:50:35Z</time>
      </trkpt>
      <trkpt lat="37.179118241" lon="-7.44444902563">
        <ele>25.8</ele>
        <time>2011-03-22T18:50:46Z</time>
      </trkpt>
      <trkpt lat="37.1791274611" lon="-7.44448766619">
        <ele>25.8</ele>
        <time>2011-03-22T18:50:54Z</time>
      </trkpt>
      <trkpt lat="37.1791215099" lon="-7.44453234172">
        <ele>25.8</ele>
        <time>2011-03-22T18:50:58Z</time>
      </trkpt>
      <trkpt lat="37.1791217614" lon="-7.44458305221">
        <ele>25.8</ele>
        <time>2011-03-22T18:51:02Z</time>
      </trkpt>
      <trkpt lat="37.1791236892" lon="-7.4446372831">
        <ele>25.2</ele>
        <time>2011-03-22T18:51:06Z</time>
      </trkpt>
      <trkpt lat="37.1791322388" lon="-7.44469017289">
        <ele>24.8</ele>
        <time>2011-03-22T18:51:10Z</time>
      </trkpt>
      <trkpt lat="37.1791343342" lon="-7.44474130248">
        <ele>24.4</ele>
        <time>2011-03-22T18:51:14Z</time>
      </trkpt>
      <trkpt lat="37.179136765" lon="-7.44480081397">
        <ele>23.6</ele>
        <time>2011-03-22T18:51:18Z</time>
      </trkpt>
      <trkpt lat="37.1791368488" lon="-7.44484783643">
        <ele>23</ele>
        <time>2011-03-22T18:51:22Z</time>
      </trkpt>
      <trkpt lat="37.179138609" lon="-7.44488765046">
        <ele>22.6</ele>
        <time>2011-03-22T18:51:25Z</time>
      </trkpt>
      <trkpt lat="37.1791458174" lon="-7.44494925742">
        <ele>21.6</ele>
        <time>2011-03-22T18:51:30Z</time>
      </trkpt>
      <trkpt lat="37.1791461527" lon="-7.44497691769">
        <ele>21.2</ele>
        <time>2011-03-22T18:51:32Z</time>
      </trkpt>
      <trkpt lat="37.1791486673" lon="-7.44503919521">
        <ele>20.6</ele>
        <time>2011-03-22T18:51:37Z</time>
      </trkpt>
      <trkpt lat="37.1791529421" lon="-7.44508487656">
        <ele>19.8</ele>
        <time>2011-03-22T18:51:42Z</time>
      </trkpt>
      <trkpt lat="37.1791600667" lon="-7.44512829481">
        <ele>19</ele>
        <time>2011-03-22T18:51:45Z</time>
      </trkpt>
      <trkpt lat="37.1791593961" lon="-7.44513365922">
        <ele>18.8</ele>
        <time>2011-03-22T18:51:46Z</time>
      </trkpt>
      <trkpt lat="37.1792085141" lon="-7.44517271888">
        <ele>17.8</ele>
        <time>2011-03-22T18:51:52Z</time>
      </trkpt>
      <trkpt lat="37.1792419578" lon="-7.4452045701">
        <ele>17</ele>
        <time>2011-03-22T18:51:57Z</time>
      </trkpt>
      <trkpt lat="37.1792482443" lon="-7.44521337109">
        <ele>16.8</ele>
        <time>2011-03-22T18:51:58Z</time>
      </trkpt>
      <trkpt lat="37.1792786706" lon="-7.44522946434">
        <ele>16.4</ele>
        <time>2011-03-22T18:52:03Z</time>
      </trkpt>
      <trkpt lat="37.1793153833" lon="-7.44523650514">
        <ele>14.8</ele>
        <time>2011-03-22T18:52:10Z</time>
      </trkpt>
      <trkpt lat="37.1793366733" lon="-7.44521789732">
        <ele>14.4</ele>
        <time>2011-03-22T18:52:15Z</time>
      </trkpt>
      <trkpt lat="37.1793754815" lon="-7.44521152707">
        <ele>12.8</ele>
        <time>2011-03-22T18:52:27Z</time>
      </trkpt>
      <trkpt lat="37.1794182292" lon="-7.44516383406">
        <ele>12.2</ele>
        <time>2011-03-22T18:52:31Z</time>
      </trkpt>
      <trkpt lat="37.1794525112" lon="-7.44514841137">
        <ele>12</ele>
        <time>2011-03-22T18:52:34Z</time>
      </trkpt>
      <trkpt lat="37.1794908164" lon="-7.44510465785">
        <ele>11.8</ele>
        <time>2011-03-22T18:52:38Z</time>
      </trkpt>
      <trkpt lat="37.1796471389" lon="-7.44492251916">
        <ele>8.6</ele>
        <time>2011-03-22T18:54:18Z</time>
      </trkpt>
      <trkpt lat="37.1796702729" lon="-7.44491003013">
        <ele>8.6</ele>
        <time>2011-03-22T18:54:19Z</time>
      </trkpt>
      <trkpt lat="37.179636913" lon="-7.44491220942">
        <ele>8.6</ele>
        <time>2011-03-22T18:54:22Z</time>
      </trkpt>
      <trkpt lat="37.1796195624" lon="-7.44491857967">
        <ele>8.6</ele>
        <time>2011-03-22T18:54:23Z</time>
      </trkpt>
      <trkpt lat="37.1795384256" lon="-7.44494506647">
        <ele>8</ele>
        <time>2011-03-22T18:54:28Z</time>
      </trkpt>
      <trkpt lat="37.1793941731" lon="-7.44498152774">
        <ele>7.6</ele>
        <time>2011-03-22T18:54:31Z</time>
      </trkpt>
      <trkpt lat="37.1799092409" lon="-7.44478974987">
        <ele>14</ele>
        <time>2011-03-22T18:59:26Z</time>
      </trkpt>
      <trkpt lat="37.1799443611" lon="-7.44478480454">
        <ele>15.2</ele>
        <time>2011-03-22T18:59:32Z</time>
      </trkpt>
      <trkpt lat="37.179955509" lon="-7.44480441819">
        <ele>15.6</ele>
        <time>2011-03-22T18:59:34Z</time>
      </trkpt>
      <trkpt lat="37.1799034574" lon="-7.44488639317">
        <ele>16</ele>
        <time>2011-03-22T18:59:38Z</time>
      </trkpt>
      <trkpt lat="37.1798851848" lon="-7.44491380199">
        <ele>16.2</ele>
        <time>2011-03-22T18:59:39Z</time>
      </trkpt>
      <trkpt lat="37.1797829257" lon="-7.444971218">
        <ele>16.6</ele>
        <time>2011-03-22T18:59:44Z</time>
      </trkpt>
      <trkpt lat="37.1797856079" lon="-7.44496275228">
        <ele>16.8</ele>
        <time>2011-03-22T18:59:48Z</time>
      </trkpt>
      <trkpt lat="37.1798658227" lon="-7.44496585358">
        <ele>16.8</ele>
        <time>2011-03-22T18:59:51Z</time>
      </trkpt>
      <trkpt lat="37.180018038" lon="-7.4448860579">
        <ele>17</ele>
        <time>2011-03-22T18:59:59Z</time>
      </trkpt>
      <trkpt lat="37.1801334567" lon="-7.44486568988">
        <ele>16.6</ele>
        <time>2011-03-22T19:00:01Z</time>
      </trkpt>
      <trkpt lat="37.1801643021" lon="-7.44485931964">
        <ele>16.2</ele>
        <time>2011-03-22T19:00:03Z</time>
      </trkpt>
      <trkpt lat="37.1801566746" lon="-7.44483517976">
        <ele>16</ele>
        <time>2011-03-22T19:00:06Z</time>
      </trkpt>
      <trkpt lat="37.1801293496" lon="-7.44483450921">
        <ele>15.8</ele>
        <time>2011-03-22T19:00:07Z</time>
      </trkpt>
      <trkpt lat="37.1799172875" lon="-7.4448556316">
        <ele>15.6</ele>
        <time>2011-03-22T19:00:11Z</time>
      </trkpt>
      <trkpt lat="37.1798842628" lon="-7.44485043482">
        <ele>15.6</ele>
        <time>2011-03-22T19:00:12Z</time>
      </trkpt>
      <trkpt lat="37.1798131005" lon="-7.44483241374">
        <ele>15.4</ele>
        <time>2011-03-22T19:00:14Z</time>
      </trkpt>
      <trkpt lat="37.1797645693" lon="-7.44482378038">
        <ele>15.4</ele>
        <time>2011-03-22T19:00:16Z</time>
      </trkpt>
      <trkpt lat="37.1796758888" lon="-7.44472864581">
        <ele>15.2</ele>
        <time>2011-03-22T19:00:22Z</time>
      </trkpt>
      <trkpt lat="37.1798158665" lon="-7.44481439265">
        <ele>13.6</ele>
        <time>2011-03-22T19:00:37Z</time>
      </trkpt>
      <trkpt lat="37.1798727796" lon="-7.44486082838">
        <ele>13.4</ele>
        <time>2011-03-22T19:00:40Z</time>
      </trkpt>
      <trkpt lat="37.1798853525" lon="-7.44486837209">
        <ele>13.4</ele>
        <time>2011-03-22T19:00:41Z</time>
      </trkpt>
      <trkpt lat="37.1797682573" lon="-7.44488806955">
        <ele>11.4</ele>
        <time>2011-03-22T19:01:17Z</time>
      </trkpt>
      <trkpt lat="37.1797389207" lon="-7.4448490099">
        <ele>11.4</ele>
        <time>2011-03-22T19:01:19Z</time>
      </trkpt>
      <trkpt lat="37.1797602107" lon="-7.44486644425">
        <ele>11.4</ele>
        <time>2011-03-22T19:01:22Z</time>
      </trkpt>
      <trkpt lat="37.1798011982" lon="-7.44491137123">
        <ele>11.4</ele>
        <time>2011-03-22T19:01:29Z</time>
      </trkpt>
      <trkpt lat="37.1797058122" lon="-7.4448957809">
        <ele>11.4</ele>
        <time>2011-03-22T19:01:36Z</time>
      </trkpt>
      <trkpt lat="37.1796804988" lon="-7.44490013949">
        <ele>11.4</ele>
        <time>2011-03-22T19:01:39Z</time>
      </trkpt>
      <trkpt lat="37.1797460453" lon="-7.44493852859">
        <ele>11.4</ele>
        <time>2011-03-22T19:01:55Z</time>
      </trkpt>
      <trkpt lat="37.1797735379" lon="-7.44499887827">
        <ele>11.4</ele>
        <time>2011-03-22T19:01:58Z</time>
      </trkpt>
    </trkseg>
  </trk>
</gpx>